Date StartTime U_cm/s V_cm/s W_cm/s Ustd_cm/s Vstd_cm/s Wstd_cm/s Uvar_(cm/s)^2 Vvar_(cm/s)^2 Wvar_(cm/s)^2 KE_(m/s)^2 TurbulentKE_(m/s)^2 HorizWindSpeed_cm/s FrictionSpeec_cm/s DragCoef SpeedOfSound_m/s SonicTemperature_C Pressure_mb 
12/30/2014  00:00:00      -86.880      145.516       -2.365       92.905      167.529       50.981     8631.340    28065.861     2599.078        3.400        1.965      169.479       60.796        0.129      331.246       -0.864      859.800
12/30/2014  00:01:00     -104.231      186.318      -26.705       78.960      103.787       50.288     6234.682    10771.706     2528.908        3.291        0.977      213.492       46.529        0.047      331.310       -0.760      859.788
12/30/2014  00:02:00     -152.641      194.038      -41.987       89.993       82.587       57.431     8098.823     6820.682     3298.337        4.046        0.911      246.881       53.020        0.046      331.163       -1.001      859.817
12/30/2014  00:03:00     -141.969      233.802      -37.182       84.466       84.635       45.716     7134.434     7163.034     2089.930        4.629        0.819      273.530       43.080        0.025      331.185       -0.967      859.817
12/30/2014  00:04:00     -201.822      185.651      -42.183       96.405       87.760       52.875     9293.942     7701.813     2795.792        4.838        0.990      274.224       49.925        0.033      331.155       -1.015      859.817
12/30/2014  00:05:00     -134.210      220.075      -24.686       75.764      118.344       58.421     5740.219    14005.294     3413.013        4.510        1.158      257.770       49.528        0.037      331.110       -1.090      859.828
12/30/2014  00:06:00     -116.218      228.963      -27.295       82.291      162.574       52.634     6771.814    26430.285     2770.306        5.132        1.799      256.770       61.973        0.058      331.169       -0.992      859.811
12/30/2014  00:07:00     -107.479      235.843      -26.120       94.725       93.165       59.794     8972.908     8679.762     3575.282        4.454        1.061      259.179       51.253        0.039      331.138       -1.044      859.810
12/30/2014  00:08:00      -84.679      149.552      -13.226       59.828      164.831       40.203     3579.340    27169.252     1616.247        3.103        1.618      171.861       41.680        0.059      331.166       -0.996      859.804
12/30/2014  00:09:00      -96.520      220.943      -20.828       64.700       73.173       39.286     4186.129     5354.342     1543.427        3.482        0.554      241.106       31.921        0.018      331.172       -0.986      859.807
12/30/2014  00:10:00     -147.087      175.498      -33.403       68.303       93.365       51.829     4665.361     8717.102     2686.258        3.481        0.803      228.985       44.129        0.037      331.156       -1.014      859.816
12/30/2014  00:11:00     -161.241      193.620      -33.529       83.673       85.103       46.947     7001.134     7242.485     2203.985        4.053        0.822      251.967       40.397        0.026      331.082       -1.135      859.834
12/30/2014  00:12:00     -195.847      220.636      -42.586       85.880      150.805       51.083     7375.322    22742.244     2609.523        6.078        1.636      295.019       48.555        0.027      331.039       -1.206      859.835
12/30/2014  00:13:00     -130.466      153.683      -24.235       73.212       77.472       40.836     5360.001     6001.835     1667.542        2.713        0.651      201.593       41.937        0.043      331.033       -1.214      859.825
12/30/2014  00:14:00     -130.691      207.457      -23.886      113.586       93.722       55.784    12901.779     8783.722     3111.865        4.274        1.240      245.191       48.850        0.040      331.042       -1.202      859.836
12/30/2014  00:15:00     -180.464      227.896      -43.640      106.818       98.845       61.766    11410.020     9770.338     3815.055        5.570        1.250      290.695       60.515        0.043      331.002       -1.268      859.846
12/30/2014  00:16:00     -200.276      269.711      -54.854       84.338       94.633       60.026     7112.926     8955.458     3603.166        6.776        0.984      335.938       58.792        0.031      330.948       -1.356      859.849
12/30/2014  00:17:00     -217.476      251.271      -41.517      122.970      111.602       78.422    15121.585    12455.054     6149.977        7.294        1.686      332.315       69.841        0.044      330.938       -1.371      859.835
12/30/2014  00:18:00     -151.478      323.007      -39.432       91.507      114.763       51.391     8373.512    13170.516     2641.050        7.650        1.209      356.762       40.202        0.013      330.928       -1.390      859.834
12/30/2014  00:19:00     -128.909      113.352       -3.324      115.776       66.692       49.792    13404.079     4447.797     2479.207        2.490        1.017      171.657       53.110        0.096      330.992       -1.281      859.832
12/30/2014  00:20:00     -122.605      151.883      -27.221       86.639      101.312       54.943     7506.327    10264.153     3018.681        2.981        1.039      195.193       56.690        0.084      330.968       -1.322      859.853
12/30/2014  00:21:00      -92.141      125.220      -15.816       65.603       86.383       38.262     4303.794     7462.101     1463.960        1.882        0.661      155.467       35.561        0.052      331.070       -1.153      859.844
12/30/2014  00:22:00     -127.397      194.916      -22.466      108.015      111.889       57.141    11667.261    12519.062     3265.104        4.108        1.373      232.856       60.562        0.068      331.005       -1.263      859.864
12/30/2014  00:23:00     -216.245      278.320      -52.794       88.736      113.217       54.040     7874.053    12818.057     2920.282        7.531        1.181      352.454       44.909        0.016      330.912       -1.414      859.878
12/30/2014  00:24:00     -120.132      210.667      -32.783      107.681       95.669       50.580    11595.103     9152.595     2558.331        4.159        1.165      242.513       57.391        0.056      330.963       -1.329      859.860
12/30/2014  00:25:00     -225.850      281.075      -56.467       96.442      102.065       61.110     9300.989    10417.179     3734.420        7.832        1.173      360.571       59.431        0.027      330.902       -1.431      859.854
12/30/2014  00:26:00     -212.493      247.404      -61.376       92.374       73.636       43.239     8532.881     5422.305     1869.632        6.297        0.791      326.132       45.274        0.019      330.902       -1.431      859.855
12/30/2014  00:27:00     -148.318      224.490      -42.232       99.618      109.965       52.623     9923.801    12092.209     2769.130        4.948        1.239      269.061       63.696        0.056      330.915       -1.410      859.856
12/30/2014  00:28:00     -127.663      167.084      -36.473       69.048       80.273       50.663     4767.667     6443.803     2566.740        2.966        0.689      210.273       43.113        0.042      330.950       -1.351      859.863
12/30/2014  00:29:00     -104.308      157.780      -23.169       76.857       75.575       40.587     5906.962     5711.615     1647.307        2.479        0.663      189.142       46.237        0.060      330.951       -1.348      859.868
12/30/2014  00:30:00     -144.466      230.295      -29.875      107.610      113.326       61.280    11579.857    12842.844     3755.207        5.148        1.409      271.857       66.473        0.060      330.875       -1.474      859.862
12/30/2014  00:31:00     -138.838      247.972      -39.745       98.340      107.751       55.134     9670.730    11610.207     3039.747        5.333        1.216      284.194       40.670        0.020      330.908       -1.420      859.865
12/30/2014  00:32:00     -117.298      242.092      -37.116       76.795      107.220       50.658     5897.413    11496.227     2566.264        4.685        0.998      269.012       44.889        0.028      330.888       -1.455      859.872
12/30/2014  00:33:00      -88.612       92.358       -6.899       89.271      104.801       50.806     7969.349    10983.248     2581.202        1.898        1.077      127.992       50.996        0.159      330.948       -1.354      859.878
12/30/2014  00:34:00     -186.392      234.694      -49.457      107.381      100.132       54.857    11530.730    10026.405     3009.315        5.841        1.228      299.705       69.555        0.054      330.829       -1.552      859.878
12/30/2014  00:35:00     -133.816      213.040      -42.617       70.734      103.901       53.738     5003.344    10795.502     2887.777        4.189        0.934      251.580       52.445        0.043      330.813       -1.577      859.879
12/30/2014  00:36:00     -142.395      151.822      -20.834       97.212       90.772       47.725     9450.150     8239.560     2277.634        3.186        0.998      208.149       46.731        0.050      330.837       -1.537      859.890
12/30/2014  00:37:00     -108.310      104.607        0.055       88.612       81.653       51.673     7852.067     6667.280     2670.083        1.993        0.859      150.578       54.605        0.132      330.899       -1.435      859.887
12/30/2014  00:38:00     -171.030      192.733      -32.292       87.803       73.823       55.870     7709.418     5449.855     3121.456        4.186        0.814      257.677       48.685        0.036      330.814       -1.576      859.901
12/30/2014  00:39:00      -68.006      208.774      -26.777       53.145       87.529       40.443     2824.360     7661.357     1635.624        3.052        0.606      219.571       38.329        0.030      330.918       -1.404      859.910
12/30/2014  00:40:00     -140.333      158.152      -29.034       80.977      102.853       53.222     6557.323    10578.781     2832.590        3.275        0.998      211.437       49.428        0.055      330.906       -1.425      859.909
12/30/2014  00:41:00      -92.771      136.514      -10.174       66.814       87.948       43.516     4464.118     7734.769     1893.673        2.072        0.705      165.054       46.490        0.079      330.919       -1.401      859.904
12/30/2014  00:42:00      -84.122      224.010      -22.282       88.386      126.403       54.732     7812.142    15977.834     2995.542        4.226        1.339      239.285       63.330        0.070      330.913       -1.413      859.897
12/30/2014  00:43:00     -145.455      176.298      -25.574       74.776       88.957       51.353     5591.472     7913.341     2637.148        3.451        0.807      228.557       50.389        0.049      330.874       -1.477      859.901
12/30/2014  00:44:00     -122.966      235.695      -34.011       81.530      103.492       46.078     6647.068    10710.696     2123.156        4.565        0.974      265.844       41.131        0.024      330.880       -1.468      859.908
12/30/2014  00:45:00     -102.289      180.546      -29.806       85.999       99.191       50.462     7395.749     9838.779     2546.427        3.186        0.989      207.509       54.037        0.068      330.927       -1.389      859.904
12/30/2014  00:46:00     -165.922      130.879      -31.127      107.843       92.896       54.680    11630.050     8629.701     2989.920        3.443        1.162      211.328       68.015        0.104      330.888       -1.454      859.906
12/30/2014  00:47:00     -146.660      228.010      -47.325       80.637       94.694       42.673     6502.292     8966.927     1820.955        4.651        0.865      271.105       39.520        0.021      330.851       -1.515      859.918
12/30/2014  00:48:00     -121.654      192.105      -22.640       61.110       85.845       48.827     3734.402     7369.337     2384.109        3.285        0.674      227.385       47.995        0.045      330.853       -1.511      859.929
12/30/2014  00:49:00      -78.142      199.631      -16.575       55.194       72.022       45.506     3046.330     5187.165     2070.770        2.827        0.515      214.380       40.961        0.037      330.909       -1.419      859.939
12/30/2014  00:50:00     -142.587      200.055      -26.433       84.071       89.854       47.310     7067.955     8073.690     2238.230        3.921        0.869      245.668       35.558        0.021      330.905       -1.426      859.944
12/30/2014  00:51:00     -119.519      180.510      -26.854       50.814       70.726       41.620     2582.096     5002.099     1732.183        2.845        0.466      216.492       35.165        0.026      330.870       -1.482      859.965
12/30/2014  00:52:00     -158.308      258.210      -47.305       89.344       87.866       46.838     7982.358     7720.501     2193.832        5.593        0.895      302.875       48.003        0.025      330.862       -1.498      859.978
12/30/2014  00:53:00     -159.491      230.702      -37.693      104.034      107.682       63.485    10823.083    11595.399     4030.316        5.326        1.322      280.465       63.820        0.052      330.861       -1.497      859.984
12/30/2014  00:54:00     -164.618      171.750      -28.013      117.657       63.498       54.590    13843.228     4032.057     2980.121        3.911        1.043      237.901       47.066        0.039      330.862       -1.497      859.996
12/30/2014  00:55:00     -167.149      195.977      -33.826      105.237       89.628       62.939    11074.749     8033.261     3961.274        4.527        1.153      257.576       54.654        0.045      330.871       -1.483      859.989
12/30/2014  00:56:00      -88.344      190.120      -22.442       62.700      109.801       56.483     3931.242    12056.350     3190.369        3.181        0.959      209.643       56.026        0.071      330.902       -1.429      860.002
12/30/2014  00:57:00     -180.124      280.760      -48.685      119.036       85.588       65.750    14169.484     7325.292     4323.093        6.972        1.291      333.572       68.551        0.042      330.816       -1.572      860.015
12/30/2014  00:58:00      -94.895      215.254      -13.945       76.405      117.289       54.787     5837.790    13756.628     3001.606        3.906        1.130      235.243       55.879        0.056      330.886       -1.457      860.016
12/30/2014  00:59:00     -128.086      203.078      -27.525       91.844      146.937       53.454     8435.349    21590.360     2857.313        4.564        1.644      240.097       45.298        0.036      330.858       -1.503      860.016
12/30/2014  01:00:00     -119.498      174.837      -27.729       68.345       86.392       48.156     4671.046     7463.513     2318.994        3.003        0.723      211.773       44.540        0.044      330.800       -1.599      860.022
12/30/2014  01:01:00     -113.224      253.327      -35.269       62.520       92.592       54.205     3908.771     8573.197     2938.186        4.683        0.771      277.479       39.645        0.020      330.827       -1.553      860.021
12/30/2014  01:02:00      -63.517      217.360       -4.577       58.368      103.576       53.420     3406.825    10728.068     2853.744        3.414        0.849      226.451       49.389        0.048      330.819       -1.565      860.019
12/30/2014  01:03:00     -186.539      248.896      -45.022      109.909      118.284       72.244    12079.916    13991.025     5219.136        6.503        1.565      311.040       63.551        0.042      330.768       -1.651      860.022
12/30/2014  01:04:00     -150.000      234.923      -39.857       82.181       98.735       55.010     6753.713     9748.518     3026.105        4.940        0.976      278.727       55.353        0.039      330.750       -1.679      860.035
12/30/2014  01:05:00     -147.983      196.375      -35.740       93.037       91.533       45.958     8655.880     8378.243     2112.168        4.044        0.957      245.890       37.636        0.023      330.807       -1.586      860.050
12/30/2014  01:06:00     -119.214      243.720      -29.861       99.776       86.403       58.543     9955.156     7465.404     3427.240        4.767        1.042      271.314       56.021        0.043      330.771       -1.645      860.075
12/30/2014  01:07:00     -175.044      248.151      -44.840       92.919       86.143       54.284     8633.903     7420.598     2946.739        5.661        0.950      303.677       58.374        0.037      330.704       -1.755      860.088
12/30/2014  01:08:00     -195.185      320.704      -49.170       85.772      110.427       61.300     7356.853    12194.178     3757.686        8.333        1.165      375.431       60.045        0.026      330.698       -1.765      860.092
12/30/2014  01:09:00     -176.118      233.010      -44.786       85.155      110.534       50.673     7251.305    12217.728     2567.752        5.467        1.102      292.081       48.959        0.028      330.722       -1.726      860.096
12/30/2014  01:10:00      -62.173      155.453      -15.235       68.802       74.056       42.570     4733.729     5484.320     1812.195        2.014        0.602      167.425       46.031        0.076      330.832       -1.545      860.100
12/30/2014  01:11:00     -156.924      184.990      -40.567      103.073      116.502       51.795    10624.090    13572.699     2682.769        4.368        1.344      242.583       68.049        0.079      330.835       -1.540      860.113
12/30/2014  01:12:00     -111.304      217.409      -28.626       61.085       80.157       43.944     3731.358     6425.131     1931.036        3.628        0.604      244.244       36.740        0.023      330.746       -1.687      860.116
12/30/2014  01:13:00     -119.688      211.516      -18.183       77.405      142.254       54.750     5991.516    20236.328     2997.540        4.430        1.461      243.032       61.074        0.063      330.838       -1.535      860.116
12/30/2014  01:14:00     -141.666      222.993      -42.745       99.238      102.763       48.813     9848.266    10560.147     2382.690        4.720        1.140      264.187       47.026        0.032      330.708       -1.748      860.144
12/30/2014  01:15:00     -177.443      208.130      -28.781      120.486      130.532       62.765    14516.896    17038.565     3939.450        5.556        1.775      273.504       63.542        0.054      330.710       -1.744      860.164
12/30/2014  01:16:00     -141.209      205.825      -31.905       82.669      101.202       55.073     6834.092    10241.764     3033.074        4.171        1.005      249.607       53.059        0.045      330.734       -1.706      860.174
12/30/2014  01:17:00     -161.754      208.504      -31.770      100.179      147.142       61.196    10035.733    21650.880     3744.980        5.303        1.772      263.890       66.619        0.064      330.689       -1.780      860.173
12/30/2014  01:18:00     -159.458      320.000      -46.878      107.530      116.679       64.580    11562.798    13614.018     4170.567        7.968        1.467      357.529       63.189        0.031      330.681       -1.794      860.188
12/30/2014  01:19:00     -133.987      271.237      -32.907       85.882      104.127       56.002     7375.663    10842.408     3136.211        5.698        1.068      302.526       62.935        0.043      330.691       -1.777      860.196
12/30/2014  01:20:00     -160.992      168.603      -24.838       88.116      101.469       50.799     7764.420    10296.000     2580.491        3.780        1.032      233.121       43.905        0.035      330.712       -1.744      860.208
12/30/2014  01:21:00     -206.302      263.389      -51.522       94.484      100.006       63.261     8927.194    10001.157     4002.010        6.876        1.147      334.566       49.511        0.022      330.678       -1.801      860.220
12/30/2014  01:22:00     -127.933      198.451      -22.575       82.409       84.520       56.557     6791.301     7143.590     3198.670        3.669        0.857      236.114       57.710        0.060      330.695       -1.770      860.219
12/30/2014  01:23:00     -156.721      283.894      -44.319      122.351      139.985       67.028    14969.828    19595.897     4492.772        7.308        1.953      324.279       72.322        0.050      330.657       -1.834      860.223
12/30/2014  01:24:00     -164.596      274.353      -36.330       98.198      128.184       63.930     9642.806    16431.252     4087.017        6.692        1.508      319.940       72.475        0.051      330.672       -1.808      860.206
12/30/2014  01:25:00     -175.468      245.910      -41.039       89.729      117.175       66.890     8051.323    13730.095     4474.320        5.960        1.313      302.094       51.381        0.029      330.645       -1.853      860.198
12/30/2014  01:26:00     -168.465      232.375      -35.681       98.149       92.798       56.962     9633.133     8611.379     3244.682        5.257        1.074      287.016       52.322        0.033      330.693       -1.775      860.215
12/30/2014  01:27:00     -117.818      245.690      -34.369       86.798      105.328       52.390     7533.942    11093.928     2744.702        4.839        1.069      272.479       48.150        0.031      330.663       -1.823      860.212
12/30/2014  01:28:00      -84.043      210.703      -21.785       80.714       80.063       50.594     6514.816     6410.106     2559.767        3.371        0.774      226.846       43.370        0.037      330.764       -1.656      860.232
12/30/2014  01:29:00     -105.517      171.365      -11.423       74.675       96.812       48.974     5576.317     9372.625     2398.422        2.899        0.867      201.245       43.312        0.046      330.759       -1.663      860.268
12/30/2014  01:30:00      -54.910      305.340      -31.918       66.396      113.340       49.557     4408.368    12846.004     2455.867        5.848        0.986      310.238       51.603        0.028      330.689       -1.780      860.307
12/30/2014  01:31:00      -67.829      317.962      -44.105       70.807       96.425       43.620     5013.607     9297.811     1902.721        6.193        0.811      325.116       45.354        0.019      330.668       -1.816      860.328
12/30/2014  01:32:00      -88.872      351.326      -44.249       81.124       92.430       58.374     6581.175     8543.302     3407.524        7.591        0.927      362.392       48.665        0.018      330.638       -1.866      860.344
12/30/2014  01:33:00     -126.823      258.520      -36.875       86.380      120.000       57.792     7461.436    14399.979     3339.878        5.473        1.260      287.953       61.541        0.046      330.681       -1.793      860.366
12/30/2014  01:34:00      -75.468      358.992      -30.194       73.351      107.893       53.255     5380.361    11640.942     2836.088        7.767        0.993      366.839       48.977        0.018      330.615       -1.903      860.373
12/30/2014  01:35:00     -175.481      220.042      -32.898       94.015      134.110       59.996     8838.796    17985.419     3599.570        5.535        1.521      281.446       54.657        0.038      330.691       -1.777      860.391
12/30/2014  01:36:00     -139.221      231.600      -39.209       86.090       80.974       49.871     7411.434     6556.715     2487.157        4.550        0.823      270.224       53.809        0.040      330.642       -1.858      860.404
12/30/2014  01:37:00      -83.923      337.475      -34.376       99.076      143.365       61.123     9816.138    20553.563     3736.080        7.810        1.705      347.754       70.038        0.041      330.622       -1.889      860.420
12/30/2014  01:38:00     -163.018      375.177      -58.983      124.815      140.344       66.243    15578.706    19696.359     4388.191       10.523        1.983      409.063       59.310        0.021      330.561       -1.989      860.443
12/30/2014  01:39:00     -115.637      232.285       -4.787      133.999      132.776       75.789    17955.760    17629.538     5744.006        5.433        2.066      259.477       62.787        0.059      330.616       -1.901      860.447
12/30/2014  01:40:00     -126.599      402.546      -53.206       92.349      112.483       65.791     8528.370    12652.450     4328.468       10.320        1.275      421.984       64.170        0.023      330.515       -2.065      860.479
12/30/2014  01:41:00     -110.406      304.823      -29.437      101.761      133.086       67.204    10355.318    17711.790     4516.346        6.927        1.629      324.201       65.096        0.040      330.544       -2.019      860.477
12/30/2014  01:42:00     -100.383      325.826      -33.957       74.645      116.713       57.336     5571.839    13621.902     3287.399        6.993        1.124      340.939       60.741        0.032      330.536       -2.032      860.482
12/30/2014  01:43:00     -114.007      253.289      -28.794       78.152      118.878       56.334     6107.787    14131.866     3173.484        5.069        1.171      277.764       55.035        0.039      330.525       -2.050      860.483
12/30/2014  01:44:00      -95.022      168.768      -15.880       93.495       90.241       49.673     8741.358     8143.382     2467.443        2.855        0.968      193.679       42.409        0.048      330.607       -1.915      860.494
12/30/2014  01:45:00      -96.289      268.724      -21.113      115.929      127.355       74.297    13439.441    16219.421     5519.992        5.855        1.759      285.455       68.187        0.057      330.489       -2.109      860.509
12/30/2014  01:46:00     -122.278      183.051      -25.080       92.411      136.212       53.806     8539.799    18553.799     2895.137        3.953        1.499      220.136       63.662        0.084      330.464       -2.150      860.529
12/30/2014  01:47:00     -106.859      254.659      -27.613       80.117      120.693       49.557     6418.762    14566.812     2455.856        5.023        1.172      276.170       60.356        0.048      330.445       -2.179      860.535
12/30/2014  01:48:00      -60.703      333.813      -31.740       60.116       98.188       42.390     3613.932     9640.851     1796.895        6.558        0.753      339.287       39.001        0.013      330.371       -2.303      860.544
12/30/2014  01:49:00      -77.706      183.744      -13.378       69.474       72.686       43.447     4826.595     5283.237     1887.625        2.599        0.600      199.499       31.762        0.025      330.503       -2.085      860.560
12/30/2014  01:50:00     -105.382      265.208      -31.234       76.146      133.630       53.224     5798.199    17857.023     2832.804        5.445        1.324      285.378       41.460        0.021      330.381       -2.286      860.600
12/30/2014  01:51:00     -128.813      179.526      -26.595       98.862      118.239       59.959     9773.622    13980.514     3595.026        3.843        1.367      220.958       50.438        0.052      330.429       -2.208      860.620
12/30/2014  01:52:00      -88.594      243.909      -31.465       99.634      126.472       56.341     9926.881    15995.070     3174.266        4.871        1.455      259.501       59.074        0.052      330.332       -2.366      860.640
12/30/2014  01:53:00     -128.948      210.731      -25.727       90.244       89.790       53.940     8143.947     8062.201     2909.536        4.040        0.956      247.053       45.725        0.034      330.324       -2.379      860.640
12/30/2014  01:54:00      -86.383      234.553      -37.206       74.388       98.921       44.038     5533.638     9785.291     1939.306        4.056        0.863      249.954       48.869        0.038      330.328       -2.373      860.649
12/30/2014  01:55:00      -85.865      242.596      -19.040      101.934      113.922       67.565    10390.629    12978.254     4564.982        4.726        1.397      257.343       67.749        0.069      330.335       -2.361      860.672
12/30/2014  01:56:00      -95.422      399.596      -47.867       89.489      136.944       53.950     8008.192    18753.692     2910.593       10.037        1.484      410.831       56.060        0.019      330.243       -2.513      860.687
12/30/2014  01:57:00     -106.328      282.911      -30.509       86.836       94.334       55.397     7540.523     8898.931     3068.786        5.589        0.975      302.232       48.931        0.026      330.257       -2.490      860.711
12/30/2014  01:58:00     -158.039      292.639      -39.531       90.529      118.627       53.649     8195.471    14072.374     2878.168        6.866        1.257      332.587       66.496        0.040      330.248       -2.505      860.720
12/30/2014  01:59:00     -172.915      215.700      -35.145      113.877      100.748       53.203    12968.033    10150.096     2830.531        5.180        1.297      276.453       51.045        0.034      330.252       -2.498      860.736
12/30/2014  02:00:00     -105.009      183.197      -16.551       68.224       95.158       56.396     4654.477     9055.071     3180.507        3.087        0.845      211.159       54.141        0.066      330.247       -2.503      860.746
12/30/2014  02:01:00      -95.374      336.947      -33.857       75.686      107.709       53.226     5728.363    11601.276     2832.958        7.197        1.008      350.185       46.838        0.018      330.255       -2.492      860.744
12/30/2014  02:02:00     -131.217      234.741      -12.813       64.637      104.186       59.090     4177.897    10854.710     3491.615        4.550        0.926      268.926       53.656        0.040      330.287       -2.440      860.740
12/30/2014  02:03:00     -120.812      184.908      -32.980      102.823       84.448       56.622    10572.500     7131.467     3206.082        3.539        1.046      220.876       52.001        0.055      330.343       -2.347      860.739
12/30/2014  02:04:00      -74.722      227.645      -21.244      101.738       75.095       49.152    10350.713     5639.291     2415.918        3.813        0.920      239.594       37.788        0.025      330.382       -2.284      860.731
12/30/2014  02:05:00     -101.720      357.776      -49.042       97.274      149.753       59.512     9462.284    22425.955     3541.626        8.809        1.771      371.955       59.586        0.026      330.310       -2.402      860.741
12/30/2014  02:06:00      -85.230      301.298      -30.213       75.795      105.843       58.117     5744.856    11202.817     3377.584        5.964        1.016      313.120       57.817        0.034      330.310       -2.403      860.760
12/30/2014  02:07:00      -45.428      349.982      -46.639       79.960       84.999       37.040     6393.625     7224.837     1371.964        7.086        0.750      352.918       36.729        0.011      330.235       -2.525      860.763
12/30/2014  02:08:00      -51.206      327.374      -44.936       65.813      100.385       39.118     4331.372    10077.164     1530.186        6.387        0.797      331.354       30.386        0.008      330.310       -2.403      860.773
12/30/2014  02:09:00      -57.802      226.007      -17.117       92.672      106.772       50.972     8588.161    11400.263     2598.174        3.865        1.129      233.282       57.086        0.060      330.345       -2.346      860.792
12/30/2014  02:10:00      -76.008      262.864      -30.085       69.143       79.676       42.172     4780.744     6348.211     1778.493        4.434        0.645      273.632       33.867        0.015      330.301       -2.419      860.800
12/30/2014  02:11:00      -53.443      313.592      -35.216       47.502       84.579       38.099     2256.487     7153.670     1451.523        5.665        0.543      318.114       36.648        0.013      330.243       -2.511      860.809
12/30/2014  02:12:00      -69.137      161.779      -33.322       60.700       91.385       40.270     3684.536     8351.127     1621.639        2.286        0.683      175.933       28.358        0.026      330.421       -2.217      860.821
12/30/2014  02:13:00     -113.190      159.216      -25.562       78.284       72.277       45.764     6128.364     5224.013     2094.348        2.613        0.672      195.351       46.831        0.057      330.330       -2.369      860.854
12/30/2014  02:14:00      -62.837      261.783      -28.917       62.901       71.702       36.787     3956.582     5141.157     1353.273        4.188        0.523      269.219       32.245        0.014      330.326       -2.376      860.867
12/30/2014  02:15:00      -61.383      323.781      -37.194       76.279      124.992       59.680     5818.435    15623.029     3561.695        6.749        1.250      329.548       64.445        0.038      330.321       -2.385      860.899
12/30/2014  02:16:00     -128.930      342.829      -57.109       77.311      116.510       53.103     5976.985    13574.538     2819.898        7.989        1.119      366.271       46.854        0.016      330.264       -2.478      860.912
12/30/2014  02:17:00      -93.897      273.533      -27.675       93.702       89.629       55.620     8780.019     8033.377     3093.623        5.215        0.995      289.201       55.858        0.037      330.263       -2.480      860.941
12/30/2014  02:18:00     -126.696      312.076      -35.751      111.357      162.818       67.814    12400.305    26509.584     4598.783        7.911        2.175      336.814       88.278        0.069      330.206       -2.573      860.944
12/30/2014  02:19:00      -86.100      248.032      -20.618       80.868      120.017       53.171     6539.642    14404.006     2827.164        4.656        1.189      262.551       69.989        0.071      330.206       -2.572      860.944
12/30/2014  02:20:00      -86.853      277.315      -33.020       89.499      147.519       57.676     8010.126    21761.808     3326.484        5.931        1.655      290.597       61.383        0.045      330.285       -2.443      860.967
12/30/2014  02:21:00     -149.793      351.256      -50.294      112.782      130.879       68.919    12719.743    17129.404     4749.892        9.147        1.730      381.862       64.316        0.028      330.142       -2.680      860.967
12/30/2014  02:22:00     -159.774      391.122      -54.795      119.017       96.785       63.964    14165.117     9367.338     4091.348       10.456        1.381      422.497       67.424        0.025      330.097       -2.752      860.976
12/30/2014  02:23:00     -127.062      341.836      -34.644       94.650      129.608       59.174     8958.691    16798.353     3501.526        8.172        1.463      364.687       61.504        0.028      330.123       -2.709      860.981
12/30/2014  02:24:00     -104.783      281.062      -38.910      100.537      140.181       59.147    10107.616    19650.783     3498.338        6.237        1.663      299.959       67.838        0.051      330.134       -2.690      860.987
12/30/2014  02:25:00     -124.946      334.002      -31.271       90.395      112.531       62.452     8171.278    12663.258     3900.281        7.644        1.237      356.608       65.404        0.034      330.071       -2.795      860.992
12/30/2014  02:26:00      -99.920      291.312      -31.962       66.919      101.517       53.240     4478.148    10305.762     2834.537        5.674        0.881      307.972       52.081        0.029      330.092       -2.761      860.987
12/30/2014  02:27:00      -76.053      267.992      -32.888       77.561      101.014       39.911     6015.757    10203.883     1592.875        4.825        0.891      278.575       40.994        0.022      330.078       -2.783      860.996
12/30/2014  02:28:00      -79.235      169.849      -18.959       59.389       82.234       45.638     3527.072     6762.491     2082.806        2.393        0.619      187.421       40.559        0.047      330.132       -2.693      861.007
12/30/2014  02:29:00     -203.672      153.321      -34.622      108.268       88.030       57.073    11721.979     7749.350     3257.288        4.445        1.136      254.931       55.237        0.047      330.063       -2.807      861.038
12/30/2014  02:30:00     -147.500      147.002      -19.343       86.169      149.653       53.814     7425.138    22396.153     2895.974        3.822        1.636      208.245       51.156        0.060      330.095       -2.755      861.037
12/30/2014  02:31:00      -57.001      124.664       -5.327       76.391       93.457       47.227     5835.631     8734.203     2230.348        1.781        0.840      137.077       54.175        0.156      330.127       -2.700      861.057
12/30/2014  02:32:00      -97.633      113.900      -17.292       92.263       70.841       47.605     8512.502     5018.429     2266.273        1.930        0.790      150.018       36.397        0.059      330.181       -2.611      861.064
12/30/2014  02:33:00     -146.227      296.812      -31.687      130.543      143.616       68.569    17041.458    20625.427     4701.664        7.642        2.118      330.878       46.508        0.020      330.066       -2.802      861.062
12/30/2014  02:34:00     -176.673      235.737      -43.969       98.933      101.483       58.587     9787.739    10298.897     3432.404        5.611        1.176      294.594       62.847        0.046      330.021       -2.875      861.075
12/30/2014  02:35:00     -130.669      303.743      -37.894      102.918      153.991       58.894    10592.168    23713.288     3468.489        7.426        1.889      330.657       53.880        0.027      330.041       -2.844      861.079
12/30/2014  02:36:00     -132.066      168.471      -19.474       89.181      104.185       50.212     7953.243    10854.570     2521.292        3.376        1.066      214.065       50.758        0.056      330.004       -2.903      861.088
12/30/2014  02:37:00      -98.876      131.938      -20.795       82.523       72.816       47.852     6810.005     5302.139     2289.787        2.101        0.720      164.876       49.506        0.090      330.094       -2.756      861.105
12/30/2014  02:38:00     -100.759      209.815      -29.405       79.369       74.454       44.942     6299.408     5543.422     2019.763        3.445        0.693      232.754       35.369        0.023      330.069       -2.797      861.097
12/30/2014  02:39:00     -102.438      395.528      -32.640       68.845      129.127       67.827     4739.635    16673.690     4600.550        9.700        1.301      408.578       58.320        0.020      330.018       -2.882      861.083
12/30/2014  02:40:00     -138.860      237.511      -39.876       78.552      129.212       46.769     6170.425    16695.647     2187.325        5.116        1.253      275.125       38.465        0.020      330.066       -2.800      861.083
12/30/2014  02:41:00     -157.936      264.047      -37.853      120.542      152.253       62.297    14530.422    23180.913     3880.913        6.884        2.080      307.676       81.498        0.070      330.086       -2.770      861.079
12/30/2014  02:42:00     -212.411      183.604      -28.816      154.720      106.046       61.202    23938.329    11245.709     3745.638        5.929        1.946      280.765       56.097        0.040      330.035       -2.853      861.087
12/30/2014  02:43:00     -190.916      378.526      -61.388      131.056      119.226       70.994    17175.715    14214.884     5040.160       10.996        1.822      423.947       79.072        0.035      329.991       -2.924      861.102
12/30/2014  02:44:00     -180.372      307.777      -40.202      103.286      119.902       65.826    10667.953    14376.582     4333.078        7.912        1.469      356.736       70.429        0.039      330.016       -2.883      861.105
12/30/2014  02:45:00     -189.455      438.189      -66.189      124.106      111.919       65.462    15402.422    12525.795     4285.247       13.224        1.611      477.391       56.194        0.014      329.987       -2.931      861.112
12/30/2014  02:46:00     -109.186      214.469      -19.222       79.700      138.859       67.406     6352.077    19281.904     4543.513        4.423        1.509      240.663       52.717        0.048      330.061       -2.810      861.118
12/30/2014  02:47:00     -163.126      225.385      -34.060      154.200      103.424       66.825    23777.713    10696.624     4465.639        5.875        1.947      278.224       52.664        0.036      330.060       -2.811      861.135
12/30/2014  02:48:00     -181.378      208.728      -41.330      108.305      105.431       57.831    11729.876    11115.748     3344.453        5.218        1.310      276.524       69.304        0.063      330.012       -2.891      861.142
12/30/2014  02:49:00     -111.551      230.918      -26.861       76.239      106.911       53.827     5812.457    11429.908     2897.354        4.331        1.007      256.450       46.651        0.033      330.042       -2.842      861.155
12/30/2014  02:50:00     -178.543      217.579      -49.802      123.293      152.738       70.356    15201.098    23328.850     4949.922        6.258        2.174      281.458       89.299        0.101      329.984       -2.936      861.170
12/30/2014  02:51:00     -119.828      186.697      -28.874       98.113      126.148       60.380     9626.170    15913.407     3645.733        3.961        1.459      221.844       63.669        0.082      329.984       -2.936      861.170
12/30/2014  02:52:00     -103.454      267.119      -35.022       63.945       98.254       49.732     4088.916     9653.808     2473.293        4.975        0.811      286.453       47.419        0.027      329.998       -2.914      861.173
12/30/2014  02:53:00     -111.177      209.886      -34.871       79.756       93.909       49.074     6361.098     8818.952     2408.295        3.760        0.879      237.513       26.405        0.012      330.033       -2.856      861.192
12/30/2014  02:54:00     -173.220      250.593      -44.393      126.444      118.079       63.500    15988.165    13942.551     4032.214        6.436        1.698      304.634       71.998        0.056      329.954       -2.988      861.201
12/30/2014  02:55:00     -117.696      438.003      -46.572      102.956      161.740       72.894    10599.894    26159.884     5313.570       12.496        2.104      453.540       72.778        0.026      329.879       -3.109      861.203
12/30/2014  02:56:00     -202.870      386.633      -55.583      125.475      196.809       82.191    15743.954    38733.665     6755.383       12.747        3.062      436.625       88.487        0.041      329.824       -3.199      861.207
12/30/2014  02:57:00     -151.732      277.058      -41.361       88.845      130.438       52.639     7893.464    17014.111     2770.837        6.458        1.384      315.886       44.772        0.020      329.834       -3.184      861.242
12/30/2014  02:58:00      -98.769      219.098      -30.524       76.135      121.484       54.904     5796.506    14758.338     3014.448        4.113        1.178      240.332       54.055        0.051      329.895       -3.081      861.254
12/30/2014  02:59:00     -241.727      240.364      -60.152      125.084      133.593       67.996    15646.083    17847.123     4623.442        7.896        1.906      340.891       78.244        0.053      329.793       -3.248      861.263
12/30/2014  03:00:00     -184.388      279.285      -50.606      129.228      109.518       67.916    16699.897    11994.089     4612.536        7.393        1.665      334.663       66.490        0.039      329.733       -3.348      861.291
12/30/2014  03:01:00      -84.528      318.208      -29.538       78.966      109.699       60.926     6235.621    12033.817     3712.002        6.562        1.099      329.243       60.810        0.034      329.801       -3.237      861.291
12/30/2014  03:02:00     -212.505      244.105      -60.132      109.999      147.380       68.657    12099.842    21720.780     4713.795        7.344        1.927      323.644       84.676        0.068      329.767       -3.291      861.293
12/30/2014  03:03:00     -156.402      186.416      -34.071      101.196      163.133       64.766    10240.620    26612.485     4194.619        5.070        2.052      243.336       58.066        0.057      329.765       -3.294      861.291
12/30/2014  03:04:00      -99.921      347.420      -37.084       84.489      102.653       57.325     7138.308    10537.731     3286.133        7.651        1.048      361.504       53.475        0.022      329.718       -3.373      861.296
12/30/2014  03:05:00     -161.482      195.034      -38.316       94.313       98.597       62.117     8894.963     9721.404     3858.532        4.402        1.124      253.209       60.728        0.058      329.724       -3.363      861.298
12/30/2014  03:06:00     -226.747      186.075      -44.763      115.589      104.763       68.680    13360.755    10975.249     4716.930        5.854        1.453      293.323       58.717        0.040      329.701       -3.401      861.309
12/30/2014  03:07:00     -190.108      210.063      -38.191       93.349       97.952       63.654     8714.028     9594.592     4051.800        5.204        1.118      283.315       64.941        0.053      329.671       -3.450      861.293
12/30/2014  03:08:00     -176.184      195.748      -37.958      130.113      111.123       63.589    16929.440    12348.307     4043.574        5.205        1.666      263.359       71.581        0.074      329.717       -3.374      861.274
12/30/2014  03:09:00     -180.187      235.023      -43.625      102.030      120.931       55.658    10410.025    14624.264     3097.853        5.886        1.407      296.147       59.162        0.040      329.657       -3.471      861.259
12/30/2014  03:10:00     -202.263      287.868      -47.038      117.413      152.606       64.845    13785.875    23288.661     4204.927        8.363        2.064      351.822       69.903        0.039      329.663       -3.462      861.253
12/30/2014  03:11:00     -134.514      254.567      -36.364       67.285      126.000       57.145     4527.319    15875.929     3265.581        5.394        1.183      287.920       55.556        0.037      329.751       -3.318      861.264
12/30/2014  03:12:00     -119.642      250.593      -31.136       86.630      104.590       63.358     7504.808    10939.089     4014.225        5.026        1.123      277.689       52.462        0.036      329.754       -3.314      861.305
12/30/2014  03:13:00     -135.189      235.017      -28.698       81.849      115.294       50.754     6699.252    13292.602     2575.970        4.845        1.128      271.126       50.207        0.034      329.739       -3.338      861.323
12/30/2014  03:14:00     -123.750      190.791      -20.389       77.748      116.989       60.557     6044.688    13686.317     3667.167        3.776        1.170      227.410       55.511        0.060      329.741       -3.334      861.341
12/30/2014  03:15:00     -154.114      266.593      -41.789      101.344      152.756       57.423    10270.629    23334.291     3297.399        6.673        1.845      307.934       53.682        0.030      329.726       -3.359      861.359
12/30/2014  03:16:00     -139.410      336.919      -46.275       99.155      103.854       56.471     9831.685    10785.664     3188.931        7.944        1.190      364.623       52.325        0.021      329.683       -3.430      861.378
12/30/2014  03:17:00     -118.147      308.048      -39.081       87.485      104.253       56.519     7653.617    10868.587     3194.422        6.604        1.086      329.927       54.150        0.027      329.700       -3.402      861.407
12/30/2014  03:18:00     -205.224      249.709      -47.602      113.750       88.276       65.188    12939.171     7792.686     4249.537        6.585        1.249      323.220       71.102        0.048      329.696       -3.409      861.419
12/30/2014  03:19:00      -70.171      213.277      -27.623       66.999       96.774       48.713     4488.930     9365.223     2372.926        3.370        0.811      224.524       40.615        0.033      329.781       -3.268      861.415
12/30/2014  03:20:00     -163.741      227.907      -42.026      126.997      134.674       59.029    16128.135    18137.172     3484.444        5.913        1.887      280.629       43.191        0.024      329.732       -3.349      861.423
12/30/2014  03:21:00     -118.050      236.646      -27.516       99.101      101.252       53.098     9821.073    10251.953     2819.412        4.679        1.145      264.456       47.501        0.032      329.736       -3.342      861.435
12/30/2014  03:22:00     -107.573      198.577      -19.959       64.150       72.460       46.092     4115.166     5250.488     2124.430        3.144        0.575      225.843       42.884        0.036      329.734       -3.345      861.445
12/30/2014  03:23:00     -106.821      178.894      -33.930       63.741      121.554       59.712     4062.957    14775.461     3565.515        3.348        1.120      208.360       38.085        0.033      329.777       -3.274      861.452
12/30/2014  03:24:00     -131.780      145.021      -29.683       74.273      108.819       54.648     5516.512    11841.611     2986.426        2.981        1.017      195.952       55.299        0.080      329.732       -3.348      861.453
12/30/2014  03:25:00     -130.032      121.385      -19.085       70.217       69.462       52.325     4930.407     4824.977     2737.946        2.225        0.625      177.884       38.478        0.047      329.759       -3.302      861.471
12/30/2014  03:26:00      -75.538      147.862      -27.153       98.710       66.109       44.726     9743.721     4370.355     2000.438        2.221        0.806      166.040       41.657        0.063      329.793       -3.249      861.478
12/30/2014  03:27:00     -125.762      197.394      -23.787      110.497       88.631       69.496    12209.613     7855.512     4829.737        4.012        1.245      234.052       61.562        0.069      329.799       -3.240      861.491
12/30/2014  03:28:00     -117.081      134.521      -17.179       83.106       97.519       48.003     6906.630     9510.014     2304.257        2.541        0.936      178.337       46.262        0.067      329.775       -3.277      861.492
12/30/2014  03:29:00     -109.472      259.553      -22.656      108.748      130.755       71.857    11826.024    17096.956     5163.372        5.697        1.704      281.695       81.758        0.084      329.745       -3.327      861.492
12/30/2014  03:30:00     -120.723      218.136      -29.986       87.167      103.639       48.393     7598.132    10741.088     2341.863        4.186        1.034      249.314       47.010        0.036      329.765       -3.295      861.496
12/30/2014  03:31:00     -102.847      175.751      -16.807       84.849       84.842       50.000     7199.284     7198.154     2499.969        2.932        0.845      203.632       52.385        0.066      329.780       -3.269      861.516
12/30/2014  03:32:00     -163.349      318.056      -44.272       95.056      114.831       48.818     9035.657    13186.166     2383.229        7.720        1.230      357.551       52.923        0.022      329.733       -3.348      861.526
12/30/2014  03:33:00      -39.219      238.067      -27.946       54.193      116.967       50.153     2936.883    13681.188     2515.307        3.906        0.957      241.276       52.171        0.047      329.758       -3.307      861.526
12/30/2014  03:34:00      -45.889      274.049      -24.075       57.060       91.524       43.139     3255.788     8376.583     1860.978        4.564        0.675      277.864       38.485        0.019      329.792       -3.250      861.529
12/30/2014  03:35:00      -90.886      221.926      -27.794       48.068      108.997       38.189     2310.502    11880.449     1458.424        3.696        0.782      239.816       44.398        0.034      329.786       -3.262      861.519
12/30/2014  03:36:00      -97.590      278.088      -45.988       99.359       96.026       49.717     9872.208     9220.977     2471.742        5.526        1.078      294.715       51.576        0.031      329.749       -3.323      861.536
12/30/2014  03:37:00      -86.114      220.655      -13.715       68.574      119.469       54.693     4702.419    14272.947     2991.346        3.913        1.098      236.863       54.396        0.053      329.752       -3.316      861.541
12/30/2014  03:38:00      -96.795      198.408      -33.945       75.800       75.565       41.966     5745.700     5710.088     1761.128        3.155        0.661      220.760       37.598        0.029      329.700       -3.401      861.547
12/30/2014  03:39:00     -115.136      248.941      -28.987       76.618       89.366       45.105     5870.341     7986.330     2034.482        4.598        0.795      274.277       38.333        0.020      329.682       -3.430      861.558
12/30/2014  03:40:00      -75.124      133.827       -8.667       72.880       95.250       38.387     5311.462     9072.580     1473.576        1.974        0.793      153.471       43.029        0.079      329.773       -3.280      861.577
12/30/2014  03:41:00     -145.718      199.368      -33.628       88.571      106.129       57.911     7844.832    11263.402     3353.732        4.228        1.123      246.944       57.689        0.055      329.660       -3.467      861.598
12/30/2014  03:42:00      -87.160      131.244      -18.211       65.128       66.493       41.271     4241.721     4421.324     1703.267        1.776        0.518      157.549       36.766        0.054      329.773       -3.280      861.609
12/30/2014  03:43:00     -167.807      236.292      -47.645      100.656      132.738       62.224    10131.714    17619.380     3871.798        5.894        1.581      289.816       49.289        0.029      329.674       -3.444      861.623
12/30/2014  03:44:00     -205.017      226.346      -44.412      107.263      115.176       55.783    11505.275    13265.400     3111.797        6.155        1.394      305.392       66.918        0.048      329.651       -3.481      861.634
12/30/2014  03:45:00     -129.408      135.262      -13.594       87.801       89.622       43.684     7709.059     8032.050     1908.249        2.643        0.882      187.196       39.477        0.044      329.716       -3.374      861.621
12/30/2014  03:46:00     -228.441      223.744      -53.185      132.306      120.499       66.621    17504.906    14520.127     4438.377        7.076        1.823      319.761       79.293        0.061      329.558       -3.634      861.628
12/30/2014  03:47:00     -129.859      157.812      -28.635       96.955       92.256       50.647     9400.307     8511.108     2565.157        3.153        1.024      204.372       51.624        0.064      329.605       -3.556      861.623
12/30/2014  03:48:00     -173.803      234.773      -44.641       65.054       83.582       44.481     4232.001     6985.939     1978.578        5.026        0.660      292.107       30.253        0.011      329.570       -3.617      861.605
12/30/2014  03:49:00     -133.438      249.166      -19.380      106.188      138.876       61.877    11275.946    19286.462     3828.739        5.732        1.720      282.647       59.341        0.044      329.603       -3.559      861.606
12/30/2014  03:50:00     -129.265      237.152      -38.369       93.295      107.408       55.548     8703.924    11536.438     3085.586        4.887        1.166      270.094       52.500        0.038      329.596       -3.572      861.620
12/30/2014  03:51:00     -115.029      211.969      -32.004       88.047      117.304       50.117     7752.279    13760.158     2511.713        4.160        1.201      241.169       38.324        0.025      329.584       -3.590      861.627
12/30/2014  03:52:00     -114.154      318.836      -42.488      107.391       90.511       66.165    11532.752     8192.222     4377.847        7.029        1.205      338.655       61.190        0.033      329.509       -3.714      861.638
12/30/2014  03:53:00     -127.972      338.504      -39.508       92.427      121.187       54.999     8542.724    14686.298     3024.885        7.938        1.313      361.887       47.127        0.017      329.521       -3.695      861.636
12/30/2014  03:54:00     -104.704      236.058      -25.027       67.314      113.452       51.487     4531.213    12871.257     2650.861        4.368        1.003      258.237       55.721        0.047      329.630       -3.515      861.647
12/30/2014  03:55:00     -103.590      180.663      -25.444       82.350       72.635       53.498     6781.447     5275.774     2862.025        2.947        0.746      208.255       54.666        0.069      329.584       -3.591      861.658
12/30/2014  03:56:00      -77.757      190.758      -14.502       59.000       84.869       45.622     3480.977     7202.758     2081.377        2.770        0.638      205.997       52.319        0.065      329.664       -3.460      861.671
12/30/2014  03:57:00      -78.540      146.423      -25.040       64.836       69.923       35.455     4203.658     4889.187     1257.066        1.929        0.517      166.157       35.852        0.047      329.647       -3.487      861.676
12/30/2014  03:58:00      -89.072       98.510      -11.775       85.126       77.007       60.183     7246.466     5930.047     3621.940        1.728        0.840      132.808       48.391        0.133      329.671       -3.446      861.679
12/30/2014  03:59:00     -136.003      214.158      -39.540      100.624      118.040       60.212    10125.168    13933.488     3625.518        4.680        1.384      253.694       46.641        0.034      329.600       -3.564      861.697
12/30/2014  04:00:00     -115.376      255.770      -40.610       77.247      116.331       50.101     5967.073    13532.785     2510.074        5.119        1.100      280.589       48.933        0.030      329.555       -3.639      861.718
12/30/2014  04:01:00     -117.227      368.526      -40.276       82.400      131.210       50.268     6789.824    17215.956     2526.860        8.885        1.327      386.722       57.150        0.022      329.540       -3.663      861.710
12/30/2014  04:02:00     -115.969      131.597       -6.082       83.125      122.996       47.608     6909.809    15128.007     2266.500        2.755        1.215      175.404       46.275        0.070      329.639       -3.502      861.700
12/30/2014  04:03:00     -108.232      175.562      -21.533       68.899       90.627       50.116     4747.128     8213.202     2511.640        2.923        0.774      206.244       48.076        0.054      329.577       -3.603      861.719
12/30/2014  04:04:00      -99.352       97.902      -19.722       53.579       65.144       38.257     2870.720     4243.786     1463.583        1.421        0.429      139.483       35.986        0.067      329.540       -3.660      861.726
12/30/2014  04:05:00      -32.498      161.839      -21.149       48.141       78.407       39.096     2317.543     6147.707     1528.517        1.884        0.500      165.070       47.491        0.083      329.549       -3.647      861.733
12/30/2014  04:06:00      -64.068      146.043       -2.047       52.195       64.393       44.160     2724.357     4146.506     1950.078        1.713        0.441      159.478       38.077        0.057      329.603       -3.557      861.733
12/30/2014  04:07:00      -33.164      147.566      -17.017       52.252       73.026       33.976     2730.259     5332.819     1154.356        1.619        0.461      151.247       33.713        0.050      329.633       -3.507      861.733
12/30/2014  04:08:00      -87.504      213.836      -14.475      107.273       97.798       53.469    11507.521     9564.516     2858.927        3.876        1.197      231.047       55.712        0.058      329.587       -3.586      861.743
12/30/2014  04:09:00     -112.197      148.699      -25.250       66.363       83.311       38.991     4404.036     6940.749     1520.326        2.410        0.643      186.278       44.316        0.057      329.566       -3.619      861.754
12/30/2014  04:10:00     -133.073      228.739      -36.402       75.140      118.711       51.685     5646.015    14092.388     2671.310        4.688        1.120      264.632       54.534        0.042      329.526       -3.687      861.768
12/30/2014  04:11:00     -132.838      215.188      -31.281       71.785      127.427       47.674     5153.140    16237.570     2272.802        4.429        1.183      252.887       53.743        0.045      329.508       -3.715      861.778
12/30/2014  04:12:00      -67.139      268.802      -28.531       88.154      183.544       59.049     7771.103    33688.453     3486.774        6.125        2.247      277.059       83.445        0.091      329.545       -3.655      861.777
12/30/2014  04:13:00      -48.605      130.274       -6.196       65.901       75.552       43.738     4342.884     5708.151     1913.012        1.567        0.598      139.046       45.263        0.106      329.684       -3.425      861.796
12/30/2014  04:14:00      -75.370      203.038      -24.245       90.582       84.171       45.671     8205.043     7084.732     2085.862        3.243        0.869      216.576       48.672        0.051      329.519       -3.698      861.799
12/30/2014  04:15:00      -59.290      145.792        0.804       81.445       89.939       42.841     6633.247     8088.948     1835.319        2.066        0.828      157.387       41.114        0.068      329.638       -3.502      861.788
12/30/2014  04:16:00      -73.846      279.246      -26.168       80.957       89.318       52.479     6554.058     7977.698     2754.097        5.070        0.864      288.846       46.046        0.025      329.561       -3.630      861.801
12/30/2014  04:17:00     -135.472      308.146      -30.707      112.447      105.259       53.613    12644.335    11079.414     2874.313        7.042        1.330      336.610       51.001        0.023      329.495       -3.738      861.800
12/30/2014  04:18:00     -122.082      220.931      -31.880      118.639      140.466       60.233    14075.148    19730.577     3628.003        5.107        1.872      252.417       54.684        0.047      329.498       -3.731      861.821
12/30/2014  04:19:00      -98.209      248.171      -26.546       80.459      118.931       55.654     6473.680    14144.695     3097.398        4.782        1.186      266.897       61.334        0.053      329.524       -3.690      861.834
12/30/2014  04:20:00      -95.418      229.820      -18.498       93.018      115.096       53.442     8652.404    13247.020     2856.029        4.350        1.238      248.841       41.740        0.028      329.588       -3.585      861.844
12/30/2014  04:21:00     -177.300      341.227      -59.793       97.465      137.491       56.895     9499.403    18903.903     3237.079        9.154        1.582      384.540       54.164        0.020      329.470       -3.777      861.860
12/30/2014  04:22:00     -150.133      301.960      -31.375       83.735      117.595       54.848     7011.594    13828.695     3008.264        6.927        1.192      337.223       63.965        0.036      329.478       -3.763      861.865
12/30/2014  04:23:00     -101.807      302.999      -39.797       98.035       64.718       49.832     9610.822     4188.408     2483.201        6.002        0.814      319.645       41.497        0.017      329.492       -3.743      861.870
12/30/2014  04:24:00      -42.038      322.908      -46.581       70.620      111.507       42.755     4987.210    12433.733     1827.967        6.372        0.962      325.633       38.181        0.014      329.461       -3.793      861.869
12/30/2014  04:25:00      -52.324      377.073      -48.118       54.883       74.549       33.237     3012.164     5557.520     1104.691        7.845        0.484      380.686       18.313        0.002      329.453       -3.806      861.873
12/30/2014  04:26:00      -67.764      315.218      -34.220       52.379       94.854       33.390     2743.551     8997.282     1114.865        5.899        0.643      322.419       37.985        0.014      329.495       -3.736      861.886
12/30/2014  04:27:00      -30.590      309.437      -31.058       39.196       78.543       33.600     1536.324     6168.990     1128.933        5.324        0.442      310.945       34.494        0.012      329.472       -3.776      861.878
12/30/2014  04:28:00      -48.117      219.462      -15.235       43.260      137.182       39.467     1871.411    18818.795     1557.674        3.648        1.112      224.675       56.006        0.062      329.571       -3.611      861.886
12/30/2014  04:29:00     -104.540      154.760      -14.391       71.918       96.144       42.351     5172.250     9243.620     1793.627        2.564        0.810      186.760       48.388        0.067      329.590       -3.580      861.889
12/30/2014  04:30:00     -160.545      298.172      -47.541       88.622       77.553       49.303     7853.841     6014.522     2430.820        6.662        0.815      338.646       51.234        0.023      329.474       -3.772      861.894
12/30/2014  04:31:00     -104.261      251.875      -39.443       66.867      106.212       43.209     4471.149    11280.892     1867.018        4.674        0.881      272.601       37.269        0.019      329.543       -3.658      861.899
12/30/2014  04:32:00     -101.991      344.906      -37.346      102.650      133.668       61.382    10537.092    17867.038     3767.722        8.146        1.609      359.670       53.545        0.022      329.492       -3.742      861.922
12/30/2014  04:33:00     -114.008      300.802      -27.350       65.795       95.146       46.388     4328.976     9052.698     2151.847        5.988        0.777      321.682       43.532        0.018      329.500       -3.730      861.935
12/30/2014  04:34:00     -110.704      306.500      -30.034       84.250       99.197       55.039     7098.031     9839.948     3029.346        6.353        0.998      325.880       52.923        0.026      329.507       -3.717      861.949
12/30/2014  04:35:00      -26.869      348.120      -42.221       35.474       65.018       28.783     1258.394     4227.382      828.442        6.500        0.316      349.155       15.459        0.002      329.440       -3.829      861.953
12/30/2014  04:36:00      -39.763      223.485      -16.502       48.597       82.386       37.361     2361.663     6787.477     1395.825        3.117        0.527      226.995       31.865        0.020      329.561       -3.628      861.945
12/30/2014  04:37:00      -51.972      164.729       -7.922       62.132       67.697       46.411     3860.415     4582.932     2154.006        2.025        0.530      172.733       40.754        0.056      329.600       -3.563      861.957
12/30/2014  04:38:00      -45.213      142.349      -19.907       38.849       93.109       33.855     1509.207     8669.239     1146.184        1.701        0.566      149.357       26.538        0.032      329.664       -3.460      861.959
12/30/2014  04:39:00      -54.767      224.588      -25.039       57.056      128.781       39.129     3255.416    16584.657     1531.103        3.771        1.069      231.169       53.548        0.054      329.637       -3.507      861.963
12/30/2014  04:40:00     -112.577      221.404      -33.326       43.398      100.528       36.226     1883.408    10105.946     1312.316        3.805        0.665      248.381       36.751        0.022      329.458       -3.798      861.971
12/30/2014  04:41:00      -46.939      204.534      -27.867       53.387       96.250       38.684     2850.133     9264.017     1496.424        2.921        0.681      209.851       36.398        0.030      329.525       -3.687      861.970
12/30/2014  04:42:00     -124.070      235.507      -26.453       78.561       83.693       53.573     6171.895     7004.561     2870.112        4.380        0.802      266.190       47.315        0.032      329.494       -3.739      861.968
12/30/2014  04:43:00     -134.762      248.400      -31.423       77.181       75.305       53.143     5956.859     5670.807     2824.191        4.765        0.723      282.601       47.233        0.028      329.502       -3.727      861.980
12/30/2014  04:44:00     -125.213      153.199      -20.611       83.755       64.090       42.644     7014.979     4107.589     1818.528        2.625        0.647      197.859       30.460        0.024      329.577       -3.601      861.973
12/30/2014  04:45:00     -137.040      277.911      -26.940       72.923      102.663       54.947     5317.798    10539.623     3019.181        5.780        0.944      309.862       61.994        0.040      329.524       -3.690      861.996
12/30/2014  04:46:00      -52.931      214.356      -25.511       75.676       92.688       39.138     5726.886     8591.088     1531.792        3.262        0.792      220.794       35.365        0.026      329.511       -3.711      862.011
12/30/2014  04:47:00      -88.953      266.014      -39.982       56.420      112.307       40.028     3183.221    12612.970     1602.266        4.883        0.870      280.493       45.900        0.027      329.522       -3.693      862.020
12/30/2014  04:48:00      -15.423      178.777      -16.670       64.760       92.937       36.059     4193.874     8637.378     1300.220        2.330        0.707      179.441       39.569        0.049      329.573       -3.609      862.042
12/30/2014  04:49:00      -56.637      169.441      -11.178       58.687      104.850       41.288     3444.109    10993.531     1704.661        2.409        0.807      178.656       38.222        0.046      329.655       -3.475      862.054
12/30/2014  04:50:00      -84.790      111.930      -13.509       73.697       95.228       40.248     5431.223     9068.407     1619.887        1.801        0.806      140.420       32.399        0.053      329.622       -3.525      862.069
12/30/2014  04:51:00     -170.406      204.490      -42.849      107.480      126.675       55.550    11551.901    16046.588     3085.846        5.168        1.534      266.185       62.003        0.054      329.549       -3.647      862.082
12/30/2014  04:52:00      -82.779      225.469      -29.691       85.502       72.058       49.705     7310.655     5192.332     2470.542        3.677        0.749      240.185       43.223        0.032      329.572       -3.610      862.104
12/30/2014  04:53:00      -86.852      250.962      -27.992       54.388      130.009       40.649     2958.096    16902.437     1652.362        4.641        1.076      265.566       32.339        0.015      329.604       -3.557      862.106
12/30/2014  04:54:00     -117.317      352.253      -32.994      106.025      126.379       59.419    11241.310    15971.664     3530.667        8.483        1.537      371.275       54.176        0.021      329.521       -3.696      862.107
12/30/2014  04:55:00      -85.322      306.068      -33.586       60.305       98.467       45.075     3636.660     9695.775     2031.766        5.872        0.768      317.738       41.806        0.017      329.543       -3.660      862.113
12/30/2014  04:56:00     -139.151      233.743      -22.410       95.921      134.720       55.261     9200.788    18149.467     3053.827        5.245        1.520      272.027       63.450        0.054      329.535       -3.671      862.113
12/30/2014  04:57:00     -117.921      185.674      -23.187       93.072      142.483       55.867     8662.442    20301.314     3121.067        4.049        1.604      219.955       39.988        0.033      329.576       -3.605      862.121
12/30/2014  04:58:00      -99.351      124.687      -16.336       57.794       88.615       50.280     3340.092     7852.579     2528.116        1.970        0.686      159.428       42.533        0.071      329.617       -3.536      862.131
12/30/2014  04:59:00      -72.526      255.428      -46.649       71.884      139.333       41.448     5167.312    19413.561     1717.965        4.948        1.315      265.525       34.920        0.017      329.580       -3.597      862.137
12/30/2014  05:00:00     -124.793      169.952      -32.536       73.392       69.908       41.573     5386.396     4887.069     1728.336        2.876        0.600      210.848       47.087        0.050      329.575       -3.604      862.142
12/30/2014  05:01:00     -125.934      302.523      -48.906       73.206      153.202       54.897     5359.165    23470.747     3013.630        7.080        1.592      327.688       58.381        0.032      329.510       -3.713      862.151
12/30/2014  05:02:00      -56.574      290.995      -43.040       90.209      113.817       56.944     8137.656    12954.399     3242.628        5.703        1.217      296.444       58.876        0.039      329.540       -3.664      862.145
12/30/2014  05:03:00     -107.991      139.562      -13.884       74.035      121.307       39.477     5481.212    14715.457     1558.410        2.654        1.088      176.464       47.005        0.071      329.617       -3.537      862.160
12/30/2014  05:04:00      -72.068      209.548      -22.293       49.395      106.177       41.069     2439.830    11273.568     1686.701        3.250        0.770      221.594       48.938        0.049      329.668       -3.452      862.174
12/30/2014  05:05:00     -146.259      294.463      -42.688      103.895      133.319       60.519    10794.071    17773.989     3662.573        7.107        1.612      328.786       50.557        0.024      329.531       -3.679      862.180
12/30/2014  05:06:00      -53.479      355.053      -37.129       57.138       90.018       41.626     3264.790     8103.284     1732.721        7.170        0.655      359.058       45.369        0.016      329.482       -3.759      862.195
12/30/2014  05:07:00      -84.814      245.861      -21.744       75.551      112.968       54.579     5707.888    12761.754     2978.872        4.478        1.072      260.079       50.829        0.038      329.608       -3.552      862.190
12/30/2014  05:08:00     -165.629      336.370      -52.949       84.389      150.157       62.638     7121.567    22547.269     3923.574        8.848        1.680      374.937       69.941        0.035      329.560       -3.630      862.208
12/30/2014  05:09:00     -172.404      306.112      -55.486      103.740       98.895       64.268    10762.045     9780.149     4130.406        7.558        1.234      351.323       66.766        0.036      329.618       -3.535      862.211
12/30/2014  05:10:00     -104.928      347.084      -48.813       77.699       87.272       45.473     6037.162     7616.318     2067.836        7.479        0.786      362.598       44.633        0.015      329.597       -3.569      862.228
12/30/2014  05:11:00     -191.406      271.285      -39.712      104.566      158.345       60.802    10934.140    25073.065     3696.868        7.575        1.985      332.012       71.626        0.047      329.610       -3.548      862.239
12/30/2014  05:12:00     -129.201      249.134      -47.246      126.328      108.185       57.632    15958.760    11703.972     3321.404        5.598        1.549      280.643       60.330        0.046      329.691       -3.416      862.264
12/30/2014  05:13:00      -73.047      394.585      -48.595       73.917       98.662       49.319     5463.784     9734.249     2432.333        9.051        0.882      401.290       40.441        0.010      329.661       -3.468      862.270
12/30/2014  05:14:00      -79.026      303.781      -38.678       61.599      128.646       48.448     3794.464    16549.684     2347.240        6.135        1.135      313.892       59.002        0.035      329.662       -3.463      862.274
12/30/2014  05:15:00      -58.510      271.426      -31.553       81.616      139.237       55.758     6661.155    19386.823     3108.964        5.362        1.458      277.661       55.697        0.040      329.790       -3.254      862.289
12/30/2014  05:16:00      -61.905      419.635      -59.412       63.352       83.235       42.720     4013.511     6928.138     1825.003        9.811        0.638      424.176       27.093        0.004      329.626       -3.522      862.300
12/30/2014  05:17:00      -79.354      314.863      -41.129       71.518      125.257       48.534     5114.889    15689.439     2355.514        6.514        1.158      324.708       53.683        0.027      329.710       -3.385      862.322
12/30/2014  05:18:00      -59.052      316.484      -33.513       50.412      149.300       44.411     2541.379    22290.587     1972.355        6.578        1.340      321.946       59.434        0.034      329.687       -3.422      862.334
12/30/2014  05:19:00     -100.600      295.480      -44.265       72.108      145.350       48.665     5199.508    21126.522     2368.287        6.404        1.435      312.136       47.586        0.023      329.693       -3.413      862.364
12/30/2014  05:20:00     -104.288      433.871      -51.319       97.582      106.961       57.673     9522.301    11440.718     3326.186       11.302        1.214      446.228       59.332        0.018      329.635       -3.506      862.382
12/30/2014  05:21:00      -42.910      245.659      -20.063       95.328       81.987       53.312     9087.502     6721.823     2842.173        4.062        0.933      249.378       49.827        0.040      329.715       -3.377      862.413
12/30/2014  05:22:00      -18.969      266.753      -33.229       61.968      148.326       52.386     3839.980    22000.512     2744.325        5.060        1.429      267.427       68.540        0.066      329.695       -3.410      862.428
12/30/2014  05:23:00       -3.890      173.080      -19.763       52.524       97.756       43.023     2758.762     9556.249     1851.001        2.226        0.708      173.123       48.712        0.079      329.706       -3.390      862.462
12/30/2014  05:24:00       26.449      342.816      -47.722       66.551       96.257       41.418     4428.972     9265.467     1715.432        6.795        0.770      343.835       43.181        0.016      329.732       -3.349      862.492
12/30/2014  05:25:00        6.922      332.401      -39.753       94.121      117.455       53.637     8858.738    13795.592     2876.895        6.882        1.277      332.473       61.876        0.035      329.814       -3.214      862.521
12/30/2014  05:26:00       83.126      231.544       -3.693      120.335      138.975       96.223    14480.404    19314.184     9258.903        5.179        2.153      246.013       96.051        0.152      329.822       -3.201      862.550
12/30/2014  05:27:00      108.998      254.804      -23.735      140.488      118.208       77.544    19736.925    13973.215     6013.135        5.854        1.986      277.138       74.720        0.073      329.845       -3.163      862.573
12/30/2014  05:28:00       40.089      407.720      -62.074       82.449      127.982       59.777     6797.855    16379.269     3573.322        9.922        1.338      409.686       55.608        0.018      329.863       -3.136      862.610
12/30/2014  05:29:00       61.769      489.968      -79.121       77.934      136.573       60.189     6073.702    18652.101     3622.700       13.924        1.417      493.846       55.270        0.013      329.845       -3.163      862.626
12/30/2014  05:30:00       41.386      257.290      -16.981       86.806      129.528       71.033     7535.232    16777.485     5045.746        4.877        1.468      260.598       73.555        0.080      329.862       -3.135      862.624
12/30/2014  05:31:00       90.560      224.755      -14.325       87.212      175.675       66.874     7605.890    30861.676     4472.141        5.092        2.147      242.314       81.510        0.113      329.847       -3.158      862.656
12/30/2014  05:32:00       68.730      140.070       10.819       87.837      111.701       71.315     7715.254    12477.166     5085.837        2.486        1.264      156.024       66.764        0.183      329.838       -3.174      862.663
12/30/2014  05:33:00       94.380      179.115      -16.667       95.598       96.343       69.694     9139.057     9281.893     4857.219        3.227        1.164      202.459       57.724        0.081      329.819       -3.206      862.672
12/30/2014  05:34:00       47.000      259.529      -31.780       83.974      176.251       63.358     7051.693    31064.462     4014.279        5.634        2.107      263.751       80.195        0.092      329.827       -3.194      862.699
12/30/2014  05:35:00       44.851      351.950      -41.136       80.092      198.165       79.649     6414.700    39269.372     6344.010        8.979        2.601      354.796      100.322        0.080      329.813       -3.217      862.716
12/30/2014  05:36:00       56.718      274.444      -28.120      111.641      177.184       86.462    12463.769    31394.018     7475.603        6.532        2.567      280.243       88.981        0.101      329.810       -3.220      862.691
12/30/2014  05:37:00      116.208      167.168        0.759      152.825       84.147       76.853    23355.504     7080.701     5906.389        3.889        1.817      203.592       83.125        0.167      329.809       -3.223      862.686
12/30/2014  05:38:00       75.390      114.006        4.810       72.965       97.641       55.730     5323.938     9533.798     3105.882        1.833        0.898      136.679       59.150        0.187      329.813       -3.214      862.696
12/30/2014  05:39:00       18.144      132.309        7.367       93.901      115.195       61.676     8817.484    13269.872     3803.922        2.189        1.295      133.548       66.515        0.248      329.849       -3.157      862.704
12/30/2014  05:40:00      125.223      242.451        1.856      122.655      136.721       82.529    15044.250    18692.640     6810.976        5.750        2.027      272.880       88.831        0.106      329.794       -3.248      862.713
12/30/2014  05:41:00       46.284      278.077      -22.617       80.978      206.385       76.436     6557.434    42594.641     5842.411        6.748        2.750      281.902       94.632        0.113      329.813       -3.216      862.732
12/30/2014  05:42:00       78.443      216.532      -13.210       88.702      105.514       68.533     7867.959    11133.193     4696.753        3.845        1.185      230.303       61.120        0.070      329.793       -3.249      862.739
12/30/2014  05:43:00       46.089      205.998       -3.925       72.058      106.132       59.365     5192.343    11264.093     3524.174        3.227        0.999      211.090       60.347        0.082      329.803       -3.233      862.752
12/30/2014  05:44:00       78.391      375.843      -42.657       74.157      147.016       75.157     5499.205    21613.646     5648.601        9.099        1.638      383.931       83.578        0.047      329.793       -3.248      862.758
12/30/2014  05:45:00       66.428      103.452       17.961       89.077       77.478       66.387     7934.635     6002.822     4407.199        1.689        0.917      122.943       58.044        0.223      329.803       -3.231      862.766
12/30/2014  05:46:00       42.452      133.615       -3.261       52.022       72.463       48.841     2706.303     5250.947     2385.448        1.500        0.517      140.196       44.140        0.099      329.810       -3.218      862.775
12/30/2014  05:47:00       43.826      127.229       -8.955       51.176       79.571       50.967     2618.960     6331.547     2597.656        1.487        0.577      134.565       44.009        0.107      329.812       -3.215      862.778
12/30/2014  05:48:00       20.953      150.007       -0.818       68.026       84.235       45.759     4627.587     7095.552     2093.879        1.838        0.691      151.464       44.280        0.085      329.851       -3.151      862.794
12/30/2014  05:49:00       22.747      263.928      -20.579       79.914      146.624       58.121     6386.309    21498.687     3378.041        5.092        1.563      264.907       64.160        0.059      329.812       -3.217      862.800
12/30/2014  05:50:00       22.579      335.200      -44.449       76.293      151.974       63.302     5820.673    23096.032     4007.145        7.388        1.646      335.959       79.822        0.056      329.817       -3.210      862.809
12/30/2014  05:51:00        3.655      183.210      -20.472       75.202      148.602       60.345     5655.362    22082.556     3641.483        3.268        1.569      183.247       68.063        0.138      329.844       -3.164      862.813
12/30/2014  05:52:00       46.371      329.605      -26.944       87.836      170.059       86.439     7715.221    28920.144     7471.747        7.780        2.205      332.851      101.371        0.093      329.810       -3.221      862.816
12/30/2014  05:53:00       76.484      210.716      -16.143       70.135      132.995       82.101     4918.893    17687.596     6740.629        3.992        1.467      224.168       83.296        0.138      329.822       -3.202      862.837
12/30/2014  05:54:00       46.479      408.583      -44.143      102.610      232.479       92.912    10528.858    54046.290     8632.586       12.211        3.660      411.218      117.098        0.081      329.780       -3.268      862.856
12/30/2014  05:55:00       48.947      198.926      -25.051      102.092      160.909       62.707    10422.802    25891.706     3932.145        4.141        2.012      204.860       75.355        0.135      329.764       -3.293      862.875
12/30/2014  05:56:00       54.742      208.619      -15.919       77.353      158.045       82.571     5983.480    24978.172     6817.903        4.227        1.889      215.682       83.018        0.148      329.745       -3.326      862.896
12/30/2014  05:57:00       -8.129      217.541      -26.161       67.065       92.062       50.659     4497.666     8475.391     2566.372        3.180        0.777      217.693       51.476        0.056      329.815       -3.213      862.932
12/30/2014  05:58:00       75.193      170.720       11.904      104.277      153.978       97.805    10873.776    23709.274     9565.767        3.954        2.207      186.546      100.791        0.292      329.758       -3.305      862.948
12/30/2014  05:59:00       35.703      212.179      -13.979       77.238      110.392       64.306     5965.752    12186.428     4135.213        3.438        1.114      215.162       63.076        0.086      329.727       -3.357      862.970
12/30/2014  06:00:00       74.024      198.687       -4.615      115.506      134.031       86.052    13341.649    17964.370     7404.975        4.184        1.936      212.028       84.683        0.160      329.697       -3.407      862.993
12/30/2014  06:01:00       53.824      194.263        1.723      102.313      121.927       86.188    10468.006    14866.221     7428.368        3.669        1.638      201.582       84.310        0.175      329.679       -3.436      863.015
12/30/2014  06:02:00      158.717      243.152       16.112      171.028      178.272      124.421    29250.705    31781.036    15480.509        8.053        3.826      290.369      116.490        0.161      329.624       -3.525      863.024
12/30/2014  06:03:00      133.049      357.913      -25.062      141.086      221.497      112.173    19905.142    49060.939    12582.681       11.397        4.077      381.843      111.221        0.085      329.575       -3.605      863.045
12/30/2014  06:04:00       36.726      281.523      -31.004       99.579      144.972       74.674     9915.928    21016.835     5576.230        5.903        1.825      283.908       84.276        0.088      329.595       -3.573      863.053
12/30/2014  06:05:00       36.049      264.296      -21.502      101.703      154.053       83.513    10343.558    23732.467     6974.465        5.632        2.053      266.743       81.003        0.092      329.573       -3.607      863.093
12/30/2014  06:06:00      -11.799      312.928      -29.236      121.373      138.776       77.308    14731.416    19258.855     5976.481        6.943        1.998      313.151       77.803        0.062      329.582       -3.595      863.114
12/30/2014  06:07:00       61.689      267.012      -14.823      107.826      168.253       84.361    11626.474    28309.112     7116.774        6.118        2.353      274.046       88.276        0.104      329.544       -3.654      863.127
12/30/2014  06:08:00       63.093      492.643      -56.612      120.018      205.477      103.345    14404.407    42220.773    10680.096       15.858        3.365      496.667      118.039        0.056      329.493       -3.740      863.140
12/30/2014  06:09:00       72.119      397.475      -43.695       95.001      185.010       91.885     9025.193    34228.587     8442.795       10.839        2.585      403.965      111.340        0.076      329.484       -3.754      863.155
12/30/2014  06:10:00       39.347      152.501       -0.498       85.960      111.656       59.728     7389.159    12467.038     3567.413        2.411        1.171      157.495       57.699        0.134      329.497       -3.732      863.179
12/30/2014  06:11:00      114.136      172.931       -3.698      107.116      133.945       68.793    11473.738    17941.191     4732.465        3.854        1.707      207.201       67.795        0.107      329.488       -3.747      863.196
12/30/2014  06:12:00      110.505      357.317      -18.878      128.890      213.442      113.826    16612.646    45557.341    12956.312       10.767        3.756      374.014      125.377        0.112      329.459       -3.796      863.186
12/30/2014  06:13:00       45.802      443.224      -40.813      121.356      185.699       99.444    14727.230    34483.999     9889.189       12.964        2.955      445.584      107.744        0.058      329.455       -3.803      863.192
12/30/2014  06:14:00       59.330      204.205      -15.151       76.490      126.396       61.084     5850.668    15975.990     3731.303        3.550        1.278      212.649       70.305        0.109      329.461       -3.792      863.211
12/30/2014  06:15:00       86.608      186.981       -3.562      150.523      133.349       73.748    22657.222    17782.081     5438.707        4.417        2.294      206.065       70.560        0.117      329.461       -3.794      863.232
12/30/2014  06:16:00       96.298      219.666       16.035      120.002      183.521      109.837    14400.392    33679.913    12064.165        5.895        3.007      239.847      101.246        0.178      329.442       -3.822      863.223
12/30/2014  06:17:00      177.207      291.979       -5.272      171.579      177.441      124.915    29439.478    31485.251    15603.854        9.659        3.826      341.547      109.472        0.103      329.421       -3.856      863.218
12/30/2014  06:18:00      166.835      171.074       21.655      106.257      102.101       90.898    11290.520    10424.557     8262.357        4.377        1.499      238.956       51.831        0.047      329.417       -3.864      863.228
12/30/2014  06:19:00      121.039      244.953      -10.935      118.003      141.283       88.570    13924.708    19960.864     7844.653        5.824        2.087      273.226       85.257        0.097      329.405       -3.883      863.228
12/30/2014  06:20:00      124.870      269.408      -23.854      170.319      176.320      116.304    29008.722    31088.794    13526.626        8.117        3.681      296.940       96.639        0.106      329.392       -3.904      863.230
12/30/2014  06:21:00      192.905      238.962        6.368      194.978      136.645      106.625    38016.538    18671.978    11368.929        8.119        3.403      307.108       79.432        0.067      329.375       -3.932      863.255
12/30/2014  06:22:00       97.674      248.722       -8.088      148.013      145.353       90.834    21907.721    21127.356     8250.855        6.137        2.564      267.213       60.084        0.051      329.378       -3.928      863.259
12/30/2014  06:23:00      125.483      342.118      -15.445      151.811      201.116      111.671    23046.701    40447.810    12470.315       10.448        3.798      364.404      108.703        0.089      329.373       -3.936      863.284
12/30/2014  06:24:00      177.932      330.035      -22.745      212.800      184.296       94.080    45283.775    33965.111     8851.030       11.458        4.405      374.944       88.579        0.056      329.361       -3.956      863.275
12/30/2014  06:25:00      101.420      269.797       -7.849      137.247      173.204      101.952    18836.823    29999.785    10394.165        7.117        2.962      288.230      106.915        0.138      329.359       -3.959      863.278
12/30/2014  06:26:00       81.263      415.315      -38.372      117.539      228.309      105.916    13815.367    52124.914    11218.146       12.885        3.858      423.191      121.950        0.083      329.349       -3.977      863.313
12/30/2014  06:27:00      129.439      464.466      -48.705      177.546      258.142      138.594    31522.526    66637.165    19208.205       17.609        5.868      482.165      151.817        0.099      329.351       -3.972      863.330
12/30/2014  06:28:00       94.950      267.972      -19.947      147.342      151.056      113.024    21709.770    22818.032    12774.338        6.925        2.865      284.297       93.318        0.108      329.355       -3.966      863.378
12/30/2014  06:29:00       81.762      192.748      -18.158      129.347      112.216       81.643    16730.753    12592.366     6665.581        4.007        1.799      209.373       63.001        0.091      329.351       -3.972      863.401
12/30/2014  06:30:00       77.850      297.743      -43.907      101.843      205.069       72.355    10371.992    42053.389     5235.278        7.714        2.883      307.753       93.014        0.091      329.345       -3.981      863.436
12/30/2014  06:31:00       88.257      355.435      -13.627      143.448      229.763      117.683    20577.459    52790.931    13849.351       11.075        4.361      366.229      126.061        0.118      329.325       -4.014      863.459
12/30/2014  06:32:00       99.220      417.750      -31.047      178.262      266.673      132.883    31777.444    71114.634    17657.871       15.291        6.027      429.371      143.330        0.111      329.315       -4.029      863.464
12/30/2014  06:33:00       96.731      304.979      -16.189      116.841      175.330       91.689    13651.813    30740.766     8406.913        7.770        2.640      319.952       94.362        0.087      329.324       -4.016      863.510
12/30/2014  06:34:00       70.405      307.168      -22.589      114.295      165.509       94.398    13063.432    27393.135     8910.936        7.458        2.468      315.133       95.815        0.092      329.331       -4.004      863.531
12/30/2014  06:35:00       65.083      251.801      -10.455      103.693      153.066       85.001    10752.279    23429.327     7225.092        5.457        2.070      260.076       85.454        0.108      329.330       -4.005      863.569
12/30/2014  06:36:00       62.705      289.776      -18.571      132.029      234.838       96.127    17431.685    55148.662     9240.388        8.502        4.091      296.483      109.360        0.136      329.332       -4.002      863.607
12/30/2014  06:37:00      130.919      293.148      -21.231      155.725      202.658      100.123    24250.374    41070.399    10024.577        8.942        3.767      321.054      109.137        0.116      329.319       -4.025      863.632
12/30/2014  06:38:00      110.595      369.655      -29.433      160.810      248.404      120.664    25859.956    61704.715    14559.706       12.591        5.106      385.844      137.816        0.128      329.292       -4.067      863.662
12/30/2014  06:39:00       73.115      293.278       10.863      158.004      216.666      134.910    24965.158    46944.315    18200.815        9.078        4.506      302.255      127.681        0.178      329.307       -4.044      863.687
12/30/2014  06:40:00        5.002      468.747      -38.863      135.667      259.175      104.508    18405.500    67171.696    10921.858       15.886        4.825      468.774      125.899        0.072      329.280       -4.087      863.719
12/30/2014  06:41:00       62.406      405.838      -34.004      132.130      211.592      114.615    17458.253    44771.187    13136.699       12.255        3.768      410.608      119.591        0.085      329.266       -4.111      863.741
12/30/2014  06:42:00       78.607      446.443      -39.818      115.300      251.898      119.867    13293.994    63452.538    14368.062       14.908        4.556      453.310      142.237        0.098      329.238       -4.156      863.754
12/30/2014  06:43:00       77.815      195.404        7.118      124.067      134.776       92.855    15392.592    18164.495     8621.974        4.323        2.109      210.328       90.345        0.185      329.228       -4.172      863.776
12/30/2014  06:44:00       93.926      290.740      -23.096      149.793      228.059      100.792    22437.831    52011.068    10158.941        8.923        4.230      305.535      100.660        0.109      329.214       -4.195      863.800
12/30/2014  06:45:00      145.010      231.737        1.182      164.671      135.661       87.174    27116.573    18403.831     7599.350        6.391        2.656      273.368       81.453        0.089      329.191       -4.233      863.834
12/30/2014  06:46:00      124.329      209.533       -2.776      125.088      140.703       85.210    15646.994    19797.323     7260.789        5.103        2.135      243.643       84.589        0.121      329.185       -4.242      863.866
12/30/2014  06:47:00       47.564      252.241       -7.849      107.513      188.650       77.096    11558.958    35588.953     5943.753        5.951        2.655      256.686       85.196        0.110      329.183       -4.246      863.912
12/30/2014  06:48:00       70.179      278.230      -39.414       85.502      140.570       70.714     7310.653    19759.950     5000.511        5.797        1.604      286.944       74.509        0.067      329.175       -4.260      863.963
12/30/2014  06:49:00       92.302      385.253      -33.219      135.560      237.297      114.032    18376.606    56310.100    13003.337       12.285        4.385      396.156      124.441        0.099      329.160       -4.286      863.990
12/30/2014  06:50:00      144.937      221.205        6.902      103.184      131.380      102.611    10646.878    17260.578    10528.986        5.420        1.922      264.459       88.611        0.112      329.159       -4.287      864.017
12/30/2014  06:51:00      103.023      201.931       11.203      142.487      135.963       88.523    20302.655    18485.814     7836.240        4.906        2.331      226.694       74.301        0.107      329.162       -4.281      864.020
12/30/2014  06:52:00      105.737      202.810        1.288      134.039      154.954       75.746    17966.398    24010.789     5737.469        5.000        2.386      228.719       87.604        0.147      329.171       -4.265      864.054
12/30/2014  06:53:00      279.703      156.266       67.744      172.695      126.568       99.574    29823.590    16019.497     9914.895        8.149        2.788      320.395       37.607        0.014      329.160       -4.284      864.043
12/30/2014  06:54:00      180.038      180.075        9.440      146.041      101.109       79.935    21327.969    10222.961     6389.635        5.143        1.897      254.638       60.605        0.057      329.137       -4.321      864.098
12/30/2014  06:55:00      155.415      167.206       20.416      134.338      127.378       93.108    18046.630    16225.237     8669.041        4.773        2.147      228.279       77.047        0.114      329.128       -4.337      864.120
12/30/2014  06:56:00       96.381      119.712        7.503       89.063      100.511       71.434     7932.170    10102.416     5102.824        2.340        1.157      153.689       68.866        0.201      329.147       -4.304      864.138
12/30/2014  06:57:00       63.076      169.311      -11.767       64.320       81.308       56.998     4137.122     6610.959     3248.803        2.339        0.700      180.679       55.006        0.093      329.135       -4.324      864.171
12/30/2014  06:58:00      133.095       79.895       27.261      100.189       73.977       67.542    10037.868     5472.620     4561.861        2.245        1.004      155.234       38.870        0.063      329.145       -4.307      864.185
12/30/2014  06:59:00      136.933      125.160       21.994      100.432       92.716       75.764    10086.638     8596.317     5740.181        2.966        1.221      185.515       53.474        0.083      329.108       -4.368      864.200
12/30/2014  07:00:00       59.873      165.912      -14.068       77.607      116.845       56.956     6022.861    13652.858     3244.019        2.711        1.146      176.385       55.486        0.099      329.120       -4.347      864.205
12/30/2014  07:01:00       61.844      154.968       13.664       88.728      120.682       74.106     7872.599    14564.095     5491.733        2.797        1.396      166.852       66.343        0.158      329.114       -4.356      864.226
12/30/2014  07:02:00      210.802      187.185       49.375      183.728      120.963      101.672    33755.883    14632.158    10337.187        7.031        2.936      281.915       55.965        0.039      329.100       -4.382      864.217
12/30/2014  07:03:00       49.965      223.170      -12.738       80.950      159.451       73.054     6552.839    25424.696     5336.947        4.488        1.866      228.695       89.271        0.152      329.124       -4.341      864.254
12/30/2014  07:04:00      200.664      107.453       42.145      171.503       92.079       78.527    29413.433     8478.460     6166.509        4.881        2.203      227.623       41.019        0.032      329.094       -4.392      864.258
12/30/2014  07:05:00       71.435      173.431       -5.948      132.381      116.887       62.326    17524.718    13662.464     3884.529        3.514        1.754      187.567       61.096        0.106      329.091       -4.396      864.270
12/30/2014  07:06:00       81.012      222.089       -2.237      135.282      132.471       66.577    18301.187    17548.522     4432.459        4.808        2.014      236.403       73.124        0.096      329.094       -4.390      864.291
12/30/2014  07:07:00      145.757      124.597       35.523      122.992       94.957       75.756    15127.038     9016.739     5738.918        3.395        1.494      191.754       54.015        0.079      329.086       -4.403      864.284
12/30/2014  07:08:00       55.246      223.203      -24.149       82.032      102.607       55.446     6729.306    10528.119     3074.240        3.689        1.017      229.938       49.271        0.046      329.092       -4.396      864.296
12/30/2014  07:09:00      164.593      230.648       -0.563      149.893      142.739       96.380    22467.906    20374.374     9289.108        6.620        2.607      283.354       76.537        0.073      329.088       -4.400      864.308
12/30/2014  07:10:00      134.607      145.740       11.423      111.903       84.907       72.385    12522.200     7209.180     5239.543        3.223        1.249      198.392       60.227        0.092      329.079       -4.415      864.323
12/30/2014  07:11:00       73.378      181.610       14.111      126.323      112.113       79.282    15957.418    12569.306     6285.655        3.668        1.741      195.873       78.457        0.160      329.082       -4.411      864.350
12/30/2014  07:12:00       71.538      263.359      -23.231       96.512      124.803       83.336     9314.567    15575.774     6944.957        5.342        1.592      272.902       81.853        0.090      329.098       -4.386      864.370
12/30/2014  07:13:00       43.431      345.149      -41.103       97.176      211.369       73.566     9443.128    44676.783     5412.020        9.111        2.977      347.871      104.678        0.091      329.116       -4.355      864.378
12/30/2014  07:14:00       32.847      299.076      -32.098       68.314      133.912       75.792     4666.858    17932.419     5744.491        5.994        1.417      300.874       81.663        0.074      329.134       -4.326      864.393
12/30/2014  07:15:00      110.915      181.075       13.026      101.426      138.805       95.733    10287.319    19266.883     9164.801        4.198        1.936      212.345       94.811        0.199      329.132       -4.330      864.397
12/30/2014  07:16:00       72.945      150.879        4.186       95.404      119.572       86.636     9101.896    14297.377     7505.753        2.950        1.545      167.587       71.438        0.182      329.138       -4.320      864.429
12/30/2014  07:17:00       84.690      171.702        3.735       95.487      102.343       78.782     9117.696    10474.138     6206.635        3.123        1.290      191.452       71.323        0.139      329.160       -4.285      864.448
12/30/2014  07:18:00      115.599       97.030       15.196      105.261       70.967       76.368    11079.875     5036.373     5832.000        2.247        1.097      150.924       50.494        0.112      329.160       -4.283      864.455
12/30/2014  07:19:00       40.818      136.248      -13.704       65.522       75.424       50.806     4293.128     5688.840     2581.236        1.649        0.628      142.231       49.015        0.119      329.162       -4.280      864.481
12/30/2014  07:20:00       65.308      202.809      -26.350      117.518      105.228       60.293    13810.407    11072.898     3635.202        3.730        1.426      213.064       56.245        0.070      329.174       -4.261      864.480
12/30/2014  07:21:00       36.478      138.458       -1.582       87.147       82.266       52.241     7594.644     6767.662     2729.139        1.879        0.855      143.182       54.109        0.143      329.254       -4.130      864.483
12/30/2014  07:22:00      115.228       69.988       22.972       79.435       53.467       53.485     6309.974     2858.769     2860.669        1.536        0.601      134.817       42.128        0.098      329.204       -4.210      864.507
12/30/2014  07:23:00      145.929       99.227       18.311      106.596       64.690       55.592    11362.703     4184.833     3090.447        2.505        0.932      176.468       31.105        0.031      329.201       -4.216      864.508
12/30/2014  07:24:00      112.945       50.569        7.330       59.154       57.395       40.585     3499.155     3294.169     1647.114        1.190        0.422      123.749       33.629        0.074      329.236       -4.157      864.516
12/30/2014  07:25:00       93.817       64.893       30.652       56.423       58.037       43.766     3183.515     3368.317     1915.419        1.121        0.423      114.074       27.943        0.060      329.271       -4.099      864.555
12/30/2014  07:26:00       -8.523      130.110       -9.298       55.413       93.399       45.803     3070.594     8723.381     2097.907        1.549        0.695      130.389       36.787        0.080      329.208       -4.202      864.557
12/30/2014  07:27:00       91.876       66.880       23.392       37.755       38.019       30.842     1425.423     1445.471      951.200        0.864        0.191      113.640       16.123        0.020      329.234       -4.161      864.536
12/30/2014  07:28:00       54.718       19.872       11.057       34.681       44.488       25.592     1202.775     1979.169      654.942        0.367        0.192       58.215       23.226        0.159      329.269       -4.103      864.557
12/30/2014  07:29:00       10.701       30.431        6.710       23.446       25.369       29.779      549.700      643.561      886.761        0.158        0.104       32.257       16.008        0.246      329.273       -4.096      864.565
12/30/2014  07:30:00       28.348       28.182       -0.680       36.616       40.143       16.970     1340.765     1611.454      287.966        0.242        0.162       39.973       10.166        0.065      329.264       -4.111      864.587
12/30/2014  07:31:00       15.956       17.311       15.767       25.110       22.372       23.134      630.513      500.488      535.178        0.123        0.083       23.543       20.251        0.740      329.294       -4.060      864.596
12/30/2014  07:32:00       25.656       15.148       40.734       38.902       32.210       25.896     1513.349     1037.459      670.608        0.288        0.161       29.794       19.402        0.424      329.365       -3.946      864.581
12/30/2014  07:33:00       68.422       45.751       82.170       55.249       48.811       33.863     3052.464     2382.475     1146.673        1.005        0.329       82.309       34.676        0.177      329.343       -3.983      864.614
12/30/2014  07:34:00       21.427        6.473       62.232       30.700       60.694       26.486      942.493     3683.802      701.495        0.485        0.266       22.383       24.359        1.184      329.447       -3.812      864.644
12/30/2014  07:35:00       55.885       44.905       31.802       41.558       34.454       36.162     1727.097     1187.051     1307.724        0.519        0.211       71.691       22.116        0.095      329.394       -3.898      864.652
12/30/2014  07:36:00       32.245      -53.462        4.166       36.287       46.966       26.476     1316.734     2205.798      700.990        0.407        0.211       62.434       22.949        0.135      329.530       -3.677      864.605
12/30/2014  07:37:00       52.108      -32.429       22.534       53.568       73.826       49.949     2869.533     5450.289     2494.946        0.754        0.541       61.375       56.612        0.851      329.476       -3.764      864.586
12/30/2014  07:38:00       30.545       88.556       60.504       38.782       51.735       62.442     1504.009     2676.538     3898.946        1.026        0.404       93.676       33.005        0.124      329.438       -3.828      864.589
12/30/2014  07:39:00       32.098       81.814       59.785       43.861       86.941       74.542     1923.767     7558.679     5556.549        1.317        0.752       87.886       56.935        0.420      329.498       -3.730      864.580
12/30/2014  07:40:00      116.467       -7.261       79.117       94.398      137.389       77.620     8911.066    18875.646     6024.913        2.684        1.691      116.693       91.388        0.613      329.535       -3.671      864.569
12/30/2014  07:41:00      190.062      -80.398       34.384       99.557      189.230       75.761     9911.631    35808.017     5739.666        4.760        2.573      206.368      100.545        0.237      329.465       -3.787      864.531
12/30/2014  07:42:00        9.596       21.152       87.226       39.827       69.995       42.136     1586.152     4899.339     1775.425        0.820        0.413       23.227       45.183        3.784      329.527       -3.680      864.530
12/30/2014  07:43:00       23.846        0.221       32.674       37.137       43.696       18.811     1379.150     1909.299      353.860        0.264        0.182       23.847        9.099        0.146      329.515       -3.701      864.553
12/30/2014  07:44:00       54.539        5.086      -10.888       21.921       12.772       14.929      480.535      163.122      222.865        0.199        0.043       54.775       10.508        0.037      329.433       -3.835      864.569
12/30/2014  07:45:00      101.255       48.872        3.278       71.022       48.863       51.412     5044.119     2387.550     2643.222        1.136        0.504      112.433       30.568        0.074      329.458       -3.796      864.606
12/30/2014  07:46:00      169.866       59.616       56.993      124.813      103.694       62.585    15578.231    10752.485     3916.930        3.295        1.512      180.024       55.296        0.094      329.518       -3.699      864.638
12/30/2014  07:47:00      169.008       89.029       26.457       73.451       77.917       51.878     5395.090     6071.031     2691.284        2.567        0.708      191.024       24.299        0.016      329.437       -3.830      864.706
12/30/2014  07:48:00      190.601      126.455       15.219       44.561       41.001       33.201     1985.651     1681.051     1102.290        2.866        0.238      228.735        4.908        0.000      329.416       -3.865      864.733
12/30/2014  07:49:00      127.285      123.301       10.679       93.956       61.467       51.862     8827.804     3778.178     2689.699        2.340        0.765      177.214       31.666        0.032      329.434       -3.835      864.739
12/30/2014  07:50:00      139.180       95.367       10.636       69.598       64.768       56.145     4843.872     4194.940     3152.252        2.038        0.610      168.719       37.500        0.049      329.457       -3.798      864.739
12/30/2014  07:51:00      108.203       55.205       30.538       96.059       71.998       52.471     9227.326     5183.732     2753.174        1.642        0.858      121.472       26.694        0.048      329.507       -3.716      864.749
12/30/2014  07:52:00      181.014      136.881       20.231       72.542       67.945       52.038     5262.357     4616.493     2707.998        3.225        0.629      226.942       32.273        0.020      329.479       -3.765      864.775
12/30/2014  07:53:00      138.715       72.323       13.371       89.086       78.774       69.002     7936.345     6205.325     4761.264        2.177        0.945      156.437       33.834        0.047      329.526       -3.682      864.795
12/30/2014  07:54:00      146.709      106.596       13.821       87.665       78.224       58.400     7685.204     6119.018     3410.532        2.514        0.861      181.346       41.740        0.053      329.527       -3.681      864.845
12/30/2014  07:55:00      115.406       66.397       20.748       48.325       45.421       35.020     2335.316     2063.042     1226.390        1.189        0.281      133.143       22.230        0.028      329.525       -3.685      864.862
12/30/2014  07:56:00      158.478      108.205       48.186       93.791       63.996       38.506     8796.761     4095.528     1482.731        2.676        0.719      191.895       46.885        0.060      329.557       -3.635      864.881
12/30/2014  07:57:00      128.505      107.147       34.688       77.299       63.806       55.038     5975.116     4071.157     3029.206        2.113        0.654      167.314       51.598        0.095      329.582       -3.593      864.906
12/30/2014  07:58:00      125.997      115.829      -10.127       79.559       70.704       58.631     6329.558     4999.041     3437.642        2.208        0.738      171.148       36.133        0.045      329.550       -3.646      864.956
12/30/2014  07:59:00       97.614       75.835        5.410       61.215       42.617       40.687     3747.263     1816.232     1655.434        1.126        0.361      123.610       30.155        0.060      329.579       -3.597      864.989
12/30/2014  08:00:00       59.890       92.771        5.057      109.483       51.448       46.914    11986.490     2646.918     2200.897        1.452        0.842      110.423       43.585        0.156      329.585       -3.588      865.019
12/30/2014  08:01:00       83.625       59.018        1.780       60.897       80.061       42.434     3708.441     6409.726     1800.650        1.120        0.596      102.354       48.572        0.225      329.619       -3.528      865.015
12/30/2014  08:02:00      115.376       82.742       47.183       74.288       66.955       60.604     5518.684     4483.028     3672.877        1.803        0.684      141.979       38.568        0.074      329.658       -3.468      864.976
12/30/2014  08:03:00      242.603      161.665       43.167      165.146      104.573       67.051    27273.359    10935.452     4495.795        6.477        2.135      291.533       43.340        0.022      329.628       -3.520      864.979
12/30/2014  08:04:00      107.381       84.920       22.002       98.003       67.126       57.475     9604.651     4505.925     3303.384        1.832        0.871      136.902       31.382        0.053      329.651       -3.479      864.945
12/30/2014  08:05:00       48.136      216.589      -21.711       84.508      179.025       61.869     7141.675    32049.840     3827.725        4.635        2.151      221.874       76.866        0.120      329.636       -3.505      865.002
12/30/2014  08:06:00       65.190       65.488        9.741       71.440       38.838       34.807     5103.611     1508.370     1211.544        0.823        0.391       92.404       24.187        0.069      329.677       -3.436      865.021
12/30/2014  08:07:00       55.862       65.992       13.411       56.591       54.182       46.095     3202.578     2935.693     2124.731        0.796        0.413       86.461       31.462        0.132      329.645       -3.489      865.043
12/30/2014  08:08:00      110.448      119.638        3.330      101.017       72.586       54.826    10204.473     5268.731     3005.871        2.250        0.924      162.826       46.067        0.080      329.658       -3.468      865.081
12/30/2014  08:09:00      177.709      105.651       23.590       79.802       63.291       55.395     6368.283     4005.692     3068.630        2.837        0.672      206.743       32.237        0.024      329.638       -3.501      865.130
12/30/2014  08:10:00      200.099      117.074       37.964      128.582       86.795       72.301    16533.346     7533.353     5227.399        4.223        1.465      231.832       47.160        0.041      329.645       -3.491      865.120
12/30/2014  08:11:00      114.829      113.445       -0.516      135.476      120.888       59.164    18353.857    14613.947     3500.424        3.125        1.823      161.417       45.997        0.081      329.636       -3.504      865.148
12/30/2014  08:12:00      105.649      254.414      -22.017      117.546      181.441       82.032    13817.109    32920.845     6729.264        6.491        2.673      275.478       95.822        0.121      329.598       -3.567      865.136
12/30/2014  08:13:00      139.067      232.692       -3.107      145.448      148.039       94.230    21155.226    21915.550     8879.361        6.271        2.598      271.082       87.503        0.104      329.586       -3.588      865.146
12/30/2014  08:14:00      240.158      184.038       33.528      135.048       85.796       87.094    18238.075     7361.019     7585.421        6.292        1.659      302.565       59.201        0.038      329.542       -3.657      865.139
12/30/2014  08:15:00      137.677      133.782       27.472      135.853      103.527       89.111    18455.958    10717.792     7940.813        3.735        1.856      191.970       48.121        0.063      329.541       -3.659      865.144
12/30/2014  08:16:00       91.940      161.896       -2.438      105.125      118.591       80.030    11051.335    14063.925     6404.784        3.309        1.576      186.181       71.782        0.149      329.532       -3.674      865.186
12/30/2014  08:17:00       93.817      313.503      -20.392      106.636      199.811      113.455    11371.178    39924.489    12872.041        8.582        3.208      327.240      115.195        0.124      329.532       -3.675      865.177
12/30/2014  08:18:00      109.462      296.938       -1.828      135.988      230.682      100.461    18492.612    53214.236    10092.341        9.096        4.090      316.471      122.931        0.151      329.513       -3.706      865.242
12/30/2014  08:19:00      221.702      273.154       -4.093      231.097      160.019      128.885    53405.898    25605.935    16611.455       10.968        4.781      351.802      111.238        0.100      329.514       -3.706      865.194
12/30/2014  08:20:00       90.793      331.391       -1.957      154.648      178.146      104.265    23916.127    31735.883    10871.122        9.228        3.326      343.603      105.230        0.094      329.511       -3.710      865.222
12/30/2014  08:21:00      156.023      206.702       -7.140      135.328      136.589      104.863    18313.599    18656.576    10996.153        5.753        2.398      258.977       90.230        0.121      329.507       -3.715      865.243
12/30/2014  08:22:00      120.601      346.987       -3.901      188.140      230.786      131.767    35396.592    53262.208    17362.651       12.047        5.301      367.348      137.745        0.141      329.454       -3.804      865.216
12/30/2014  08:23:00      147.988      320.149       -6.962      169.426      326.054      141.550    28705.223   106311.314    20036.346       13.972        7.753      352.698      171.093        0.235      329.417       -3.867      865.205
12/30/2014  08:24:00      232.997      358.228      -11.954      188.436      225.022      148.702    35508.188    50634.680    22112.140       14.548        5.413      427.335      139.494        0.107      329.407       -3.882      865.216
12/30/2014  08:25:00      153.480      176.140       29.531      171.563      135.025       98.332    29433.831    18231.747     9669.157        5.638        2.867      233.627       60.530        0.067      329.413       -3.871      865.283
12/30/2014  08:26:00      247.337      227.729       24.965      185.777      139.880      107.054    34512.973    19566.498    11460.487        8.959        3.277      336.208       77.364        0.053      329.413       -3.870      865.292
12/30/2014  08:27:00      166.297      142.472       12.584      169.032      110.586       71.949    28571.933    12229.362     5176.635        4.704        2.299      218.981       52.848        0.058      329.446       -3.817      865.279
12/30/2014  08:28:00      150.712      194.326       13.597      138.658      126.301      113.167    19225.980    15952.034    12806.818        5.431        2.399      245.920       92.837        0.143      329.408       -3.879      865.329
12/30/2014  08:29:00      154.859      200.630       30.642      159.787      191.032      101.208    25531.855    36493.379    10243.049        6.871        3.613      253.444       99.221        0.153      329.399       -3.893      865.315
12/30/2014  08:30:00      218.323      239.021       12.265      196.416      171.823      114.878    38579.365    29523.136    13196.903        9.311        4.065      323.722       82.811        0.065      329.394       -3.902      865.328
12/30/2014  08:31:00       80.028      328.293      -26.079      137.374      186.610       90.407    18871.513    34823.416     8173.425        8.835        3.093      337.907      100.424        0.088      329.393       -3.903      865.359
12/30/2014  08:32:00       67.381      200.482      -10.110       82.493      208.992       71.138     6805.164    43677.742     5060.629        5.018        2.777      211.503       88.452        0.175      329.415       -3.866      865.392
12/30/2014  08:33:00      100.118      274.244        7.990      151.424      236.516      131.732    22929.142    55939.717    17353.223        9.074        4.811      291.948      134.364        0.212      329.414       -3.869      865.406
12/30/2014  08:34:00      131.364      197.650       17.978      175.687      170.260      107.060    30866.034    28988.370    11461.876        6.397        3.566      237.323       97.734        0.170      329.437       -3.831      865.419
12/30/2014  08:35:00       97.796      166.703       24.911      123.659      125.030      101.399    15291.527    15632.453    10281.660        3.958        2.060      193.272       83.539        0.187      329.431       -3.841      865.438
12/30/2014  08:36:00      130.918      144.377       27.487      139.380      105.458       86.662    19426.675    11121.313     7510.383        3.839        1.903      194.896       57.929        0.088      329.414       -3.869      865.442
12/30/2014  08:37:00      217.099      248.470        6.036      186.384      147.398      106.073    34738.854    21726.280    11251.389        8.830        3.386      329.953       96.112        0.085      329.400       -3.892      865.432
12/30/2014  08:38:00      202.597      180.681       15.171      162.634      118.225      100.254    26449.939    13977.267    10050.940        6.219        2.524      271.461       64.550        0.057      329.416       -3.865      865.468
12/30/2014  08:39:00      189.817      177.431       12.812      192.563      132.926       93.954    37080.463    17669.264     8827.429        6.561        3.179      259.831       73.799        0.081      329.415       -3.867      865.519
12/30/2014  08:40:00      228.607      120.875       48.091      155.977      117.844       94.814    24328.892    13887.261     8989.771        5.819        2.360      258.596       18.662        0.005      329.439       -3.829      865.542
12/30/2014  08:41:00      231.958      143.588       33.316      189.042       97.339       99.550    35736.849     9474.897     9910.258        6.532        2.756      272.804       69.997        0.066      329.439       -3.828      865.518
12/30/2014  08:42:00      193.110      191.859        7.800      178.190      121.257       88.105    31751.814    14703.219     7762.538        6.418        2.711      272.216       64.052        0.055      329.416       -3.866      865.580
12/30/2014  08:43:00       78.256      238.091      -23.250      128.479      211.840       96.825    16506.772    44876.126     9375.145        6.704        3.538      250.622      109.288        0.190      329.421       -3.858      865.615
12/30/2014  08:44:00      186.745      294.844      -13.999      158.318      187.874      123.834    25064.687    35296.777    15334.917        9.883        3.785      349.008      122.423        0.123      329.382       -3.921      865.621
12/30/2014  08:45:00      204.015      263.242        1.961      185.123      175.568      115.398    34270.550    30824.068    13316.623        9.465        3.921      333.045      104.580        0.099      329.383       -3.919      865.632
12/30/2014  08:46:00      227.461      249.621        9.272      197.549      212.022      104.828    39025.680    44953.178    10988.943       10.453        4.748      337.711      114.851        0.116      329.385       -3.916      865.622
12/30/2014  08:47:00      122.006      354.516      -20.682      143.237      225.479       93.753    20516.864    50840.670     8789.550       11.055        4.007      374.923      107.527        0.082      329.366       -3.947      865.633
12/30/2014  08:48:00       92.178      134.418        2.945      127.252      142.832       83.613    16193.161    20401.008     6991.149        3.507        2.179      162.988       77.223        0.224      329.383       -3.919      865.652
12/30/2014  08:49:00      191.293      157.079       -0.594      161.223      119.117       93.918    25992.737    14188.943     8820.505        5.513        2.450      247.522       63.045        0.065      329.357       -3.961      865.685
12/30/2014  08:50:00       70.187      189.559        1.949      117.448      165.013       88.780    13794.018    27229.156     7881.933        4.487        2.445      202.136       91.245        0.204      329.385       -3.915      865.756
12/30/2014  08:51:00      258.119      274.481       24.093      200.977      156.905      125.431    40391.608    24619.213    15732.870       11.163        4.037      376.783      117.816        0.098      329.354       -3.968      865.751
12/30/2014  08:52:00      151.289      160.797       -8.651      127.476      108.916       64.784    16250.127    11862.650     4196.996        4.056        1.615      220.781       54.743        0.061      329.379       -3.927      865.787
12/30/2014  08:53:00      245.752      257.648       35.810      217.636      136.678      122.129    47365.482    18680.758    14915.450       10.449        4.048      356.057       90.895        0.065      329.311       -4.038      865.749
12/30/2014  08:54:00      248.065      333.973       -7.441      222.177      279.292      136.234    49362.675    78003.856    18559.694       15.950        7.296      416.022      154.764        0.138      329.267       -4.109      865.741
12/30/2014  08:55:00      235.582      313.216      -25.223      212.532      192.298      121.445    45169.799    36978.373    14748.875       12.555        4.845      391.922      110.998        0.080      329.240       -4.153      865.737
12/30/2014  08:56:00      183.517      260.995       -4.150      196.633      179.993      124.208    38664.359    32397.532    15427.597        9.413        4.324      319.057       94.974        0.089      329.251       -4.134      865.748
12/30/2014  08:57:00       82.755      161.479        8.771      104.558      150.027       74.829    10932.477    22508.029     5599.401        3.601        1.952      181.449       69.976        0.149      329.278       -4.089      865.774
12/30/2014  08:58:00      152.540      234.367      -15.718      142.103      149.847       98.587    20193.269    22454.109     9719.472        6.539        2.618      279.636       83.977        0.090      329.265       -4.113      865.767
12/30/2014  08:59:00       95.299      268.559      -13.436      123.592      153.162       87.431    15274.926    23458.603     7644.190        6.387        2.319      284.966       82.234        0.083      329.280       -4.089      865.756
12/30/2014  09:00:00       93.490      216.379       -4.873      141.569      119.678       76.484    20041.770    14322.884     5849.806        4.789        2.011      235.712       83.634        0.126      329.271       -4.102      865.788
12/30/2014  09:01:00      140.079      208.408       12.218      177.691      166.452      107.536    31574.097    27706.380    11563.924        6.701        3.542      251.109       86.463        0.119      329.255       -4.129      865.799
12/30/2014  09:02:00      136.043      462.890      -27.749      184.641      277.741      151.045    34092.338    77140.017    22814.601       18.377        6.702      482.468      165.520        0.118      329.172       -4.265      865.777
12/30/2014  09:03:00      208.100      340.306        5.197      221.782      258.843      142.403    49187.429    66999.503    20278.618       14.778        6.823      398.890      156.331        0.154      329.165       -4.276      865.814
12/30/2014  09:04:00      141.611      340.809      -10.586      172.714      244.800      150.892    29829.956    59927.240    22768.393       12.440        5.626      369.059      144.063        0.152      329.131       -4.331      865.795
12/30/2014  09:05:00      353.904      293.504       43.702      247.942      216.838      168.702    61475.432    47018.509    28460.376       17.510        6.848      459.775      137.481        0.089      329.164       -4.277      865.762
12/30/2014  09:06:00      445.086      312.991       32.979      248.835      145.096      138.618    61918.994    21052.985    19215.037       19.965        5.109      544.118       63.018        0.013      329.137       -4.322      865.783
12/30/2014  09:07:00      149.215      169.550      -11.155      183.187      127.985       94.201    33557.337    16380.071     8873.771        5.496        2.941      225.859       79.962        0.125      329.163       -4.279      865.808
12/30/2014  09:08:00      134.752      221.732       -2.118      148.733      175.340       98.778    22121.641    30743.944     9757.163        6.496        3.131      259.467      105.249        0.165      329.177       -4.256      865.806
12/30/2014  09:09:00      372.519      280.513       52.815      270.312      165.548      137.869    73068.573    27406.288    19007.997       16.984        5.974      466.324       99.975        0.046      329.162       -4.281      865.791
12/30/2014  09:10:00      215.206      265.705       24.052      246.283      205.442      125.911    60655.246    42206.532    15853.566       11.808        5.936      341.925      104.341        0.093      329.161       -4.284      865.794
12/30/2014  09:11:00      355.368      251.886       23.490      264.464      179.462      127.390    69941.278    32206.551    16228.312       15.431        5.919      435.584       86.689        0.040      329.167       -4.273      865.836
12/30/2014  09:12:00      233.219      249.812        2.992      204.166      185.780      113.502    41683.619    34514.352    12882.789       10.293        4.454      341.756      102.197        0.089      329.159       -4.286      865.817
12/30/2014  09:13:00      261.677      200.703       32.870      149.552      124.226      115.152    22365.884    15432.019    13260.052        8.044        2.553      329.782       86.191        0.068      329.140       -4.316      865.874
12/30/2014  09:14:00      211.516      250.274       32.595      248.959      208.784      110.385    61980.564    43590.915    12184.906       11.307        5.888      327.683       92.822        0.080      329.160       -4.284      865.875
12/30/2014  09:15:00      227.628      264.270       -8.569      169.404      149.267      108.052    28697.847    22280.671    11675.299        9.218        3.133      348.788       94.532        0.073      329.157       -4.290      865.946
12/30/2014  09:16:00      318.877      322.872       28.341      241.822      196.253      161.034    58477.987    38515.366    25931.860       16.480        6.146      453.794      114.683        0.064      329.086       -4.403      865.966
12/30/2014  09:17:00      195.670      320.854      -15.653      167.203      238.354      123.423    27956.970    56812.585    15233.168       12.072        5.000      375.811      122.463        0.106      329.080       -4.415      865.993
12/30/2014  09:18:00      249.145      230.916       26.397      188.469      147.558      126.320    35520.594    21773.274    15956.682        9.466        3.663      339.699      100.323        0.087      329.117       -4.355      866.020
12/30/2014  09:19:00      272.666      262.225       10.335      171.320      137.182      119.593    29350.525    18819.025    14302.546       10.283        3.124      378.297       87.353        0.053      329.141       -4.316      866.028
12/30/2014  09:20:00      188.676      361.719      -17.352      194.659      211.073      146.825    37892.146    44552.004    21557.665       13.535        5.200      407.970      131.124        0.103      329.153       -4.297      866.068
12/30/2014  09:21:00      230.884      275.233       26.979      213.348      172.671      135.142    45517.260    29815.119    18263.234       11.167        4.680      359.250      103.532        0.083      329.163       -4.279      866.070
12/30/2014  09:22:00      459.103      292.976       49.234      279.728      165.140      127.970    78247.775    27271.178    16376.330       21.044        6.095      544.620       76.951        0.020      329.132       -4.330      866.017
12/30/2014  09:23:00      280.574      236.191       45.325      189.651      137.029      133.512    35967.617    18777.029    17825.443       10.455        3.629      366.753       89.197        0.059      329.173       -4.264      866.059
12/30/2014  09:24:00      178.705      118.961       24.649      117.806       91.500       80.614    13878.290     8372.228     6498.668        3.772        1.437      214.679       55.089        0.066      329.195       -4.228      866.086
12/30/2014  09:25:00      194.537      166.097       26.812      143.295      103.318       81.353    20533.468    10674.682     6618.280        5.198        1.891      255.799       54.995        0.046      329.219       -4.186      866.100
12/30/2014  09:26:00      245.035      303.930      -10.300      189.383      169.967      120.759    35865.817    28888.665    14582.632       11.591        3.967      390.404       93.971        0.058      329.179       -4.252      866.127
12/30/2014  09:27:00      318.322      256.292       37.550      228.161      145.298      117.448    52057.474    21111.476    13793.961       12.768        4.348      408.675       74.358        0.033      329.169       -4.270      866.101
12/30/2014  09:28:00      251.786      261.833       18.128      204.578      181.491      128.345    41852.020    32939.112    16472.320       11.175        4.563      363.253       92.869        0.065      329.171       -4.268      866.124
12/30/2014  09:29:00      113.009      396.504      -12.699      215.323      243.066      157.823    46363.796    59081.132    24907.998       15.022        6.518      412.294      143.304        0.121      329.106       -4.373      866.099
12/30/2014  09:30:00      245.098      285.503       27.056      251.408      182.602      136.760    63205.740    33343.543    18703.182       12.876        5.763      376.277       86.688        0.053      329.124       -4.344      866.085
12/30/2014  09:31:00      265.478      377.664        1.264      230.520      244.965      167.952    53139.341    60007.667    28207.968       17.720        7.068      461.637      156.260        0.115      329.103       -4.377      866.071
12/30/2014  09:32:00      215.659      424.028        1.057      227.987      297.135      167.690    51978.216    88289.401    28119.802       19.731        8.419      475.719      170.464        0.128      329.094       -4.392      866.092
12/30/2014  09:33:00      402.257      414.534       23.172      283.233      240.459      206.484    80221.042    57820.648    42635.510       25.740        9.034      577.624      182.179        0.099      329.066       -4.438      866.105
12/30/2014  09:34:00      253.606      367.968       -8.685      250.450      227.834      159.049    62725.229    51908.271    25296.568       16.983        6.997      446.897      135.359        0.092      329.071       -4.428      866.131
12/30/2014  09:35:00      212.332      316.513       -2.133      184.070      255.434      146.260    33881.909    65246.616    21391.996       13.287        6.026      381.137      144.277        0.143      329.127       -4.339      866.177
12/30/2014  09:36:00      127.054      427.149        6.064      206.094      303.787      173.033    42474.890    92286.336    29940.527       18.164        8.235      445.644      177.793        0.159      329.095       -4.389      866.170
12/30/2014  09:37:00      259.881      281.475       24.235      251.278      169.919      137.656    63140.390    28872.519    18949.128       12.914        5.548      383.101      119.776        0.098      329.146       -4.308      866.236
12/30/2014  09:38:00      172.991      311.892       20.933      184.098      214.782      152.358    33892.221    46131.505    23212.907       11.542        5.162      356.655      139.259        0.152      329.143       -4.313      866.294
12/30/2014  09:39:00      222.444      286.114        4.743      213.311      176.808      130.168    45501.583    31261.018    16943.700       11.252        4.685      362.412      111.681        0.095      329.155       -4.294      866.325
12/30/2014  09:40:00      133.573      193.929      -11.509      122.909      177.458       90.702    15106.509    31491.347     8226.812        5.519        2.741      235.479       97.656        0.172      329.202       -4.215      866.359
12/30/2014  09:41:00      145.235      212.669       -0.758      143.389      132.779       86.296    20560.391    17630.394     7446.915        5.597        2.282      257.529       82.908        0.104      329.205       -4.210      866.365
12/30/2014  09:42:00      187.818      207.094       14.519      194.114      139.766       98.972    37680.068    19534.483     9795.431        7.268        3.350      279.577       78.232        0.078      329.198       -4.223      866.416
12/30/2014  09:43:00      403.716      323.078       28.775      281.508      198.934      142.726    79246.969    39574.788    20370.574       20.366        6.960      517.074       96.937        0.035      329.104       -4.376      866.417
12/30/2014  09:44:00      483.812      411.927       25.686      319.670      231.188      160.255   102188.632    53448.027    25681.700       29.283        9.066      635.419      125.276        0.039      329.074       -4.424      866.467
12/30/2014  09:45:00      179.166      225.454        5.115      181.938      179.563      117.440    33101.366    32243.001    13792.250        8.103        3.957      287.976      106.300        0.136      329.104       -4.375      866.526
12/30/2014  09:46:00      164.320      374.660        5.804      192.988      286.420      150.433    37244.188    82036.516    22630.228       15.463        7.096      409.110      158.060        0.149      329.102       -4.379      866.538
12/30/2014  09:47:00      262.305      339.888       10.473      223.510      238.149      153.174    49956.591    56714.771    23462.292       15.726        6.507      429.334      143.028        0.111      329.098       -4.386      866.588
12/30/2014  09:48:00      248.168      386.774       -4.481      236.799      262.963      155.502    56073.619    69149.699    24180.720       18.027        7.470      459.545      148.597        0.105      329.120       -4.350      866.603
12/30/2014  09:49:00      267.496      390.506      -12.822      275.918      226.585      148.408    76130.569    51340.540    22024.966       18.682        7.475      473.338      137.291        0.084      329.183       -4.247      866.640
12/30/2014  09:50:00      314.599      385.562       -2.029      265.998      235.025      135.577    70755.118    55236.590    18380.996       19.597        7.219      497.625      123.538        0.062      329.243       -4.148      866.702
12/30/2014  09:51:00      223.032      366.601      -10.433      224.993      238.016      171.599    50621.891    56651.840    29446.191       16.046        6.836      429.115      139.337        0.105      329.235       -4.162      866.748
12/30/2014  09:52:00      389.418      371.479        4.287      304.003      229.265      155.664    92417.529    52562.619    24231.145       22.940        8.461      538.185      129.601        0.058      329.245       -4.145      866.787
12/30/2014  09:53:00      389.570      286.306       59.954      280.072      210.312      176.474    78440.603    44231.342    31143.014       19.554        7.691      483.462      137.615        0.081      329.268       -4.107      866.770
12/30/2014  09:54:00      230.108      331.788        9.924      193.732      270.988      172.475    37531.900    73434.316    29747.522       15.190        7.036      403.774      164.746        0.166      329.292       -4.068      866.809
12/30/2014  09:55:00      354.963      278.111       39.796      232.764      159.036      120.214    54179.282    25292.528    14451.377       14.941        4.696      450.937       78.403        0.030      329.328       -4.010      866.870
12/30/2014  09:56:00      218.017      212.861        1.935      195.402      147.962      107.219    38182.069    21892.614    11496.013        8.219        3.579      304.699       92.578        0.092      329.425       -3.851      866.882
12/30/2014  09:57:00      241.803      233.340        4.400      187.725      157.241      122.917    35240.490    24724.600    15108.477        9.399        3.754      336.031       99.790        0.088      329.422       -3.856      866.905
12/30/2014  09:58:00      238.715      224.966       15.803      192.904      178.154      132.733    37211.908    31738.750    17618.032        9.719        4.328      328.016      110.388        0.113      329.383       -3.920      866.888
12/30/2014  09:59:00      302.550      298.708        1.646      227.373      215.215      128.661    51698.354    46317.511    16553.709       14.764        5.728      425.163      119.643        0.079      329.344       -3.983      866.882
12/30/2014  10:00:00      251.942      367.169      -25.307      204.214      240.323      160.665    41703.349    57755.317    25813.133       16.207        6.264      445.295      151.879        0.116      329.285       -4.081      866.823
12/30/2014  10:01:00      274.563      277.005        3.437      209.055      195.474      137.142    43703.808    38210.264    18807.978       12.641        5.036      390.021      118.161        0.092      329.337       -3.994      866.866
12/30/2014  10:02:00      399.872      292.238       54.033      223.342      174.225      118.945    49881.832    30354.186    14147.844       17.128        4.719      495.278       72.887        0.022      329.325       -4.014      866.906
12/30/2014  10:03:00      261.965      284.880       42.447      215.264      178.355      136.665    46338.575    31810.507    18677.423       12.419        4.841      387.017      116.501        0.091      329.385       -3.917      866.933
12/30/2014  10:04:00      217.702      329.319       -8.595      196.299      193.373      121.766    38533.437    37393.122    14826.991       12.332        4.538      394.772      102.167        0.067      329.420       -3.860      866.951
12/30/2014  10:05:00      170.091      245.654        1.849      185.604      185.068      132.656    34448.799    34250.141    17597.664        8.777        4.315      298.792      120.856        0.164      329.433       -3.838      866.995
12/30/2014  10:06:00      244.532      209.640       11.116      220.114      155.962      107.051    48449.982    24324.286    11459.860        9.403        4.212      322.094       81.625        0.064      329.495       -3.737      867.021
12/30/2014  10:07:00      369.110      273.067       39.620      224.282      157.784      137.987    50302.450    24895.742    19040.340       15.329        4.712      459.138       90.165        0.039      329.349       -3.975      867.055
12/30/2014  10:08:00      166.560      194.122        7.726      198.877      147.216      112.789    39551.959    21672.586    12721.434        6.970        3.697      255.784       96.832        0.143      329.450       -3.810      867.053
12/30/2014  10:09:00      342.104      261.866       35.045      186.941      137.291      122.513    34946.859    18848.911    15009.515       12.781        3.440      430.824       71.613        0.028      329.394       -3.903      867.042
12/30/2014  10:10:00      434.493      291.875       37.396      178.061      167.007      115.688    31705.802    27891.278    13383.734       17.416        3.649      523.426       62.687        0.014      329.320       -4.022      867.044
12/30/2014  10:11:00      248.648      241.425       11.328      178.951      144.790      113.711    32023.473    20964.144    12930.192        9.307        3.296      346.572       91.290        0.069      329.375       -3.933      867.047
12/30/2014  10:12:00      146.906      200.124      -14.866      183.412      143.410      106.689    33639.924    20566.569    11382.577        6.371        3.279      248.256       89.282        0.129      329.449       -3.813      867.059
12/30/2014  10:13:00      142.565      117.592        4.074      109.752       81.147       64.520    12045.588     6584.847     4162.778        2.848        1.140      184.804       34.466        0.035      329.607       -3.552      867.057
12/30/2014  10:14:00      244.650      222.604       33.454      189.449      137.838      119.835    35890.794    18999.177    14360.434        8.987        3.463      330.766       68.622        0.043      329.579       -3.600      867.044
12/30/2014  10:15:00      447.978      294.234       41.447      177.552      163.267      120.028    31524.813    26656.178    14406.602       18.077        3.629      535.964       69.808        0.017      329.378       -3.926      866.984
12/30/2014  10:16:00      244.845      137.688       58.407      143.828      126.048       90.473    20686.536    15888.197     8185.388        6.353        2.238      280.904       62.312        0.049      329.574       -3.608      867.024
12/30/2014  10:17:00      371.010      251.110       32.209      150.442      116.019      102.377    22632.943    13460.367    10481.150       12.415        2.329      448.001       59.008        0.017      329.479       -3.761      867.053
12/30/2014  10:18:00      168.732      198.274       16.112      154.241      133.603      100.314    23790.353    17849.716    10062.866        5.986        2.585      260.352       84.573        0.106      329.515       -3.703      867.075
12/30/2014  10:19:00      199.531      182.021        4.817      127.760       99.128       87.971    16322.571     9826.393     7738.880        5.342        1.694      270.082       56.530        0.044      329.627       -3.520      867.084
12/30/2014  10:20:00      282.047      200.674       29.365      196.858      123.321       99.123    38752.913    15208.069     9825.375        9.222        3.189      346.151       97.536        0.079      329.630       -3.516      867.087
12/30/2014  10:21:00      294.066      161.213       33.046      143.220      106.144       88.793    20511.960    11266.600     7884.204        7.660        1.983      335.358       58.028        0.030      329.669       -3.452      867.086
12/30/2014  10:22:00      183.914      122.382       15.369      162.956      125.716       79.114    26554.547    15804.612     6258.997        4.882        2.431      220.911       43.771        0.039      329.782       -3.266      867.102
12/30/2014  10:23:00      243.041      210.372       30.858      173.863      120.236       90.552    30228.448    14456.763     8199.689        7.857        2.644      321.443       50.255        0.024      329.695       -3.410      867.099
12/30/2014  10:24:00      268.320      261.476       -0.439      214.473      156.699      136.729    45998.614    24554.511    18694.757       11.479        4.462      374.653      104.537        0.078      329.653       -3.478      867.074
12/30/2014  10:25:00      229.205      225.242       33.537      192.217      148.013      141.272    36947.339    21907.759    19957.637        9.159        3.941      321.355       95.204        0.088      329.696       -3.409      867.065
12/30/2014  10:26:00      309.639      307.901       22.195      252.086      174.620      141.446    63547.568    30492.246    20006.835       15.259        5.702      436.669      101.853        0.054      329.602       -3.561      867.091
12/30/2014  10:27:00      135.732      348.854      -11.760      186.746      196.946      140.075    34874.023    38787.673    19621.050       11.675        4.664      374.329      125.220        0.112      329.655       -3.476      867.117
12/30/2014  10:28:00      164.886      289.175      -14.529      212.352      258.009      139.350    45093.192    66568.862    19418.437       12.102        6.554      332.880      134.492        0.163      329.682       -3.432      867.130
12/30/2014  10:29:00      136.562      349.928      -21.817      184.564      229.357      124.320    34063.941    52604.505    15455.401       12.183        5.106      375.632      120.553        0.103      329.646       -3.489      867.130
12/30/2014  10:30:00       90.783      281.959       -0.842      145.126      251.424      130.876    21061.414    63213.880    17128.448        9.455        5.070      296.213      138.007        0.217      329.678       -3.438      867.087
12/30/2014  10:31:00      124.346      245.313       -7.726      133.401      184.940      124.708    17795.736    34202.673    15551.983        7.161        3.378      275.028      123.992        0.203      329.775       -3.278      867.077
12/30/2014  10:32:00      257.315      217.752       34.290      245.088      150.969      106.905    60068.028    22791.534    11428.637       10.453        4.714      337.086       67.168        0.040      329.848       -3.158      867.059
12/30/2014  10:33:00      240.490      253.702       27.737      256.222      184.889      135.461    65649.720    34183.943    18349.772       12.055        5.909      349.571      101.949        0.085      329.734       -3.346      867.073
12/30/2014  10:34:00      270.772      275.464       26.130      207.926      168.963      127.522    43233.357    28548.381    16261.766       11.894        4.402      386.261       99.207        0.066      329.729       -3.354      867.042
12/30/2014  10:35:00      276.692      297.564        8.411      195.417      176.858      123.167    38187.912    31278.602    15170.100       12.489        4.232      406.329      114.001        0.079      329.700       -3.402      866.996
12/30/2014  10:36:00      165.938      274.062       -8.440      157.782      180.001      115.334    24895.136    32400.472    13302.046        8.664        3.530      320.383      111.782        0.122      329.749       -3.322      866.984
12/30/2014  10:37:00      210.577      235.683       16.404      186.662      147.152      124.282    34842.848    21653.746    15445.929        8.604        3.597      316.052       94.606        0.090      329.759       -3.305      866.967
12/30/2014  10:38:00      128.029      205.408       13.651      113.975      127.601       95.750    12990.411    16282.083     9168.067        4.860        1.922      242.041       76.433        0.100      329.838       -3.174      866.994
12/30/2014  10:39:00      172.419      214.834       15.747      189.948      141.814      100.783    36080.214    20111.243    10157.157        7.123        3.317      275.467       87.842        0.102      329.885       -3.097      867.024
12/30/2014  10:40:00      200.961      179.113       -1.966      127.236      111.994       89.914    16189.025    12542.744     8084.521        5.464        1.841      269.196       74.885        0.077      329.833       -3.183      867.007
12/30/2014  10:41:00      354.023      270.456       26.713      234.902      153.904      102.596    55178.823    23686.382    10525.999       14.427        4.470      445.510       62.100        0.019      329.788       -3.257      866.984
12/30/2014  10:42:00      171.265      232.457        6.658      164.521      138.963      110.995    27067.211    19310.843    12319.866        7.104        2.935      288.736       87.467        0.092      329.892       -3.088      866.986
12/30/2014  10:43:00      136.266      342.782      -26.862      160.217      252.748      118.738    25669.622    63881.469    14098.621       12.020        5.182      368.874      137.174        0.138      329.903       -3.069      866.988
12/30/2014  10:44:00      171.183      262.764       15.073      228.353      152.359      115.165    52145.091    23213.245    13262.967        9.358        4.431      313.605       88.358        0.079      330.006       -2.900      866.954
12/30/2014  10:45:00      279.729      323.601       20.129      236.673      179.161      135.103    56013.995    32098.753    18252.761       14.485        5.318      427.745      111.017        0.067      329.870       -3.123      866.897
12/30/2014  10:46:00      179.475      354.369      -19.149      214.487      219.778      153.586    46004.621    48302.208    23588.775       13.800        5.895      397.226      126.251        0.101      329.801       -3.237      866.881
12/30/2014  10:47:00      143.469      248.320        9.411      147.518      139.266      107.605    21761.474    19395.150    11578.904        6.752        2.637      286.786       89.763        0.098      329.953       -2.986      866.870
12/30/2014  10:48:00      157.393      196.111        1.300      140.756      109.927       89.961    19812.114    12083.872     8093.006        5.160        1.999      251.460       59.245        0.056      330.069       -2.798      866.855
12/30/2014  10:49:00      200.029      160.580       16.479      148.555       94.622       89.323    22068.581     8953.372     7978.619        5.253        1.950      256.510       54.100        0.044      330.116       -2.720      866.853
12/30/2014  10:50:00       84.581      222.546       -0.685      118.034      231.717       99.603    13932.007    53692.991     9920.791        6.710        3.877      238.077      115.818        0.237      330.140       -2.680      866.883
12/30/2014  10:51:00      105.719      246.228       -2.046      180.934      205.910      104.642    32736.962    42398.797    10950.006        7.893        4.304      267.964      100.666        0.141      330.060       -2.809      866.853
12/30/2014  10:52:00      200.291      388.127       -4.087      189.607      261.693      158.671    35950.958    68483.087    25176.562       16.017        6.481      436.760      158.982        0.132      329.856       -3.147      866.816
12/30/2014  10:53:00      114.898      408.925      -20.169      166.033      286.436      160.292    27567.053    82045.589    25693.524       15.804        6.765      424.760      172.208        0.164      329.797       -3.241      866.770
12/30/2014  10:54:00      157.274      373.118       11.843      204.399      301.329      177.757    41778.897    90799.404    31597.686       16.410        8.209      404.910      173.726        0.184      329.737       -3.341      866.772
12/30/2014  10:55:00      112.335      231.114        0.209      150.165      201.860      105.947    22549.529    40747.445    11224.824        7.026        3.726      256.969      102.395        0.159      329.876       -3.113      866.750
12/30/2014  10:56:00      194.962      351.311      -15.328      195.335      217.484      149.815    38155.621    47299.383    22444.602       13.476        5.395      401.783      128.935        0.103      329.868       -3.126      866.730
12/30/2014  10:57:00      368.915      301.546       37.288      236.647      185.620      162.603    56001.974    34454.892    26439.875       17.263        5.845      476.475      103.549        0.047      329.801       -3.236      866.691
12/30/2014  10:58:00      156.353      334.247       -5.047      175.422      281.360      145.526    30772.822    79163.276    21177.893       13.363        6.556      369.009      161.687        0.192      329.814       -3.215      866.717
12/30/2014  10:59:00      228.981      286.357        4.694      197.841      174.222      132.816    39140.899    30353.148    17639.992       11.078        4.357      366.651      113.003        0.095      329.836       -3.179      866.719
12/30/2014  11:00:00      199.387      262.149       13.552      189.399      145.815      122.086    35871.862    21261.994    14904.997        9.034        3.602      329.359       90.396        0.075      329.876       -3.113      866.709
12/30/2014  11:01:00      160.599      238.407       17.211      162.508      175.974      137.390    26408.759    30966.748    18875.884        7.957        3.813      287.455      114.460        0.159      329.880       -3.106      866.682
12/30/2014  11:02:00      204.990      253.417       10.979      227.161      158.391      115.631    51601.953    25087.607    13370.501        9.819        4.503      325.947       89.443        0.075      329.900       -3.074      866.683
12/30/2014  11:03:00      241.520      225.998       25.242      193.316      145.093      122.754    37371.121    21052.093    15068.609        9.175        3.675      330.768       87.608        0.070      329.944       -3.001      866.657
12/30/2014  11:04:00      250.218      243.143       12.550      179.982      182.646      109.545    32393.372    33359.662    12000.216        9.980        3.888      348.895       96.901        0.077      330.019       -2.881      866.662
12/30/2014  11:05:00      295.552      326.450       25.254      246.978      167.251      157.637    60998.331    27972.967    24849.448       15.417        5.691      440.365      102.799        0.054      329.781       -3.269      866.642
12/30/2014  11:06:00      198.606      332.161      -34.726      188.296      173.098      114.799    35455.308    29962.784    13178.858       11.477        3.930      387.008      102.197        0.070      329.881       -3.105      866.662
12/30/2014  11:07:00      129.803      450.834      -26.555      170.959      249.130      164.875    29227.018    62065.943    27183.754       16.962        5.924      469.148      160.404        0.117      329.754       -3.314      866.612
12/30/2014  11:08:00      112.128      311.548       -9.880      167.983      185.340      136.183    28218.181    34350.811    18545.698        9.541        4.056      331.112      109.142        0.109      329.952       -2.989      866.647
12/30/2014  11:09:00      155.356      393.870        6.487      196.648      301.476      186.759    38670.595    90887.849    34879.047       17.184        8.222      423.401      194.010        0.210      329.836       -3.180      866.636
12/30/2014  11:10:00       64.721      539.691      -31.872      167.139      308.291      152.695    27935.502    95043.295    23315.890       22.135        7.315      543.558      164.265        0.091      329.716       -3.375      866.673
12/30/2014  11:11:00      108.828      662.492      -77.740      168.505      355.851      157.323    28393.960   126630.202    24750.514       31.824        8.989      671.371      178.266        0.071      329.674       -3.441      866.701
12/30/2014  11:12:00      115.755      451.565      -24.974      237.487      312.884      167.892    56400.087    97896.394    28187.757       20.017        9.124      466.165      167.938        0.130      329.692       -3.414      866.692
12/30/2014  11:13:00      104.224      354.641      -24.707      138.074      222.419      122.214    19064.383    49470.302    14936.182       11.034        4.174      369.639      133.755        0.131      329.790       -3.253      866.697
12/30/2014  11:14:00       87.000      396.832      -35.118      150.880      245.419      131.600    22764.631    60230.712    17318.527       13.328        5.016      406.257      147.095        0.131      329.847       -3.161      866.708
12/30/2014  11:15:00       54.218      473.410      -29.267      153.191      311.821      148.056    23467.631    97232.611    21920.452       18.524        7.131      476.505      170.099        0.127      329.821       -3.203      866.716
12/30/2014  11:16:00       76.108      410.947       -8.591      149.408      236.180      127.800    22322.814    55781.008    16332.810       13.457        4.722      417.935      142.808        0.117      329.917       -3.045      866.780
12/30/2014  11:17:00       53.268      362.081      -14.956      125.624      232.543      109.609    15781.477    54076.136    12014.138       10.800        4.094      365.979      122.237        0.112      329.940       -3.009      866.818
12/30/2014  11:18:00      121.972      575.650      -60.308      176.193      310.006      155.569    31044.020    96103.813    24201.569       25.059        7.567      588.430      179.913        0.093      329.703       -3.396      866.785
12/30/2014  11:19:00      128.247      408.906       -8.114      187.657      314.114      175.387    35215.052    98667.454    30760.480       17.415        8.232      428.546      175.997        0.169      329.672       -3.449      866.708
12/30/2014  11:20:00      143.934      368.767       20.290      195.032      330.114      171.122    38037.568   108975.213    29282.748       16.667        8.815      395.861      169.922        0.184      329.627       -3.522      866.705
12/30/2014  11:21:00      157.174      382.236        9.545      235.858      267.740      164.944    55629.001    71684.563    27206.521       16.268        7.726      413.289      147.029        0.127      329.598       -3.569      866.737
12/30/2014  11:22:00      114.499      312.458       16.442      198.349      247.432      142.044    39342.486    61222.726    20176.612       11.585        6.037      332.777      138.449        0.173      329.655       -3.475      866.766
12/30/2014  11:23:00       69.276      409.003      -14.136      176.178      254.320      132.238    31038.731    64678.474    17486.908       14.272        5.660      414.828      142.052        0.117      329.670       -3.450      866.783
12/30/2014  11:24:00       74.266      408.721      -24.012      166.946      239.391      124.207    27871.020    57308.046    15427.288       13.686        5.030      415.413      134.274        0.104      329.667       -3.456      866.771
12/30/2014  11:25:00      105.554      338.031      -35.763      142.583      213.149      113.641    20330.036    45432.413    12914.171       10.267        3.934      354.128      105.782        0.089      329.837       -3.177      866.766
12/30/2014  11:26:00      109.802      338.329        3.624      230.252      225.635      133.058    53015.949    50911.242    17704.482       12.406        6.082      355.701      137.458        0.149      329.812       -3.218      866.802
12/30/2014  11:27:00       93.779      355.282      -39.457      123.570      198.825       99.311    15269.592    39531.268     9862.683       10.061        3.233      367.450      100.372        0.075      329.825       -3.196      866.790
12/30/2014  11:28:00      278.689      279.260        5.051      246.526      185.814      131.461    60775.243    34526.880    17282.093       13.411        5.629      394.530       88.060        0.050      329.868       -3.127      866.802
12/30/2014  11:29:00      193.029      468.743      -37.367      199.688      265.741      154.784    39875.187    70618.365    23957.945       19.639        6.723      506.932      156.363        0.095      329.645       -3.492      866.827
12/30/2014  11:30:00      119.142      409.404      -21.095      161.081      267.627      151.373    25947.171    71624.394    22913.680       15.134        6.024      426.388      158.714        0.139      329.655       -3.475      866.816
12/30/2014  11:31:00      246.425      292.541       20.058      279.488      216.138      139.252    78113.497    46715.720    19391.086       14.544        7.211      382.499      121.477        0.101      329.780       -3.269      866.831
12/30/2014  11:32:00      183.806      232.029       11.941      225.172      217.635      128.443    50702.488    47364.989    16497.519       10.114        5.728      296.010      119.124        0.162      329.835       -3.181      866.817
12/30/2014  11:33:00      398.066      274.048       45.824      281.926      171.356      145.277    79482.161    29362.946    21105.297       18.278        6.498      483.280       93.438        0.037      329.745       -3.327      866.822
12/30/2014  11:34:00      272.361      362.962       -5.814      208.030      202.885      136.220    43276.625    41162.307    18555.959       15.445        5.150      453.786      125.733        0.077      329.786       -3.260      866.839
12/30/2014  11:35:00      283.843      267.419       22.172      214.839      220.545      142.152    46155.666    48640.067    20207.128       13.376        5.750      389.974      125.601        0.104      329.807       -3.226      866.859
12/30/2014  11:36:00      341.374      341.360       31.234      254.091      196.936      154.279    64562.307    38783.806    23802.014       18.057        6.357      482.766      128.039        0.070      329.679       -3.434      866.848
12/30/2014  11:37:00      285.761      257.295       11.867      221.907      155.624      111.136    49242.534    24218.983    12351.187       11.689        4.291      384.526       93.031        0.059      329.788       -3.258      866.886
12/30/2014  11:38:00      123.809      206.107        7.799      128.510      149.488      109.283    16514.802    22346.737    11942.697        5.433        2.540      240.435       91.859        0.146      329.895       -3.081      866.955
12/30/2014  11:39:00      205.043      187.604       28.015      187.671      119.864       94.231    35220.292    14367.280     8879.519        6.823        2.923      277.917       64.847        0.054      329.933       -3.019      866.930
12/30/2014  11:40:00      325.111      269.566       28.378      165.129      116.569      103.707    27267.490    13588.303    10755.108       11.538        2.581      422.331       65.554        0.024      329.993       -2.922      866.934
12/30/2014  11:41:00      297.707      352.109        9.023      287.515      213.559      153.420    82664.903    45607.423    23537.544       18.222        7.590      461.097      120.645        0.068      329.784       -3.263      866.918
12/30/2014  11:42:00      274.661      265.388       18.270      220.251      170.481      140.700    48510.364    29063.747    19796.585       12.177        4.869      381.929      101.158        0.070      329.798       -3.240      866.896
12/30/2014  11:43:00      212.926      283.075       28.852      221.978      168.476      130.915    49274.389    28383.995    17138.863       11.053        4.740      354.216      101.688        0.082      329.852       -3.152      866.902
12/30/2014  11:44:00      238.109      181.211       19.227      195.655      138.418       78.048    38281.067    19159.474     6091.544        7.671        3.177      299.221       54.097        0.033      329.966       -2.965      866.880
12/30/2014  11:45:00      225.892      286.263       14.632      190.212      188.416      123.786    36180.732    35500.584    15323.032       11.008        4.350      364.656      120.575        0.109      329.913       -3.053      866.918
12/30/2014  11:46:00      220.102      273.070       29.300      194.686      214.208      171.972    37902.515    45885.253    29574.303       11.859        5.668      350.731      147.587        0.177      329.783       -3.265      866.869
12/30/2014  11:47:00      251.308      309.193       31.884      244.515      179.911      142.274    59787.682    32368.103    20241.988       13.606        5.620      398.442      100.609        0.064      329.785       -3.263      866.879
12/30/2014  11:48:00      124.848      311.490       -2.657      150.916      201.756      122.182    22775.551    40705.621    14928.549        9.550        3.920      335.579      117.411        0.122      329.876       -3.113      866.869
12/30/2014  11:49:00      190.975      307.295       11.447      202.155      221.295      120.313    40866.449    48971.421    14475.152       11.765        5.216      361.804      124.379        0.118      329.902       -3.070      866.844
12/30/2014  11:50:00      377.918      306.541       41.116      263.253      178.834      136.491    69301.885    31981.541    18629.760       17.917        5.996      486.610       78.858        0.026      329.846       -3.163      866.803
12/30/2014  11:51:00      325.203      297.315       46.687      205.096      182.645      149.427    42064.466    33359.040    22328.552       14.702        4.888      440.628      114.745        0.068      329.768       -3.290      866.808
12/30/2014  11:52:00      292.579      214.213       55.207      214.192      132.547      109.859    45878.369    17568.591    12069.018       10.501        3.776      362.615       77.155        0.045      329.924       -3.034      866.806
12/30/2014  11:53:00      245.324      263.670       14.805      219.462      171.485      113.053    48163.499    29407.146    12781.089       11.012        4.518      360.147       83.429        0.054      329.928       -3.028      866.809
12/30/2014  11:54:00      265.417      221.367       41.309      224.413      160.287      103.661    50361.377    25692.040    10745.632       10.396        4.340      345.615       84.781        0.060      330.032       -2.857      866.834
12/30/2014  11:55:00      116.833      360.008      -20.653      187.534      236.858      119.835    35168.938    56101.526    14360.364       12.464        5.282      378.491      119.186        0.099      329.847       -3.160      866.811
12/30/2014  11:56:00       82.784      382.329      -10.785      185.331      201.779      120.281    34347.642    40714.642    14467.440       12.132        4.476      391.189      129.822        0.110      329.851       -3.154      866.821
12/30/2014  11:57:00       49.278      462.983       -6.584      214.143      280.644      150.360    45857.268    78761.262    22608.265       18.200        7.361      465.598      165.397        0.126      329.800       -3.239      866.784
12/30/2014  11:58:00      125.784      335.746       -8.099      153.921      208.925      144.823    23691.636    43649.642    20973.584       10.845        4.416      358.535      127.867        0.127      329.807       -3.226      866.766
12/30/2014  11:59:00      121.438      368.059      -25.254      162.388      268.905      146.224    26369.856    72309.852    21381.516       13.543        6.003      387.576      147.815        0.145      329.851       -3.154      866.727
12/30/2014  12:00:00      229.064      200.926       36.301      155.845      140.998      114.564    24287.513    19880.446    13124.959        7.571        2.865      304.699       83.802        0.076      330.043       -2.839      866.742
12/30/2014  12:01:00      107.911      160.520       17.261      169.485      155.012       95.752    28725.241    24028.606     9168.478        4.980        3.096      193.420       77.592        0.161      330.123       -2.709      866.737
12/30/2014  12:02:00      252.028      298.522        8.118      188.442      201.099      144.502    35510.501    40440.639    20880.716       12.475        4.842      390.683      128.873        0.109      329.867       -3.128      866.720
12/30/2014  12:03:00      176.870      202.143       14.040      148.980      191.640      100.178    22195.125    36725.924    10035.630        7.064        3.448      268.598       91.442        0.116      329.928       -3.028      866.730
12/30/2014  12:04:00      226.392      180.958        7.025      192.767      138.221       85.082    37159.187    19105.053     7238.980        7.376        3.175      289.826       59.697        0.042      330.001       -2.909      866.736
12/30/2014  12:05:00      278.115      220.283       37.821      212.326      142.506      112.933    45082.495    20307.858    12753.821       10.271        3.907      354.785       66.489        0.035      329.926       -3.031      866.768
12/30/2014  12:06:00      278.899      300.787       25.893      227.051      173.246      141.986    51552.141    30014.007    20160.003       13.531        5.086      410.192      111.778        0.074      329.845       -3.165      866.766
12/30/2014  12:07:00      237.084      164.750       22.315      168.110      104.578       88.883    28260.826    10936.590     7900.107        6.546        2.355      288.707       57.437        0.040      329.999       -2.911      866.774
12/30/2014  12:08:00      367.763      342.085        5.685      246.834      218.588      142.302    60926.868    47780.522    20249.757       19.060        6.448      502.267      123.951        0.061      329.861       -3.138      866.796
12/30/2014  12:09:00      237.745      334.678        1.721      203.744      215.589      170.322    41511.503    46478.421    29009.748       14.274        5.850      410.526      145.665        0.126      329.785       -3.262      866.790
12/30/2014  12:10:00      242.778      271.604        4.333      193.102      201.740      116.421    37288.243    40699.226    13553.780       11.212        4.577      364.294      102.993        0.080      329.819       -3.207      866.810
12/30/2014  12:11:00      132.681      341.017      -21.668      158.287      228.379      128.120    25054.861    52156.977    16414.639       11.398        4.681      365.919      119.683        0.107      329.895       -3.083      866.834
12/30/2014  12:12:00      285.613      334.870        3.013      245.575      189.102      140.877    60307.185    35759.581    19846.443       15.479        5.796      440.128      112.365        0.065      329.818       -3.207      866.825
12/30/2014  12:13:00      229.053      384.132      -30.383      244.520      189.195      137.398    59790.237    35794.716    18878.192       15.768        5.723      447.239      108.598        0.059      329.777       -3.275      866.802
12/30/2014  12:14:00      292.044      196.188       31.129      244.912      162.202      116.205    59981.833    26309.361    13503.491       11.225        4.990      351.823       63.353        0.032      329.771       -3.285      866.801
12/30/2014  12:15:00      401.292      296.920       52.500      220.929      157.629      128.882    48809.603    24846.815    16610.603       17.109        4.513      499.196       74.052        0.022      329.708       -3.388      866.770
12/30/2014  12:16:00      422.497      321.929       43.807      225.021      160.476      130.614    50634.292    25752.594    17060.082       18.874        4.672      531.170       97.313        0.034      329.723       -3.364      866.774
12/30/2014  12:17:00      312.557      250.774       25.647      184.828      156.211      107.003    34161.512    24402.028    11449.620       11.561        3.501      400.724       58.516        0.021      329.876       -3.113      866.803
12/30/2014  12:18:00      420.971      232.718       31.475      217.627      140.980      113.030    47361.512    19875.378    12775.718       15.617        4.001      481.014       68.745        0.020      329.895       -3.082      866.759
12/30/2014  12:19:00      165.861      117.816       23.470      146.240      109.954       88.938    21386.127    12089.890     7909.942        4.166        2.069      203.447       72.118        0.126      330.006       -2.900      866.788
12/30/2014  12:20:00      137.431      264.288      -14.354      154.969      200.891      102.026    24015.521    40357.334    10409.402        8.185        3.739      297.885      108.448        0.133      330.042       -2.842      866.810
12/30/2014  12:21:00      188.050      242.142       13.414      217.295      176.311      123.524    47217.306    31085.393    15258.075        9.385        4.678      306.587      106.847        0.121      329.878       -3.111      866.779
12/30/2014  12:22:00      222.891      376.136      -25.157      198.763      277.459      145.146    39506.556    76983.489    21067.407       16.465        6.878      437.217      151.066        0.119      329.777       -3.276      866.789
12/30/2014  12:23:00      136.563      267.803       -5.921      165.864      153.053       90.778    27510.751    23425.333     8240.720        7.478        2.959      300.613       71.732        0.057      329.971       -2.958      866.767
12/30/2014  12:24:00      197.019      293.713      -15.110      158.983      171.836      101.727    25275.593    29527.519    10348.325        9.522        3.258      353.671       87.105        0.061      329.964       -2.970      866.769
12/30/2014  12:25:00      160.609      294.986        2.754      198.593      216.381      137.568    39439.102    46820.690    18925.023       10.898        5.259      335.875      127.259        0.144      329.865       -3.132      866.709
12/30/2014  12:26:00       85.746      323.587       -9.231      151.145      228.636      120.078    22844.790    52274.199    14418.780       10.082        4.477      334.755      128.760        0.148      329.939       -3.010      866.699
12/30/2014  12:27:00       93.575      244.720      -35.159       97.928      155.054       84.708     9589.866    24041.702     7175.440        5.534        2.040      262.000       80.639        0.095      330.054       -2.822      866.674
12/30/2014  12:28:00      238.757      232.330       19.826      215.598      132.762      110.936    46482.544    17625.672    12306.825        9.388        3.821      333.140       73.572        0.049      330.075       -2.787      866.658
12/30/2014  12:29:00      395.268      255.196       46.819      145.444      122.265       95.076    21153.952    14948.784     9039.470       13.434        2.257      470.491       60.177        0.016      329.940       -3.007      866.623
12/30/2014  12:30:00      416.121      270.078       38.090      204.357      141.869      115.673    41761.794    20126.735    13380.155       16.139        3.763      496.084       65.593        0.017      329.919       -3.043      866.615
12/30/2014  12:31:00      289.244      340.522       25.617      270.357      262.485      181.722    73093.124    68898.243    33022.834       18.761        8.751      446.785      168.735        0.143      329.850       -3.155      866.623
12/30/2014  12:32:00      270.135      287.576       26.316      250.495      257.827      131.399    62747.821    66475.018    17265.708       15.140        7.324      394.554      129.030        0.107      329.828       -3.192      866.554
12/30/2014  12:33:00      196.571      321.874       16.520      223.956      233.666      146.271    50156.307    54599.590    21395.141       13.431        6.308      377.151      134.338        0.127      329.781       -3.269      866.604
12/30/2014  12:34:00      170.819      354.201       -4.019      187.615      203.470      149.787    35199.255    41400.061    22436.259       12.683        4.952      393.240      134.930        0.118      329.833       -3.183      866.573
12/30/2014  12:35:00      221.559      234.506       15.154      222.942      169.946      110.776    49702.995    28881.653    12271.349        9.757        4.543      322.617      102.447        0.101      329.958       -2.977      866.554
12/30/2014  12:36:00      241.825      173.449       23.618      146.189      103.213       80.491    21371.292    10652.990     6478.788        6.380        1.925      297.596       53.028        0.032      330.144       -2.674      866.542
12/30/2014  12:37:00      294.065      196.436       35.886      164.590      112.618      105.790    27089.879    12682.883    11191.580        8.865        2.548      353.640       60.278        0.029      330.123       -2.710      866.539
12/30/2014  12:38:00      204.043      155.921       18.389      169.838      113.658       79.812    28845.100    12918.211     6370.020        5.720        2.407      256.797       56.152        0.048      330.267       -2.471      866.556
12/30/2014  12:39:00      202.046      258.557       66.672      205.720      183.094      158.114    42320.916    33523.514    25000.067       10.646        5.042      328.138      106.340        0.105      330.060       -2.812      866.487
12/30/2014  12:40:00      193.223      145.322       58.489      210.498      134.659      121.072    44309.614    18133.103    14658.490        6.947        3.855      241.772       67.230        0.077      330.097       -2.749      866.493
12/30/2014  12:41:00      308.543      244.357       51.954      223.784      151.572      116.055    50079.415    22974.088    13468.772       12.205        4.326      393.585       80.676        0.042      330.009       -2.896      866.477
12/30/2014  12:42:00      278.156      222.575       47.440      188.384      154.301      104.837    35488.474    23808.686    10990.746        9.971        3.514      356.245       52.267        0.022      330.033       -2.856      866.454
12/30/2014  12:43:00      280.434      182.317       55.112      142.727      115.517       90.611    20370.942    13344.188     8210.385        7.841        2.096      334.489       53.441        0.026      330.046       -2.837      866.473
12/30/2014  12:44:00      401.651      299.743       56.375      205.505      158.911      124.441    42232.456    25252.667    15485.590       16.864        4.149      501.168       90.364        0.033      329.965       -2.967      866.415
12/30/2014  12:45:00      447.198      330.310       47.620      207.913      153.021      128.411    43227.975    23415.473    16489.506       19.723        4.157      555.960       85.040        0.023      329.874       -3.116      866.428
12/30/2014  12:46:00      279.635      233.404       17.159      245.629      173.261       94.298    60333.827    30019.302     8892.151       11.609        4.962      364.243       77.390        0.045      330.108       -2.733      866.476
12/30/2014  12:47:00      506.427      317.317       56.691      236.406      160.740      143.461    55887.622    25837.389    20580.974       23.132        5.115      597.627       72.993        0.015      329.895       -3.081      866.414
12/30/2014  12:48:00      316.581      303.219       34.101      280.049      199.265      129.770    78427.340    39706.350    16840.238       16.412        6.749      438.367      102.675        0.055      329.961       -2.974      866.415
12/30/2014  12:49:00      398.946      321.915       37.216      287.767      184.079      125.807    82809.985    33885.104    15827.278       19.832        6.626      512.628       83.138        0.026      329.985       -2.934      866.411
12/30/2014  12:50:00      348.868      286.233       16.802      217.134      178.903      145.548    47147.272    32006.252    21184.322       15.211        5.017      451.263       97.161        0.046      329.926       -3.033      866.410
12/30/2014  12:51:00      365.211      249.059       46.537      180.382      136.258      118.922    32537.551    18566.241    14142.530       13.140        3.262      442.052       89.606        0.041      329.915       -3.050      866.438
12/30/2014  12:52:00      334.123      256.119       25.621      238.280      162.134      133.237    56777.357    26287.448    17752.151       13.933        5.041      420.993       86.533        0.042      329.977       -2.948      866.420
12/30/2014  12:53:00      421.133      299.329       49.293      212.851      147.805      130.719    45305.662    21846.227    17087.457       17.679        4.212      516.674       78.471        0.023      329.942       -3.006      866.453
12/30/2014  12:54:00      436.796      319.915       51.270      226.365      179.556      139.523    51241.231    32240.264    19466.610       19.934        5.147      541.421       91.362        0.028      329.827       -3.193      866.467
12/30/2014  12:55:00      244.456      227.828       29.820      190.695      158.577      119.976    36364.761    25146.628    14394.222        9.421        3.795      334.163       82.198        0.061      329.930       -3.026      866.470
12/30/2014  12:56:00      297.430      219.161       28.513      185.454      133.106      112.858    34393.154    17717.158    12736.995       10.106        3.242      369.453       53.510        0.021      329.952       -2.988      866.476
12/30/2014  12:57:00      224.626      181.093        8.857      187.556      120.350       92.316    35177.242    14484.241     8522.268        7.075        2.909      288.533       67.112        0.054      330.111       -2.728      866.458
12/30/2014  12:58:00      295.966      232.496       43.527      216.761      166.655      121.053    46985.273    27773.990    14653.898       11.646        4.471      376.365       97.758        0.067      330.005       -2.901      866.486
12/30/2014  12:59:00      141.404      151.890       27.917      167.639      136.518       98.765    28102.972    18637.161     9754.529        5.016        2.825      207.522       63.401        0.093      330.115       -2.722      866.484
12/30/2014  13:00:00      275.483      275.283        1.925      193.260      160.217      125.606    37349.568    25669.645    15776.901       11.522        3.940      389.450       93.503        0.058      329.962       -2.972      866.475
12/30/2014  13:01:00      158.626      213.952        8.729      138.313      140.314      107.044    19130.593    19688.149    11458.323        6.064        2.514      266.341       77.854        0.085      329.975       -2.951      866.465
12/30/2014  13:02:00      268.964      211.756       29.832      154.704      118.472       98.696    23933.207    14035.545     9740.900        8.288        2.385      342.319       49.680        0.021      330.010       -2.895      866.464
12/30/2014  13:03:00      293.289      212.261       38.818      194.560      147.283      110.784    37853.721    21692.239    12273.136       10.219        3.591      362.040       78.575        0.047      330.001       -2.909      866.444
12/30/2014  13:04:00      287.167      210.234       21.455      159.163      123.310      100.082    25332.957    15205.467    10016.401        8.883        2.528      355.897       57.801        0.026      329.985       -2.936      866.442
12/30/2014  13:05:00      189.768      236.395        8.951      130.984      136.943       98.007    17156.908    18753.479     9605.287        6.874        2.276      303.141       91.370        0.091      330.080       -2.779      866.447
12/30/2014  13:06:00      203.402      248.501       -9.300      226.571      147.382      100.678    51334.240    21721.427    10135.998        9.318        4.160      321.131       87.416        0.074      330.051       -2.828      866.434
12/30/2014  13:07:00      115.161      361.019      -29.536      130.584      227.514      106.200    17052.089    51762.746    11278.445       11.227        4.005      378.942      108.741        0.082      330.049       -2.830      866.459
12/30/2014  13:08:00       64.921      243.127       -0.897       92.829      174.153       97.094     8617.288    30329.346     9427.203        5.584        2.419      251.646       98.656        0.154      330.141       -2.678      866.426
12/30/2014  13:09:00       81.063      319.581      -39.409      121.700      193.039      106.075    14810.915    37263.961    11251.943        8.678        3.166      329.702      113.000        0.117      330.130       -2.697      866.396
12/30/2014  13:10:00      119.370      127.471        0.484      114.754       93.699       58.607    13168.548     8779.555     3434.821        2.794        1.269      174.637       43.599        0.062      330.297       -2.422      866.412
12/30/2014  13:11:00       78.191      278.472      -29.104      140.599      170.154       79.035    19768.075    28952.235     6246.495        6.973        2.748      289.241       85.239        0.087      330.249       -2.502      866.427
12/30/2014  13:12:00      273.923      256.955       -1.241      207.196      158.400      108.477    42930.341    25090.501    11767.228       11.041        3.989      375.579       85.032        0.051      330.130       -2.696      866.416
12/30/2014  13:13:00      223.207      180.853       30.998      274.832      125.465      105.952    75532.681    15741.537    11225.922        9.297        5.125      287.279       30.138        0.011      330.215       -2.557      866.346
12/30/2014  13:14:00      337.985      236.673       55.017      195.273      126.271      123.529    38131.640    15944.307    15259.371       12.129        3.467      412.611       73.679        0.032      330.023       -2.872      866.318
12/30/2014  13:15:00      182.285      230.877      -12.270      164.231      149.779      102.211    26971.821    22433.741    10447.157        7.326        2.993      294.163       89.820        0.093      329.945       -3.000      866.317
12/30/2014  13:16:00      249.188      159.234       32.946      177.203      101.884       91.449    31400.913    10380.335     8362.878        6.933        2.507      295.720       34.282        0.013      330.098       -2.751      866.291
12/30/2014  13:17:00      143.139      129.244       38.599      201.407      130.919       95.291    40564.588    17139.798     9080.340        5.272        3.339      192.855       61.084        0.100      330.292       -2.430      866.276
12/30/2014  13:18:00      195.796      286.918       -2.639      196.992      185.840      123.627    38805.657    34536.412    15283.750       10.463        4.431      347.359      113.521        0.107      330.026       -2.868      866.305
12/30/2014  13:19:00      237.050      209.365       21.552      175.870      122.523      111.437    30930.152    15011.922    12418.272        7.941        2.918      316.269       73.783        0.054      330.078       -2.782      866.304
12/30/2014  13:20:00      256.776      305.683        5.036      210.298      163.598      128.345    44225.422    26764.150    16472.393       12.341        4.373      399.219      101.930        0.065      330.063       -2.805      866.297
12/30/2014  13:21:00      278.771      270.972       31.751      237.410      179.786      162.803    56363.604    32323.031    26504.773       13.365        5.760      388.766      115.467        0.088      329.993       -2.923      866.274
12/30/2014  13:22:00      220.301      301.879       19.133      187.134      161.448      121.851    35019.139    26065.504    14847.762       10.797        3.797      373.716       97.325        0.068      330.066       -2.803      866.294
12/30/2014  13:23:00      201.418      309.403        0.996      197.736      186.239      143.027    39099.375    34685.066    20456.862       11.525        4.712      369.187      131.188        0.126      330.028       -2.864      866.284
12/30/2014  13:24:00      186.350      330.126       19.279      209.177      242.271      157.698    43755.086    58695.386    24868.805       13.567        6.366      379.090      134.879        0.127      329.996       -2.917      866.264
12/30/2014  13:25:00      220.120      205.140       20.223      138.798      132.718      112.182    19264.767    17614.077    12584.788        7.019        2.473      300.890       73.566        0.060      330.149       -2.665      866.300
12/30/2014  13:26:00      208.141      254.477       31.753      187.418      195.682      157.133    35125.439    38291.544    24690.632       10.358        4.905      328.757      130.912        0.159      330.034       -2.854      866.304
12/30/2014  13:27:00      218.627      248.060       17.647      217.727      158.258      139.272    47405.243    25045.523    19396.760       10.073        4.592      330.654      101.170        0.094      330.007       -2.899      866.270
12/30/2014  13:28:00      150.422      315.142        2.535      187.441      192.175      123.395    35134.047    36931.252    15226.285       10.460        4.365      349.201      120.725        0.120      330.068       -2.798      866.321
12/30/2014  13:29:00      156.695      235.344        3.931      159.827      163.521      124.202    25544.703    26739.020    15426.199        7.382        3.385      282.737      110.363        0.152      330.133       -2.693      866.301
12/30/2014  13:30:00      238.439      298.011       -0.451      206.712      210.160      133.085    42729.764    44167.342    17711.572       12.512        5.230      381.659      120.528        0.100      330.033       -2.855      866.290
12/30/2014  13:31:00      106.286      337.733      -27.923      131.432      235.852      112.357    17274.424    55626.124    12624.183       10.581        4.276      354.063      115.304        0.106      330.155       -2.657      866.329
12/30/2014  13:32:00      103.976      102.137       14.150      116.173       89.961       80.619    13496.086     8093.035     6499.483        2.476        1.404      145.750       61.503        0.178      330.380       -2.285      866.335
12/30/2014  13:33:00      154.942      136.366       30.523      149.853      129.410       93.019    22456.000    16747.076     8652.583        4.569        2.393      206.404       49.958        0.059      330.377       -2.291      866.325
12/30/2014  13:34:00      370.240      343.123        5.919      224.125      182.748      147.718    50232.181    33396.911    21820.488       18.013        5.272      504.788      114.799        0.052      330.070       -2.794      866.303
12/30/2014  13:35:00      236.096      243.227       -6.711      235.293      200.528      115.433    55362.742    40211.496    13324.791       11.190        5.445      338.970       93.276        0.076      330.137       -2.684      866.297
12/30/2014  13:36:00      147.813      217.521      -13.675      143.332      131.108       86.858    20543.987    17189.437     7544.369        5.731        2.264      262.990       75.036        0.081      330.248       -2.505      866.323
12/30/2014  13:37:00      195.794      299.209       -7.058      186.048      185.246      130.037    34614.039    34316.254    16909.652       10.686        4.292      357.577      114.761        0.103      330.140       -2.681      866.296
12/30/2014  13:38:00      103.407      228.755        3.104      139.382      170.259      104.641    19427.307    28988.176    10949.654        6.119        2.968      251.042       95.814        0.146      330.354       -2.329      866.308
12/30/2014  13:39:00      176.514      281.290        9.014      164.650      215.787      114.464    27109.742    46563.907    13102.010        9.855        4.339      332.087      105.375        0.101      330.183       -2.609      866.348
12/30/2014  13:40:00      228.544      275.637       13.499      215.780      173.167      141.597    46560.900    29986.721    20049.633       11.247        4.830      358.062      110.839        0.096      330.092       -2.760      866.335
12/30/2014  13:41:00      281.291      289.180       16.735      240.019      187.837      141.065    57609.141    35282.553    19899.204       13.789        5.640      403.423      101.332        0.063      330.051       -2.826      866.303
12/30/2014  13:42:00      283.894      283.805       30.579      243.582      160.501      124.811    59331.949    25760.520    15577.767       13.135        5.034      401.424       96.845        0.058      330.004       -2.903      866.334
12/30/2014  13:43:00      341.116      283.601       44.590      207.321      170.860      121.892    42982.096    29193.184    14857.640       14.289        4.352      443.610       79.637        0.032      330.037       -2.850      866.326
12/30/2014  13:44:00      353.819      270.056       44.315      234.594      140.111      121.375    55034.166    19631.067    14731.909       14.472        4.470      445.105       61.606        0.019      329.999       -2.913      866.268
12/30/2014  13:45:00      271.743      285.971       29.603      206.635      236.272      126.774    42697.982    55824.664    16071.521       13.552        5.730      394.492      114.000        0.084      330.012       -2.890      866.269
12/30/2014  13:46:00       83.881      321.221      -28.023      147.214      250.515      129.129    21672.047    62757.650    16674.202       10.603        5.055      331.992      135.282        0.166      330.084       -2.772      866.277
12/30/2014  13:47:00      141.893      335.518      -22.724      193.177      212.098      138.518    37317.433    44985.761    19187.362       11.734        5.075      364.288      132.590        0.132      330.090       -2.763      866.254
12/30/2014  13:48:00       94.284      202.463        3.978      138.936      161.075      112.636    19303.143    25945.218    12686.930        5.390        2.897      223.340       92.829        0.173      330.149       -2.666      866.253
12/30/2014  13:49:00      168.289      299.479        2.781      199.090      230.579      146.796    39636.914    53166.680    21548.994       11.616        5.718      343.524      141.816        0.170      330.131       -2.696      866.239
12/30/2014  13:50:00      167.643      333.529       -2.992      178.221      207.507      142.721    31762.559    43059.213    20369.258       11.725        4.760      373.290      136.160        0.133      330.067       -2.800      866.222
12/30/2014  13:51:00      138.189      298.984       10.956      203.311      235.127      139.340    41335.529    55284.664    19415.662       11.230        5.802      329.375      137.912        0.175      330.168       -2.636      866.234
12/30/2014  13:52:00      233.576      226.575       16.093      197.520      162.231      122.011    39014.083    26319.028    14886.763        9.317        4.011      325.413      106.520        0.107      330.264       -2.477      866.218
12/30/2014  13:53:00      156.713      283.275        1.561      182.090      203.166      112.947    33156.653    41276.309    12757.010        9.598        4.359      323.734      120.592        0.139      330.207       -2.572      866.231
12/30/2014  13:54:00      173.195      302.899        2.147      198.327      195.520      137.093    39333.601    38227.887    18794.440       10.903        4.818      348.918      115.940        0.110      330.129       -2.698      866.210
12/30/2014  13:55:00      274.688      412.534      -30.227      235.542      233.235      139.273    55480.009    54398.444    19397.105       18.789        6.464      495.618      130.831        0.070      330.092       -2.760      866.218
12/30/2014  13:56:00      249.447      347.933        9.681      206.651      215.116      162.179    42704.549    46274.978    26301.886       14.930        5.764      428.113      142.139        0.110      330.049       -2.831      866.221
12/30/2014  13:57:00      189.044      492.945      -31.709      211.833      329.865      181.078    44873.201   108810.652    32789.386       23.307        9.324      527.951      188.024        0.127      329.972       -2.956      866.199
12/30/2014  13:58:00      228.253      429.556       -8.960      228.684      243.112      186.593    52296.196    59103.676    34817.077       19.143        7.311      486.434      166.406        0.117      329.937       -3.013      866.183
12/30/2014  13:59:00      141.114      365.920        4.355      203.534      210.115      147.420    41426.133    44148.238    21732.530       13.055        5.365      392.187      150.682        0.148      330.076       -2.786      866.230
12/30/2014  14:00:00      240.178      250.270       24.483      227.166      187.027      137.460    51604.485    34979.208    18895.240       11.318        5.274      346.872      109.661        0.100      330.051       -2.826      866.212
12/30/2014  14:01:00      203.379      246.264        0.982      179.300      156.743      118.157    32148.651    24568.260    13961.194        8.633        3.534      319.388       84.326        0.070      330.163       -2.643      866.258
12/30/2014  14:02:00      205.201      334.111       10.677      217.480      218.176      147.574    47297.402    47600.946    21778.166       13.524        5.834      392.094      134.713        0.118      330.058       -2.815      866.261
12/30/2014  14:03:00      171.114      355.838      -11.516      189.102      225.689      155.648    35759.438    50935.617    24226.261       13.346        5.546      394.842      143.231        0.132      329.952       -2.988      866.268
12/30/2014  14:04:00      173.692      376.516        4.609      221.073      236.877      164.479    48873.283    56110.576    27053.280       15.197        6.602      414.649      153.087        0.136      329.980       -2.942      866.268
12/30/2014  14:05:00      116.416      318.762      -16.134      163.690      255.333      128.002    26794.320    65194.914    16384.579       11.188        5.419      339.356      129.883        0.146      330.073       -2.791      866.311
12/30/2014  14:06:00      113.648      395.408      -12.466      166.129      227.687      141.280    27598.790    51841.444    19960.118       13.439        4.970      411.417      134.026        0.106      330.131       -2.697      866.330
12/30/2014  14:07:00      307.000      249.851       26.742      209.311      147.391      111.258    43811.251    21724.232    12378.417       11.764        3.896      395.821       89.602        0.051      330.258       -2.489      866.341
12/30/2014  14:08:00      330.661      248.040       32.265      226.674      156.800      134.512    51381.327    24586.369    18093.398       13.296        4.703      413.353       86.231        0.044      330.112       -2.727      866.332
12/30/2014  14:09:00      243.966      266.660       31.590      245.771      171.408      150.612    60403.348    29380.831    22683.968       12.202        5.623      361.423      116.649        0.104      330.089       -2.765      866.338
12/30/2014  14:10:00      433.915      380.402       45.909      303.560      200.742      171.956    92148.576    40297.362    29568.928       24.852        8.101      577.051      117.949        0.042      329.964       -2.970      866.307
12/30/2014  14:11:00      420.302      321.596       17.056      238.759      186.470      144.364    57006.012    34771.197    20840.961       19.647        5.631      529.224       90.286        0.029      329.954       -2.987      866.310
12/30/2014  14:12:00      123.011      293.957      -21.051      154.748      187.332      107.087    23947.070    35093.268    11467.728        8.623        3.525      318.657      103.107        0.105      330.134       -2.692      866.379
12/30/2014  14:13:00      246.558      240.703       28.560      174.241      145.433      120.838    30360.057    21150.681    14601.896        9.282        3.306      344.570       89.426        0.067      330.199       -2.584      866.349
12/30/2014  14:14:00       62.679      291.348        2.207      160.146      289.068      127.813    25646.762    83560.023    16336.192       10.715        6.277      298.014      142.289        0.228      330.225       -2.540      866.390
12/30/2014  14:15:00      122.092      467.452      -42.690      187.751      303.261      154.823    35250.539    91967.102    23970.010       19.318        7.559      483.134      176.604        0.134      330.122       -2.710      866.382
12/30/2014  14:16:00      118.314      384.991      -13.512      155.103      293.955      146.048    24057.050    86409.378    21330.061       14.707        6.590      402.761      168.787        0.176      330.051       -2.827      866.384
12/30/2014  14:17:00      205.252      319.604        5.395      217.297      216.033      141.484    47217.899    46670.213    20017.662       12.908        5.695      379.836      127.107        0.112      330.053       -2.825      866.394
12/30/2014  14:18:00      292.293      342.446       28.328      233.210      218.173      172.223    54386.935    47599.584    29660.621       16.755        6.582      450.227      140.578        0.097      330.070       -2.797      866.397
12/30/2014  14:19:00      170.301      393.056       -9.546      216.329      273.001      176.377    46798.300    74529.605    31108.725       16.798        7.622      428.364      172.456        0.162      329.960       -2.977      866.395
12/30/2014  14:20:00      132.484      355.788       11.583      206.944      213.531      137.352    42826.007    45595.277    18865.548       12.576        5.364      379.654      114.131        0.090      330.032       -2.858      866.414
12/30/2014  14:21:00      252.342      211.696       32.883      194.323      136.965       96.518    37761.612    18759.378     9315.814        8.769        3.292      329.381       63.585        0.037      330.127       -2.703      866.398
12/30/2014  14:22:00      116.452      525.313      -59.314      142.830      246.220      134.125    20400.335    60624.490    17989.612       19.600        4.951      538.066      146.772        0.074      330.051       -2.827      866.442
12/30/2014  14:23:00      210.202      336.067       -5.756      201.061      241.272      139.118    40425.708    58212.339    19353.817       13.755        5.900      396.392      129.399        0.107      330.070       -2.796      866.451
12/30/2014  14:24:00       90.470      315.076      -19.922      112.101      217.114      117.545    12566.707    47138.370    13816.814        9.067        3.676      327.807      118.541        0.131      330.191       -2.597      866.488
12/30/2014  14:25:00       91.544      377.899       -5.682      184.537      288.146      116.073    34053.982    83028.259    13472.877       14.086        6.528      388.829      119.407        0.094      330.164       -2.641      866.509
12/30/2014  14:26:00       87.728      733.912      -91.436      173.884      327.719      132.030    30235.563   107399.904    17431.921       35.484        7.753      739.137      166.477        0.051      329.917       -3.047      866.501
12/30/2014  14:27:00      325.623      285.387       13.994      253.457      169.879      128.657    64240.524    28858.981    16552.532       14.864        5.483      432.985       98.653        0.052      330.129       -2.700      866.487
12/30/2014  14:28:00       97.240      381.512      -27.828      150.887      263.670      132.520    22766.917    69522.123    17561.635       13.279        5.493      393.709      136.494        0.120      330.123       -2.708      866.534
12/30/2014  14:29:00      107.452      442.102       -0.456      189.860      302.449      172.011    36046.892    91475.247    29587.845       18.202        7.855      454.973      189.318        0.173      329.998       -2.913      866.522
12/30/2014  14:30:00      117.907      536.892      -61.410      168.428      309.551      141.873    28368.097    95821.732    20128.049       22.509        7.216      549.686      152.847        0.077      329.920       -3.042      866.533
12/30/2014  14:31:00      210.999      314.850        5.345      200.356      246.006      142.248    40142.506    60518.774    20234.404       13.226        6.045      379.013      143.007        0.142      330.016       -2.883      866.521
12/30/2014  14:32:00      116.440      342.158      -24.454      147.779      234.914      121.373    21838.605    55184.458    14731.293       11.147        4.588      361.428      128.108        0.126      330.024       -2.871      866.495
12/30/2014  14:33:00      124.017      356.727        7.297      174.118      270.545      158.733    30317.186    73194.700    25196.250       13.567        6.435      377.669      162.891        0.186      330.023       -2.872      866.534
12/30/2014  14:34:00       98.443      483.567      -69.879      163.196      289.816      131.278    26632.979    83993.207    17233.833       18.811        6.393      493.486      145.461        0.087      329.974       -2.953      866.541
12/30/2014  14:35:00       78.515      644.557      -79.005      135.613      249.164      123.505    18390.940    62082.918    15253.533       26.177        4.786      649.321      136.876        0.044      329.870       -3.123      866.536
12/30/2014  14:36:00       78.350      429.784      -14.583      141.410      252.876      143.335    19996.833    63946.518    20545.005       14.776        5.224      436.867      144.060        0.109      329.974       -2.952      866.532
12/30/2014  14:37:00      140.071      400.825      -45.203      180.607      236.128      143.927    32618.904    55756.311    20715.123       14.569        5.455      424.595      140.251        0.109      329.969       -2.962      866.537
12/30/2014  14:38:00      169.390      354.033        8.696      199.251      240.182      156.833    39700.807    57687.586    24596.494       13.802        6.099      392.470      147.294        0.141      329.889       -3.091      866.504
12/30/2014  14:39:00       69.450      244.452      -11.612      104.392      224.826      100.838    10897.657    50546.795    10168.391        6.815        3.581      254.126      112.003        0.194      330.085       -2.771      866.518
12/30/2014  14:40:00      136.002      427.901      -19.503      161.969      321.740      147.438    26234.079   103516.469    21737.848       17.670        7.574      448.994      172.928        0.148      330.107       -2.736      866.526
12/30/2014  14:41:00       53.559      445.044      -29.741      150.675      289.101      134.280    22702.966    83579.498    18031.182       16.304        6.216      448.256      160.219        0.128      330.107       -2.734      866.554
12/30/2014  14:42:00      116.453      301.234       -7.328      158.865      212.344      135.370    25238.222    45089.940    18325.033        9.649        4.433      322.960      122.301        0.143      330.069       -2.799      866.570
12/30/2014  14:43:00       66.945      362.374       -8.715      138.987      250.707      114.211    19317.435    62853.781    13044.052       11.552        4.761      368.506      118.312        0.103      330.054       -2.821      866.583
12/30/2014  14:44:00      107.904      418.170       -8.253      171.907      301.260      159.339    29552.116    90757.769    25389.057       16.611        7.285      431.868      168.815        0.153      330.017       -2.883      866.592
12/30/2014  14:45:00      152.181      367.836      -16.676      203.002      240.461      154.807    41209.852    57821.530    23965.310       14.084        6.150      398.074      145.199        0.133      330.020       -2.877      866.601
12/30/2014  14:46:00       96.284      483.208      -36.558      180.503      306.155      158.938    32581.494    93730.894    25261.222       19.781        7.579      492.707      174.503        0.125      329.982       -2.940      866.599
12/30/2014  14:47:00      167.877      284.225       30.506      201.911      212.207      153.330    40767.985    45031.913    23509.942       10.958        5.465      330.101      133.830        0.164      330.008       -2.897      866.591
12/30/2014  14:48:00      342.097      323.623       30.654      273.348      201.109      135.757    74718.920    40444.856    18429.857       17.812        6.680      470.916      100.024        0.045      330.027       -2.866      866.602
12/30/2014  14:49:00      322.862      267.341       17.814      183.545      150.923      124.755    33688.897    22777.628    15563.717       12.401        3.602      419.179      101.032        0.058      330.047       -2.833      866.627
12/30/2014  14:50:00      251.277      269.210       14.631      235.938      184.375      142.511    55666.653    33994.245    20309.308       12.288        5.499      368.259      111.452        0.092      330.039       -2.846      866.649
12/30/2014  14:51:00      125.782      375.008      -15.128      165.067      287.511      129.185    27247.108    82662.462    16688.725       14.161        6.330      395.540      147.896        0.140      330.064       -2.806      866.674
12/30/2014  14:52:00      191.572      412.708      -35.317      202.604      243.410      151.316    41048.577    59248.615    22896.562       16.571        6.160      455.003      141.186        0.096      329.999       -2.912      866.694
12/30/2014  14:53:00      164.167      253.698        4.057      196.075      177.075      129.906    38445.492    31355.601    16875.593        8.899        4.334      302.182      107.005        0.125      330.076       -2.787      866.708
12/30/2014  14:54:00      132.513      313.798      -12.436      175.691      227.503      127.578    30867.324    51757.776    16276.240       10.752        4.945      340.630      132.373        0.151      330.005       -2.901      866.715
12/30/2014  14:55:00      187.138      303.927       -3.588      186.543      184.962      134.511    34798.410    34210.999    18093.097       10.724        4.355      356.921      126.535        0.126      330.043       -2.841      866.721
12/30/2014  14:56:00      226.341      341.828       -0.547      200.087      207.940      124.321    40034.778    43239.135    15455.728       13.338        4.936      409.971      118.156        0.083      330.014       -2.888      866.719
12/30/2014  14:57:00      234.143      390.405       -2.209      189.764      220.723      152.677    36010.189    48718.634    23310.173       15.762        5.402      455.235      131.374        0.083      329.963       -2.970      866.730
12/30/2014  14:58:00      179.842      290.078       -1.145      212.812      233.926      112.965    45288.793    54721.522    12761.059       11.461        5.639      341.304      116.692        0.117      329.994       -2.919      866.723
12/30/2014  14:59:00      179.125      298.461       10.525      192.672      243.038      149.170    37122.498    59067.709    22251.610       11.984        5.922      348.088      129.827        0.139      329.992       -2.923      866.739
12/30/2014  15:00:00      265.724      334.797       -0.477      266.963      209.021      136.925    71269.078    43689.962    18748.513       15.818        6.685      427.432      107.441        0.063      329.954       -2.985      866.750
12/30/2014  15:01:00       98.787      292.257        8.442      159.190      188.805      135.966    25341.532    35647.461    18486.719        8.734        3.974      308.502      120.783        0.153      329.995       -2.919      866.786
12/30/2014  15:02:00      128.345      352.826      -25.322      162.541      285.208      131.932    26419.478    81343.626    17405.982       13.336        6.258      375.444      147.488        0.154      329.991       -2.925      866.824
12/30/2014  15:03:00      142.486      252.720       14.539      187.228      180.800      149.344    35054.462    32688.599    22303.526        8.720        4.502      290.120      110.966        0.146      329.981       -2.942      866.836
12/30/2014  15:04:00      145.386      325.159       -4.624      206.191      225.193      128.836    42514.907    50711.779    16598.696       11.833        5.491      356.182      117.936        0.110      329.976       -2.948      866.824
12/30/2014  15:05:00      172.423      255.291        3.114      187.928      173.557      113.415    35316.935    30122.047    12862.993        8.659        3.915      308.064      102.106        0.110      330.033       -2.857      866.829
12/30/2014  15:06:00      264.572      293.531       -0.655      212.621      190.882      133.797    45207.773    36435.958    17901.552       12.783        4.977      395.169      109.030        0.076      330.023       -2.874      866.822
12/30/2014  15:07:00      140.652      427.791      -53.127      177.619      255.102      129.015    31548.537    65076.920    16644.887       15.942        5.664      450.321      130.038        0.083      329.991       -2.925      866.854
12/30/2014  15:08:00      140.208      313.941      -20.223      161.992      200.370      120.359    26241.415    40148.186    14486.377        9.973        4.044      343.827      115.479        0.113      330.060       -2.812      866.838
12/30/2014  15:09:00      159.577      250.291      -18.079      142.166      168.859      116.368    20211.147    28513.476    13541.456        7.534        3.113      296.834       94.274        0.101      330.071       -2.794      866.850
12/30/2014  15:10:00      110.299      379.562      -14.337      165.592      230.424      120.894    27420.711    53095.169    14615.299       12.577        4.757      395.264      135.112        0.117      330.111       -2.729      866.877
12/30/2014  15:11:00      118.329      240.633       -0.378      164.155      171.327      107.659    26946.823    29352.911    11590.438        6.988        3.395      268.152      100.718        0.141      330.152       -2.660      866.899
12/30/2014  15:12:00      208.991      373.087       -5.189      214.436      237.335      151.382    45982.949    56327.778    22916.614       15.404        6.261      427.634      142.507        0.111      329.953       -2.987      866.890
12/30/2014  15:13:00      201.069      243.881        5.791      171.131      146.167      124.028    29285.741    21364.658    15383.019        8.297        3.302      316.080       96.402        0.093      329.991       -2.925      866.884
12/30/2014  15:14:00      212.969      268.149        1.959      190.805      188.909      127.684    36406.384    35686.471    16303.216       10.281        4.420      342.432      111.073        0.105      330.015       -2.886      866.903
12/30/2014  15:15:00      281.514      264.000       25.039      194.367      163.119      119.626    37778.507    26607.702    14310.402       11.412        3.935      385.935      106.956        0.077      329.960       -2.976      866.871
12/30/2014  15:16:00      267.733      256.108       11.420      190.991      150.739      125.553    36477.612    22722.103    15763.468       10.617        3.748      370.503       98.545        0.071      329.997       -2.915      866.883
12/30/2014  15:17:00      265.214      256.622       31.814      192.450      138.247      136.736    37037.184    19112.297    18696.677       10.601        3.742      369.044       91.115        0.061      329.968       -2.962      866.882
12/30/2014  15:18:00      291.678      228.093       58.152      260.810      149.730      113.854    68021.607    22419.008    12962.744       12.192        5.170      370.274       63.456        0.029      329.957       -2.982      866.873
12/30/2014  15:19:00      156.555      218.159       20.734      191.891      160.428      108.124    36822.222    25737.284    11690.739        7.338        3.713      268.520       93.771        0.122      330.054       -2.822      866.896
12/30/2014  15:20:00      114.611      285.013      -15.776      136.327      164.306      127.207    18585.022    26996.341    16181.512        7.818        3.088      307.194      106.810        0.121      330.069       -2.797      866.915
12/30/2014  15:21:00      194.742      156.263       33.469      151.402      107.339       81.425    22922.504    11521.650     6630.102        5.226        2.054      249.685       64.681        0.067      330.130       -2.696      866.943
12/30/2014  15:22:00      211.653      308.072       -4.561      202.609      159.454      116.955    41050.245    25425.616    13678.430       10.992        4.008      373.772      116.732        0.098      330.041       -2.843      866.930
12/30/2014  15:23:00      159.171      233.843       -6.122      149.331      134.145       84.688    22299.659    17994.995     7172.017        6.375        2.373      282.875       79.825        0.080      330.082       -2.776      866.929
12/30/2014  15:24:00      179.738      292.650       -6.099      178.991      194.517      137.496    32037.907    37837.045    18905.186       10.337        4.439      343.438      126.373        0.135      330.024       -2.872      866.925
12/30/2014  15:25:00      222.671      275.468        0.557      173.584      184.885      125.995    30131.568    34182.639    15874.770       10.281        4.009      354.211      110.965        0.098      329.996       -2.916      866.913
12/30/2014  15:26:00      264.768      180.801       32.505      191.370      134.883      109.697    36622.635    18193.493    12033.514        8.534        3.342      320.611       83.961        0.069      330.027       -2.866      866.906
12/30/2014  15:27:00      215.010      236.245        3.907      148.022      151.320       96.741    21910.570    22897.679     9358.918        7.810        2.708      319.438       79.591        0.062      330.036       -2.853      866.914
12/30/2014  15:28:00      367.120      293.769       25.700      209.334      159.506      164.963    43820.766    25442.020    27212.777       15.909        4.824      470.188      108.040        0.053      329.993       -2.922      866.912
12/30/2014  15:29:00      255.493      249.663        6.907      203.990      151.896      101.836    41611.931    23072.302    10370.669       10.134        3.753      357.223       83.184        0.054      330.053       -2.824      866.893
12/30/2014  15:30:00      258.128      205.318       38.080      181.396      126.931      104.321    32904.506    16111.393    10882.815        8.506        2.995      329.827       65.564        0.040      329.998       -2.912      866.924
12/30/2014  15:31:00      196.113      137.868       25.681      166.320      125.750       71.901    27662.423    15813.103     5169.746        5.338        2.432      239.725       44.976        0.035      330.079       -2.780      866.950
12/30/2014  15:32:00      316.133      230.249        9.438      155.800      127.616      108.381    24273.539    16285.949    11746.431       10.266        2.615      391.094       86.002        0.048      329.999       -2.911      866.965
12/30/2014  15:33:00      221.589      281.713       -3.735      179.674      151.154      113.462    32282.734    22847.660    12873.540        9.823        3.400      358.419      101.062        0.080      329.957       -2.981      866.957
12/30/2014  15:34:00      262.384      205.225       36.510      161.758      125.182      106.773    26165.541    15670.605    11400.568        8.276        2.662      333.111       67.757        0.041      329.997       -2.915      866.971
12/30/2014  15:35:00      292.832      237.409       20.890      213.329      138.369       90.946    45509.078    19145.935     8271.121       10.772        3.646      376.980       80.690        0.046      330.019       -2.879      866.973
12/30/2014  15:36:00      199.930      262.904        3.145      177.649      168.509      115.673    31559.202    28395.320    13380.177        9.120        3.667      330.288       97.240        0.087      330.002       -2.906      866.963
12/30/2014  15:37:00      110.782      155.009        9.663      114.381      132.894       80.003    13083.049    17660.755     6400.503        3.676        1.857      190.527       77.652        0.166      330.085       -2.770      866.983
12/30/2014  15:38:00      110.581      267.124       10.409      142.404      176.403      121.894    20278.837    31118.037    14858.228        7.496        3.313      289.108      111.746        0.149      330.044       -2.839      867.030
12/30/2014  15:39:00      102.203      214.224      -11.002      128.470      147.710       99.476    16504.449    21818.336     9895.376        5.233        2.411      237.355       91.414        0.148      329.984       -2.936      866.984
12/30/2014  15:40:00      138.445      234.324        1.590      138.939      128.191      105.801    19304.116    16433.026    11193.914        6.049        2.347      272.167       81.654        0.090      330.006       -2.901      866.988
12/30/2014  15:41:00      164.612      204.970       35.610      151.750      143.325      106.898    23027.914    20542.102    11427.097        6.268        2.750      262.887       78.251        0.089      330.002       -2.906      866.973
12/30/2014  15:42:00      143.864      222.944      -13.216      130.824      165.300      108.176    17114.846    27324.037    11702.125        6.335        2.807      265.332      105.202        0.157      330.016       -2.884      866.969
12/30/2014  15:43:00      163.999      171.684       10.781      143.446      113.108       87.421    20576.695    12793.499     7642.371        4.874        2.051      237.426       71.692        0.091      330.026       -2.866      866.981
12/30/2014  15:44:00      120.263      256.311       -6.586      134.259      166.920      107.307    18025.500    27862.267    11514.765        6.879        2.870      283.122      107.238        0.143      330.009       -2.896      866.970
12/30/2014  15:45:00      262.289      255.984       23.036      180.039      138.679      121.742    32414.099    19231.842    14821.089       10.065        3.323      366.502       94.826        0.067      330.004       -2.904      866.968
12/30/2014  15:46:00      144.321      182.132       -3.360      144.828      131.629       81.729    20975.155    17326.086     6679.554        4.949        2.249      232.380       76.757        0.109      330.028       -2.863      866.967
12/30/2014  15:47:00      135.675      285.477      -14.279      135.323      183.031      113.667    18312.225    33500.456    12920.247        8.241        3.237      316.078      113.806        0.130      329.988       -2.929      866.979
12/30/2014  15:48:00      241.156      209.655       43.920      194.914      154.069      136.230    37991.353    23737.182    18558.506        9.215        4.014      319.549      103.248        0.104      329.953       -2.988      866.986
12/30/2014  15:49:00      119.185      141.875       16.419      129.756      133.829       87.295    16836.515    17910.244     7620.383        3.848        2.118      185.293       64.677        0.122      329.979       -2.944      866.980
12/30/2014  15:50:00      272.114      227.766       -4.425      179.215      131.000       96.789    32118.036    17160.901     9368.074        9.228        2.932      354.857       67.985        0.037      329.966       -2.964      866.972
12/30/2014  15:51:00      285.491      228.335       29.215      188.739      147.135       89.827    35622.595    21648.568     8068.909        9.990        3.267      365.570       58.859        0.026      329.950       -2.991      866.953
12/30/2014  15:52:00      301.932      238.449       38.312      172.927      127.281      108.230    29903.586    16200.545    11713.679       10.364        2.891      384.735       76.491        0.040      329.942       -3.006      866.972
12/30/2014  15:53:00      291.983      221.694       35.476      213.842      148.738      108.099    45728.412    22123.018    11685.405       10.758        3.977      366.609       68.937        0.035      329.937       -3.012      866.972
12/30/2014  15:54:00      269.698      221.052       28.278      210.714      145.470      112.110    44400.312    21161.450    12568.680       10.025        3.907      348.713       76.953        0.049      329.919       -3.042      866.975
12/30/2014  15:55:00      228.593      258.882       27.766      209.178      161.994      134.391    43755.460    26242.172    18060.868       10.403        4.403      345.362       99.051        0.082      329.903       -3.071      866.969
12/30/2014  15:56:00      130.222      223.713      -24.488      134.705      163.859      109.156    18145.452    26849.784    11915.098        6.225        2.846      258.854       92.978        0.129      329.891       -3.089      866.961
12/30/2014  15:57:00      127.181      348.075      -33.801      118.146      183.091      104.471    13958.455    33522.456    10914.213        9.842        2.920      370.582      109.184        0.087      329.874       -3.118      866.960
12/30/2014  15:58:00      299.687      266.120       11.966      207.850      131.792      106.767    43201.484    17369.085    11399.222       11.636        3.598      400.789       85.876        0.046      329.898       -3.078      866.965
12/30/2014  15:59:00      249.045      247.781       19.648      214.897      140.302      108.290    46180.928    19684.777    11726.752       10.068        3.880      351.310       84.593        0.058      329.878       -3.109      866.954
12/30/2014  16:00:00      168.284      183.134       12.850      126.859      134.846       88.106    16093.288    18183.483     7762.606        5.202        2.102      248.712       71.647        0.083      329.892       -3.086      866.979
12/30/2014  16:01:00      259.557      196.526       61.659      160.235      115.633      109.477    25675.362    13370.965    11985.215        8.040        2.552      325.565       40.504        0.015      329.870       -3.123      866.956
12/30/2014  16:02:00      289.595      208.866       21.707      192.523      125.635      105.264    37065.114    15784.250    11080.478        9.593        3.196      357.058       84.958        0.057      329.851       -3.155      866.967
12/30/2014  16:03:00      221.385      204.007       18.525      199.743      127.924       99.116    39897.393    16364.619     9824.038        7.852        3.304      301.049       60.186        0.040      329.823       -3.198      866.976
12/30/2014  16:04:00      390.617      271.842       36.692      182.883      150.974      106.465    33446.050    22793.177    11334.812       14.769        3.379      475.899       58.179        0.015      329.801       -3.236      866.959
12/30/2014  16:05:00      253.182      296.481       13.417      156.398      174.235      131.824    24460.180    30357.973    17377.679       11.217        3.610      389.874      115.913        0.088      329.787       -3.258      866.950
12/30/2014  16:06:00      329.718      277.221       28.817      193.772      134.885      113.851    37547.703    18193.830    12962.125       12.754        3.435      430.773       62.177        0.021      329.777       -3.274      866.962
12/30/2014  16:07:00      247.880      306.859        2.437      249.883      170.350      122.813    62441.378    29019.160    15083.060       13.106        5.327      394.470       98.054        0.062      329.770       -3.286      866.959
12/30/2014  16:08:00      270.194      154.628       49.494      220.825      140.129       98.063    48763.698    19636.178     9616.419        8.867        3.901      311.311       57.222        0.034      329.778       -3.274      866.969
12/30/2014  16:09:00      240.599      178.974       28.324      174.049      124.482       95.674    30293.115    15495.771     9153.422        7.282        2.747      299.866       70.007        0.055      329.763       -3.297      867.007
12/30/2014  16:10:00      296.866      219.868       20.969      207.830      149.273      117.937    43193.463    22282.345    13909.086       10.813        3.969      369.420       87.493        0.056      329.748       -3.321      866.990
12/30/2014  16:11:00      152.550      367.016      -30.566      185.590      258.940      135.519    34443.543    67049.741    18365.429       13.936        5.993      397.458      145.411        0.134      329.736       -3.340      866.997
12/30/2014  16:12:00      169.695      225.890        8.423      115.067      154.645       99.792    13240.425    23914.956     9958.468        6.349        2.356      282.529       90.406        0.102      329.729       -3.353      867.009
12/30/2014  16:13:00      132.565      276.210      -17.613      143.501      164.931      111.783    20592.543    27202.394    12495.330        7.722        3.015      306.375      102.412        0.112      329.728       -3.356      867.030
12/30/2014  16:14:00      233.343      276.538       17.294      185.335      174.155      132.255    34349.179    30330.086    17491.450       10.668        4.109      361.831      122.355        0.114      329.726       -3.358      867.006
12/30/2014  16:15:00      145.952      211.729       21.187      140.822      163.216      107.738    19830.825    26639.484    11607.561        6.232        2.904      257.160       91.126        0.126      329.723       -3.364      867.002
12/30/2014  16:16:00       99.893      215.642       -9.530      127.182      120.285       87.642    16175.227    14468.496     7681.052        4.744        1.916      237.656       76.667        0.104      329.713       -3.379      867.005
12/30/2014  16:17:00      192.558      213.426       22.965      158.227      139.114       99.798    25035.761    19352.831     9959.694        6.874        2.717      287.453       91.345        0.101      329.708       -3.389      866.999
12/30/2014  16:18:00      179.972      193.498        6.390      130.041      127.631       90.747    16910.549    16289.771     8235.093        5.565        2.072      264.256       81.523        0.095      329.704       -3.395      867.007
12/30/2014  16:19:00      108.409      216.359        0.578      122.984      159.653       97.808    15125.052    25489.086     9566.481        5.436        2.509      241.999       82.637        0.117      329.703       -3.397      867.019
12/30/2014  16:20:00      177.756      287.021        6.629      173.008      214.418      129.442    29931.634    45975.290    16755.224       10.332        4.633      337.607      124.746        0.137      329.696       -3.407      867.046
12/30/2014  16:21:00      351.262      257.002       50.835      187.666      143.508      143.063    35218.446    20594.474    20466.985       13.413        3.814      435.242       83.897        0.037      329.689       -3.421      867.021
12/30/2014  16:22:00      148.803      238.633      -14.049      151.360      135.343      109.883    22909.771    18317.716    12074.288        6.628        2.665      281.226       91.117        0.105      329.680       -3.435      867.027
12/30/2014  16:23:00      240.983      254.795       19.583      183.829      156.056      115.030    33793.095    24353.503    13231.992        9.736        3.569      350.704      102.323        0.085      329.668       -3.456      867.011
12/30/2014  16:24:00      232.813      228.529       34.689      237.871      156.946      139.514    56582.636    24632.101    19464.202       10.413        5.034      326.232       85.105        0.068      329.660       -3.467      866.988
12/30/2014  16:25:00      173.514      217.211        5.770      161.559      133.225      101.901    26101.411    17748.778    10383.749        6.577        2.712      278.007       85.044        0.094      329.660       -3.468      867.033
12/30/2014  16:26:00      141.771      236.874       12.004      166.084      117.072       89.558    27583.767    13705.873     8020.681        6.282        2.466      276.058       75.096        0.074      329.636       -3.507      867.051
12/30/2014  16:27:00      220.917      187.662       27.851      147.715      119.600      100.851    21819.716    14304.117    10170.922        6.554        2.315      289.864       64.138        0.049      329.634       -3.510      867.061
12/30/2014  16:28:00       90.465      308.401        0.829      167.996      213.472      123.667    28222.547    45570.296    15293.557        9.617        4.454      321.395      119.751        0.139      329.619       -3.532      867.056
12/30/2014  16:29:00      202.047      194.682       28.484      154.542      109.423       99.742    23883.243    11973.322     9948.553        6.266        2.290      280.578       76.437        0.074      329.615       -3.542      867.046
12/30/2014  16:30:00      127.178      354.586      -30.875      136.200      212.628      124.828    18550.511    45210.781    15582.123       11.109        3.967      376.704      127.042        0.114      329.606       -3.554      867.047
12/30/2014  16:31:00      119.362      250.154       -4.636      121.338      169.418      105.122    14722.986    28702.366    11050.624        6.565        2.724      277.172      101.181        0.133      329.593       -3.576      867.076
12/30/2014  16:32:00       80.545      395.938      -40.698      123.240      206.523       96.955    15188.148    42651.874     9400.204       11.606        3.362      404.047       97.625        0.058      329.588       -3.584      867.101
12/30/2014  16:33:00      133.580      294.563      -12.042      143.236      216.755      133.772    20516.624    46982.722    17894.891        9.506        4.270      323.436      134.968        0.174      329.596       -3.571      867.077
12/30/2014  16:34:00      183.746      235.098       -8.887      166.895      133.988      110.010    27853.878    17952.825    12102.175        7.350        2.895      298.385       96.762        0.105      329.579       -3.600      867.113
12/30/2014  16:35:00      133.837      247.802        7.898      123.121      165.018      110.369    15158.769    27231.036    12181.348        6.696        2.729      281.634      100.190        0.127      329.565       -3.621      867.103
12/30/2014  16:36:00       90.394      175.949       -5.645      112.990      147.650       96.862    12766.636    21800.446     9382.247        4.155        2.197      197.810       88.308        0.199      329.554       -3.640      867.107
12/30/2014  16:37:00       91.091      248.859        6.292      128.171      184.895      108.060    16427.901    34186.066    11677.069        6.627        3.115      265.006      110.220        0.173      329.537       -3.668      867.119
12/30/2014  16:38:00       96.229      302.700      -26.780      151.914      216.166      117.732    23077.894    46727.715    13860.795        9.262        4.183      317.627      122.243        0.148      329.544       -3.657      867.128
12/30/2014  16:39:00      116.216      310.683      -12.976      158.692      173.801      115.300    25183.229    30206.787    13294.123        8.943        3.434      331.708      109.276        0.109      329.527       -3.683      867.158
12/30/2014  16:40:00       75.408      237.601       -8.531      115.329      184.311      100.834    13300.741    33970.423    10167.527        5.981        2.872      249.280       97.278        0.152      329.522       -3.692      867.164
12/30/2014  16:41:00       68.656      247.054      -10.754      121.435      202.236       99.086    14746.577    40899.519     9818.002        6.565        3.273      256.416      112.129        0.191      329.499       -3.729      867.174
12/30/2014  16:42:00       50.810      217.783      -14.206       99.511      174.867       87.938     9902.406    30578.473     7733.093        4.920        2.411      223.632       92.694        0.172      329.485       -3.750      867.206
12/30/2014  16:43:00       94.213      270.847      -12.160      146.433      191.171      109.267    21442.504    36546.270    11939.269        7.614        3.496      286.765      114.386        0.159      329.486       -3.750      867.216
12/30/2014  16:44:00       89.620      314.840      -27.636      127.239      184.868       97.142    16189.647    34176.008     9436.624        8.385        2.990      327.346       98.405        0.090      329.481       -3.759      867.241
12/30/2014  16:45:00       11.729      337.204      -14.095      100.006      190.109      104.528    10001.182    36141.416    10926.046        8.554        2.853      337.408      112.917        0.112      329.477       -3.766      867.245
12/30/2014  16:46:00       51.154      282.497       -8.848      106.752      203.342       93.741    11395.885    41347.855     8787.412        7.200        3.077      287.091      102.836        0.128      329.462       -3.790      867.265
12/30/2014  16:47:00       66.260      330.138        3.455      150.455      216.427      125.710    22636.566    46840.614    15803.075        9.932        4.264      336.722      117.069        0.121      329.471       -3.776      867.277
12/30/2014  16:48:00       32.041      351.899      -20.156      122.310      223.255      109.643    14959.680    49842.753    12021.527       10.103        3.841      353.355      127.587        0.130      329.482       -3.758      867.274
12/30/2014  16:49:00       65.200      451.876      -39.976      124.733      193.439      109.433    15558.271    37418.493    11975.653       13.748        3.248      456.555      108.901        0.057      329.464       -3.788      867.279
12/30/2014  16:50:00       82.461      411.665      -48.139      121.600      205.666      103.848    14786.556    42298.346    10784.432       12.321        3.393      419.842      103.966        0.061      329.452       -3.808      867.275
12/30/2014  16:51:00       26.820      184.286        5.356       97.536      131.939       92.774     9513.354    17407.798     8607.031        3.511        1.776      186.227       84.104        0.204      329.438       -3.830      867.307
12/30/2014  16:52:00       63.484      327.656      -15.979      105.664      197.058      100.564    11164.879    38831.750    10113.168        8.586        3.005      333.749      108.529        0.106      329.409       -3.878      867.313
12/30/2014  16:53:00        8.892      397.437      -42.801       94.185      121.596       64.241     8870.877    14785.646     4126.914        9.382        1.389      397.536       58.393        0.022      329.408       -3.880      867.317
12/30/2014  16:54:00       42.135      390.063      -38.350       93.297      159.611       85.913     8704.392    25475.512     7381.003        9.847        2.078      392.333       83.189        0.045      329.395       -3.900      867.328
12/30/2014  16:55:00       72.723      299.156      -10.784      111.484      197.011      103.426    12428.766    38813.499    10696.961        7.841        3.097      307.869      123.659        0.161      329.380       -3.925      867.348
12/30/2014  16:56:00       56.559      297.536      -20.041      118.665      177.428       90.947    14081.323    31480.801     8271.317        7.297        2.692      302.864       97.275        0.103      329.369       -3.943      867.369
12/30/2014  16:57:00       57.428      320.969      -25.094      116.580      207.656       99.378    13590.819    43121.180     9875.999        8.676        3.329      326.066      113.628        0.121      329.366       -3.947      867.388
12/30/2014  16:58:00       71.836      206.360      -12.133       91.635      130.347       85.464     8397.006    16990.282     7304.106        4.029        1.635      218.506       84.401        0.149      329.350       -3.975      867.391
12/30/2014  16:59:00       68.068      261.327      -13.605       93.458      135.551       91.566     8734.454    18373.987     8384.255        5.429        1.775      270.046       92.577        0.118      329.322       -4.019      867.421
12/30/2014  17:00:00       75.039      207.123      -20.194       99.429      147.241       96.352     9886.057    21679.847     9283.732        4.489        2.042      220.297       96.192        0.191      329.299       -4.056      867.423
12/30/2014  17:01:00       54.868      319.022      -36.560      108.059      178.279       83.158    11676.666    31783.414     6915.231        7.824        2.519      323.706       93.791        0.084      329.298       -4.060      867.460
12/30/2014  17:02:00       55.698      322.188       -6.333      123.955      171.481      102.832    15364.807    29405.688    10574.345        8.114        2.767      326.967       98.121        0.090      329.308       -4.043      867.455
12/30/2014  17:03:00       68.962      287.472       -7.921      117.796      198.348      109.934    13875.796    39342.018    12085.436        7.637        3.265      295.628      117.206        0.157      329.315       -4.031      867.474
12/30/2014  17:04:00       83.982      206.292        4.759      112.781      178.783      119.914    12719.603    31963.327    14379.271        5.434        2.953      222.732      104.191        0.219      329.296       -4.059      867.474
12/30/2014  17:05:00       51.448      245.153       -5.543       98.169      205.314       88.659     9637.086    42153.645     7860.410        6.120        2.983      250.493      106.357        0.180      329.301       -4.052      867.490
12/30/2014  17:06:00       59.357      340.392      -25.969       97.539      188.955       92.166     9513.822    35704.050     8494.657        8.688        2.686      345.528      101.410        0.086      329.292       -4.067      867.495
12/30/2014  17:07:00       48.021      241.450      -18.238       92.053      165.582       86.407     8473.721    27417.411     7466.192        5.214        2.168      246.179       92.610        0.142      329.287       -4.076      867.493
12/30/2014  17:08:00       59.911      219.438       -2.304      107.691      189.556      111.742    11597.256    35931.411    12486.205        5.587        3.001      227.469      122.465        0.290      329.294       -4.064      867.487
12/30/2014  17:09:00       69.614      262.295      -13.043      122.595      132.580       76.158    15029.556    17577.493     5800.060        5.610        1.920      271.375       70.175        0.067      329.261       -4.117      867.486
12/30/2014  17:10:00       88.377      114.654       16.127      112.817      104.145       73.642    12727.643    10846.132     5423.169        2.510        1.450      144.762       58.635        0.164      329.226       -4.174      867.495
12/30/2014  17:11:00      116.678      186.509        2.581      104.068      117.202       79.733    10830.141    13736.401     6357.328        3.966        1.546      219.999       72.737        0.109      329.220       -4.184      867.512
12/30/2014  17:12:00       77.856      173.350       -4.155       85.035      105.047       70.798     7230.884    11034.788     5012.368        2.970        1.164      190.031       63.263        0.111      329.235       -4.160      867.502
12/30/2014  17:13:00       89.548      269.864      -30.640      108.227      188.847       82.237    11713.058    35663.293     6762.998        6.795        2.707      284.333       90.098        0.100      329.266       -4.110      867.510
12/30/2014  17:14:00       91.698      197.655       -6.903       91.439      119.186       82.524     8361.041    14205.317     6810.220        3.844        1.469      217.889       77.488        0.126      329.253       -4.133      867.532
12/30/2014  17:15:00       87.462      167.791        8.527       94.894      119.903       90.927     9004.950    14376.721     8267.736        3.376        1.582      189.218       76.564        0.164      329.240       -4.152      867.542
12/30/2014  17:16:00       90.642      168.223       -3.790       99.758      115.042       76.239     9951.598    13234.652     5812.452        3.276        1.450      191.089       67.458        0.125      329.237       -4.158      867.567
12/30/2014  17:17:00      229.713      259.051       12.448      193.081      141.249      110.896    37280.384    19951.158    12297.957        9.477        3.476      346.230       73.241        0.045      329.295       -4.064      867.567
12/30/2014  17:18:00      190.511      234.828       16.326      149.689      151.225       95.778    22406.928    22868.915     9173.399        7.307        2.722      302.388       81.762        0.073      329.292       -4.069      867.582
12/30/2014  17:19:00      126.442      311.381      -16.544      135.132      211.362      119.555    18260.597    44674.011    14293.300        9.521        3.861      336.074      120.251        0.128      329.300       -4.056      867.586
12/30/2014  17:20:00       78.604      224.869       -7.796      111.583      198.776      104.255    12450.762    39511.894    10869.168        5.981        3.142      238.211      110.721        0.216      329.259       -4.121      867.587
12/30/2014  17:21:00      130.032      299.940      -21.044      154.003      199.204      120.417    23716.975    39682.392    14500.268        9.259        3.895      326.913      112.537        0.119      329.288       -4.075      867.592
12/30/2014  17:22:00      128.244      249.588        7.491      179.712      161.000      122.954    32296.462    25921.113    15117.721        7.605        3.667      280.608      102.549        0.134      329.283       -4.082      867.575
12/30/2014  17:23:00      131.452      343.860      -28.491      153.966      204.257      132.684    23705.498    41720.897    17605.028       10.966        4.152      368.130      120.043        0.106      329.284       -4.081      867.562
12/30/2014  17:24:00      154.443      201.282       10.404      165.137      135.613      125.662    27270.254    18390.813    15790.975        6.295        3.073      253.707       92.140        0.132      329.283       -4.083      867.558
12/30/2014  17:25:00      207.747      213.242       31.800      163.107      118.748      116.672    26603.974    14101.117    13612.320        7.197        2.716      297.709       78.913        0.070      329.288       -4.074      867.546
12/30/2014  17:26:00      125.664      262.717       -0.673      150.357      158.699      126.010    22607.180    25185.256    15878.547        7.423        3.184      291.224      101.327        0.121      329.287       -4.077      867.538
12/30/2014  17:27:00       34.744      286.592      -19.721      103.435      200.007       80.200    10698.739    40002.722     6432.045        7.042        2.857      288.690       92.607        0.103      329.278       -4.090      867.556
12/30/2014  17:28:00      128.684      273.777      -17.985      147.263      192.502      123.506    21686.423    37057.072    15253.739        8.290        3.700      302.512      117.228        0.150      329.254       -4.130      867.562
12/30/2014  17:29:00       97.689      325.473      -29.295      132.802      185.102       95.682    17636.248    34262.794     9154.956        8.868        3.053      339.817      100.357        0.087      329.250       -4.137      867.566
12/30/2014  17:30:00      223.310      245.095       21.068      207.506      161.248      132.939    43058.548    26000.904    17672.772        9.854        4.337      331.570      102.234        0.095      329.290       -4.071      867.573
12/30/2014  17:31:00       47.376      343.191      -26.665      137.355      204.012      114.385    18866.427    41620.904    13083.879        9.714        3.679      346.445      111.737        0.104      329.277       -4.090      867.572
12/30/2014  17:32:00      109.415      227.387       -8.773      131.769      165.021      117.804    17363.198    27231.888    13877.892        6.110        2.924      252.342      110.328        0.191      329.275       -4.096      867.574
12/30/2014  17:33:00      156.475      229.876        5.513      161.968      167.681      122.089    26233.624    28116.926    14905.705        7.329        3.463      278.078      109.504        0.155      329.250       -4.136      867.601
12/30/2014  17:34:00      166.950      230.948        7.768      131.878      132.271      103.887    17391.900    17495.647    10792.426        6.347        2.284      284.972       78.686        0.076      329.245       -4.146      867.615
12/30/2014  17:35:00      112.467      219.631       -1.157      133.782      159.981       93.677    17897.735    25593.971     8775.323        5.657        2.613      246.752       91.844        0.139      329.227       -4.174      867.635
12/30/2014  17:36:00      177.885      173.117       51.356      167.327       99.966      105.793    27998.197     9993.283    11192.253        5.671        2.459      248.219       86.150        0.120      329.231       -4.167      867.650
12/30/2014  17:37:00       70.925      155.398      -10.677       86.756      132.212       77.960     7526.618    17480.046     6077.733        3.018        1.554      170.819       76.750        0.202      329.170       -4.267      867.682
12/30/2014  17:38:00      105.039      206.152      -11.749      103.860      132.748       88.506    10786.856    17622.142     7833.364        4.495        1.812      231.370       85.329        0.136      329.158       -4.287      867.692
12/30/2014  17:39:00      166.757      215.456       -4.500      153.112      132.560      103.612    23443.281    17572.219    10735.520        6.299        2.588      272.450       79.045        0.084      329.209       -4.204      867.697
12/30/2014  17:40:00      233.717      227.602        1.860      156.647      169.221      118.880    24538.200    28635.753    14132.386        8.685        3.365      326.231      104.891        0.103      329.243       -4.148      867.713
12/30/2014  17:41:00      106.793      119.299       20.084      121.252       95.757       99.003    14701.956     9169.487     9801.648        2.985        1.684      160.116       70.897        0.196      329.212       -4.198      867.747
12/30/2014  17:42:00      114.351      314.703        8.476      146.063      190.062      112.757    21334.277    36123.422    12714.087        9.116        3.509      334.834      111.171        0.110      329.199       -4.220      867.786
12/30/2014  17:43:00      199.406      236.553        9.859      153.964      147.908       98.114    23704.837    21876.889     9626.260        7.550        2.760      309.386       75.483        0.060      329.223       -4.180      867.783
12/30/2014  17:44:00      162.394      304.778       -1.632      157.385      215.279      133.088    24770.009    46345.025    17712.378       10.403        4.441      345.342      132.054        0.146      329.263       -4.115      867.784
12/30/2014  17:45:00      139.638      188.490       20.334      141.310      133.152      102.559    19968.381    17729.382    10518.361        5.182        2.411      234.579       83.545        0.127      329.241       -4.151      867.769
12/30/2014  17:46:00       83.636      302.594      -28.354      100.276      163.660       88.159    10055.356    26784.446     7771.971        7.198        2.231      313.940       95.708        0.093      329.216       -4.192      867.797
12/30/2014  17:47:00       61.476      290.851      -33.688       99.571      162.427       88.276     9914.313    26382.652     7792.672        6.679        2.204      297.277      100.558        0.114      329.198       -4.222      867.801
12/30/2014  17:48:00      170.050      195.945       27.521      136.264      140.219      106.608    18567.778    19661.293    11365.296        5.882        2.480      259.444       88.571        0.117      329.213       -4.197      867.803
12/30/2014  17:49:00      188.750      282.266      -11.905      164.742      146.716      103.537    27139.866    21525.623    10719.847        8.740        2.969      339.559       96.000        0.080      329.231       -4.168      867.793
12/30/2014  17:50:00       99.264      335.635      -23.944      127.772      183.414      119.181    16325.679    33640.841    14204.214        9.361        3.209      350.006      116.489        0.111      329.191       -4.233      867.810
12/30/2014  17:51:00       57.971      177.229       11.685      124.657      151.705       83.805    15539.444    23014.334     7023.242        4.023        2.279      186.469       83.518        0.201      329.133       -4.328      867.835
12/30/2014  17:52:00       66.579      377.184      -24.384      120.872      236.244      112.875    14610.093    55811.060    12740.758       11.521        4.158      383.015      122.320        0.102      329.170       -4.268      867.839
12/30/2014  17:53:00      186.425      275.059       -4.195      183.751      205.019      152.089    33764.389    42032.962    23131.073       10.466        4.946      332.283      140.399        0.179      329.208       -4.206      867.827
12/30/2014  17:54:00       76.319      213.508        1.589      113.138      151.774       84.646    12800.144    23035.301     7164.885        4.720        2.150      226.738       84.295        0.138      329.175       -4.260      867.869
12/30/2014  17:55:00      169.132      260.398       21.564      190.481      198.331      134.663    36282.967    39335.296    18134.090        9.530        4.688      310.504      112.490        0.131      329.167       -4.273      867.906
12/30/2014  17:56:00       79.452      455.372      -39.945      158.825      257.631      132.000    25225.252    66373.959    17424.040       16.213        5.451      462.252      142.525        0.095      329.191       -4.234      867.919
12/30/2014  17:57:00       85.189      381.726      -20.865      136.824      248.030      125.496    18720.778    61518.856    15749.144       12.468        4.799      391.116      141.432        0.131      329.189       -4.238      867.928
12/30/2014  17:58:00       66.574      231.108      -19.491      117.392      150.378       89.261    13780.835    22613.544     7967.460        5.128        2.218      240.506       89.039        0.137      329.149       -4.302      867.964
12/30/2014  17:59:00       65.380      255.836      -23.124       92.691      145.471       77.167     8591.620    21161.908     5954.733        5.298        1.785      264.058       79.286        0.090      329.134       -4.327      867.959
12/30/2014  18:00:00       30.468      352.213      -41.479       98.548      165.827       74.876     9711.640    27498.632     5606.379        8.475        2.141      353.529       89.186        0.064      329.128       -4.338      867.971
12/30/2014  18:01:00       -5.119      493.900      -56.787      114.929      160.595       73.558    13208.665    25790.698     5410.729       14.579        2.221      493.927       75.603        0.023      329.170       -4.269      867.988
12/30/2014  18:02:00       28.669      277.010      -13.523       96.744      177.660       85.158     9359.456    31563.135     7251.898        6.295        2.409      278.489      102.604        0.136      329.119       -4.352      867.987
12/30/2014  18:03:00       60.805      248.209      -13.923      119.043      150.411       92.598    14171.288    22623.607     8574.470        5.542        2.268      255.548       81.188        0.101      329.111       -4.364      868.002
12/30/2014  18:04:00       84.273      254.871       -9.830      121.479      145.983       96.508    14757.125    21311.053     9313.843        5.876        2.269      268.442       94.544        0.124      329.082       -4.411      868.046
12/30/2014  18:05:00       77.880      227.162       13.310      125.167      160.070      100.815    15666.674    25622.518    10163.583        5.464        2.573      240.141       96.582        0.162      329.072       -4.428      868.051
12/30/2014  18:06:00      116.628      291.383      -27.401      121.084      205.468      109.572    14661.364    42217.086    12006.008        8.406        3.444      313.857      121.338        0.149      329.070       -4.432      868.080
12/30/2014  18:07:00       73.333      233.482      -15.832       81.772      197.972       82.510     6686.605    39192.865     6807.964        5.640        2.634      244.727       93.139        0.145      329.044       -4.476      868.131
12/30/2014  18:08:00       62.008      228.032        7.964       99.791      190.171       86.482     9958.241    36165.179     7479.205        5.474        2.680      236.312       96.805        0.168      329.052       -4.460      868.138
12/30/2014  18:09:00       63.933      253.936      -20.440      130.118      210.039       93.525    16930.779    44116.278     8746.859        6.938        3.490      261.861      106.079        0.164      329.046       -4.469      868.149
12/30/2014  18:10:00       -3.227      429.260      -33.256      119.662      144.336       84.059    14319.000    20832.930     7065.842       11.379        2.111      429.272       84.642        0.039      329.074       -4.424      868.157
12/30/2014  18:11:00       -5.643      398.435      -42.732      109.086      177.125       64.566    11899.665    31373.298     4168.811       10.402        2.372      398.475       53.630        0.018      329.085       -4.406      868.144
12/30/2014  18:12:00       80.427      353.718      -25.546      150.269      213.750      103.065    22580.757    45689.250    10622.315       10.555        3.945      362.746       98.980        0.074      329.083       -4.409      868.161
12/30/2014  18:13:00       46.146      541.959      -50.624      142.424      292.851      128.709    20284.729    85761.554    16565.887       21.049        6.131      543.920      158.693        0.085      329.101       -4.380      868.189
12/30/2014  18:14:00      105.536      325.847        1.408      148.638      210.525      140.143    22093.320    44320.644    19639.956       10.167        4.303      342.511      135.568        0.157      329.120       -4.348      868.195
12/30/2014  18:15:00       96.869      335.717      -41.450      130.294      162.002      114.915    16976.617    26244.507    13205.550        9.011        2.821      349.413      109.427        0.098      329.086       -4.405      868.233
12/30/2014  18:16:00       70.316      415.147      -30.141      150.208      227.923      138.533    22562.412    51948.790    19191.470       13.593        4.685      421.060      148.520        0.124      329.068       -4.435      868.234
12/30/2014  18:17:00      156.521      296.948       -6.125      187.602      187.597      130.217    35194.476    35192.668    16956.373       10.001        4.367      335.674      118.057        0.124      329.057       -4.452      868.209
12/30/2014  18:18:00       73.756      264.925      -13.607      100.648      191.920       97.775    10129.935    36833.263     9559.951        6.616        2.826      275.000      113.501        0.170      329.029       -4.497      868.237
12/30/2014  18:19:00       17.825      270.428       -5.216      135.725      163.586       86.176    18421.195    26760.341     7426.366        6.303        2.630      271.014       88.662        0.107      329.012       -4.525      868.247
12/30/2014  18:20:00       82.144      241.118       -0.220      165.750      186.323      100.285    27473.181    34716.218    10057.049        6.855        3.612      254.727      110.959        0.190      329.006       -4.535      868.244
12/30/2014  18:21:00       58.027      438.638      -48.141      140.655      185.321       91.057    19783.921    34343.735     8291.331       13.024        3.121      442.460       82.988        0.035      329.006       -4.535      868.293
12/30/2014  18:22:00       -6.584      381.637       -9.305      124.555      254.452      110.970    15514.029    64745.575    12314.450       11.916        4.629      381.694      131.394        0.119      329.004       -4.538      868.327
12/30/2014  18:23:00       64.098      388.394      -32.843      129.248      237.027      110.853    16705.143    56181.971    12288.413       12.059        4.259      393.647      122.809        0.097      329.009       -4.532      868.364
12/30/2014  18:24:00       44.163      212.954       -2.435      104.099      197.073       98.688    10836.566    38837.909     9739.379        5.335        2.971      217.485      102.298        0.221      328.975       -4.584      868.385
12/30/2014  18:25:00       39.888      394.624      -49.276       92.233      195.247       84.131     8506.941    38121.219     7078.001       10.672        2.685      396.635       97.504        0.060      328.984       -4.571      868.406
12/30/2014  18:26:00       38.282      422.942      -36.987      102.301      167.841       94.594    10465.502    28170.486     8947.987       11.464        2.379      424.671      101.974        0.058      329.003       -4.540      868.403
12/30/2014  18:27:00       -3.856      328.698      -25.673       89.627      133.642       74.076     8032.980    17860.057     5487.188        7.004        1.569      328.721       68.119        0.043      328.989       -4.563      868.428
12/30/2014  18:28:00       30.278      386.703      -33.630       95.253      125.270       81.203     9073.205    15692.682     6593.968        9.147        1.568      387.887       71.407        0.034      328.932       -4.655      868.449
12/30/2014  18:29:00       60.092      558.400      -72.111      111.812      219.628      111.776    12501.923    48236.399    12493.935       19.691        3.662      561.624      127.617        0.052      328.986       -4.568      868.453
12/30/2014  18:30:00       -4.350      489.270      -59.163      104.200      119.908       65.577    10857.579    14377.891     4300.342       13.621        1.477      489.290       53.779        0.012      328.964       -4.603      868.458
12/30/2014  18:31:00       24.791      441.141      -61.320      101.811      156.001       66.400    10365.527    24336.244     4408.919       11.904        1.956      441.837       79.695        0.033      328.969       -4.595      868.492
12/30/2014  18:32:00      -11.764      460.825      -44.955       93.135      190.550       78.313     8674.082    36309.408     6132.854       13.281        2.556      460.975       95.050        0.043      328.969       -4.596      868.510
12/30/2014  18:33:00      -30.211      446.712      -49.593       88.491      120.476       65.547     7830.576    14514.571     4296.357       11.478        1.332      447.733       66.294        0.022      328.979       -4.579      868.536
12/30/2014  18:34:00       19.579      277.678       -3.281      103.757      189.126       95.186    10765.527    35768.535     9060.431        6.654        2.780      278.367      106.309        0.146      328.925       -4.667      868.566
12/30/2014  18:35:00        6.606      402.936      -50.081      103.281      127.485       57.599    10666.882    16252.350     3317.639        9.757        1.512      402.990       54.847        0.019      328.909       -4.694      868.584
12/30/2014  18:36:00      -44.951      339.076      -38.114       78.854      102.141       48.226     6217.983    10432.748     2325.713        6.871        0.949      342.043       39.371        0.013      328.922       -4.673      868.579
12/30/2014  18:37:00      -85.322      324.492      -33.222       85.634       97.558       52.339     7333.222     9517.513     2739.398        6.663        0.980      335.522       46.063        0.019      328.913       -4.687      868.589
12/30/2014  18:38:00      -74.362      431.287      -54.451       96.233      167.535       57.269     9260.698    28067.900     3279.789       11.755        2.030      437.650       65.792        0.023      328.946       -4.634      868.590
12/30/2014  18:39:00      -47.037      542.326      -57.509      102.455      141.626       68.167    10497.014    20057.937     4646.714       16.741        1.760      544.362       65.630        0.015      328.902       -4.705      868.593
12/30/2014  18:40:00      -27.738      597.680      -70.288      144.172      167.061       93.614    20785.605    27909.343     8763.631       21.018        2.873      598.324      100.125        0.028      328.908       -4.696      868.605
12/30/2014  18:41:00       51.139      465.033      -37.070      134.154      228.890      121.806    17997.270    52390.709    14836.589       15.272        4.261      467.836      134.492        0.083      328.945       -4.635      868.610
12/30/2014  18:42:00       45.531      393.720      -25.842      111.671      216.307      106.242    12470.336    46788.747    11287.273       11.414        3.527      396.344      121.462        0.094      328.908       -4.696      868.638
12/30/2014  18:43:00      -27.645      345.901      -25.917       85.393      185.073       72.579     7292.028    34251.899     5267.779        8.394        2.341      347.004       77.952        0.050      328.878       -4.742      868.640
12/30/2014  18:44:00       -5.220      411.005      -51.378      111.538      133.853       68.069    12440.791    17916.509     4633.438       10.328        1.750      411.038       75.100        0.033      328.853       -4.787      868.628
12/30/2014  18:45:00        5.458      340.357      -34.917       78.421      142.188       69.969     6149.900    20217.349     4895.679        7.417        1.563      340.401       72.778        0.046      328.857       -4.779      868.607
12/30/2014  18:46:00       -4.670      523.297      -58.668      128.106      235.287       78.019    16411.255    55359.943     6086.926       17.757        3.893      523.318       97.897        0.035      328.865       -4.766      868.629
12/30/2014  18:47:00      -33.155      370.155      -28.794      106.160      136.856       73.294    11270.049    18729.677     5372.022        8.715        1.769      371.637       76.766        0.043      328.852       -4.788      868.655
12/30/2014  18:48:00      -15.800      475.025      -60.002       90.865      145.533       52.468     8256.520    21179.983     2752.908       13.084        1.609      475.287       53.248        0.013      328.861       -4.773      868.661
12/30/2014  18:49:00      -21.748      596.984      -76.275      116.232      177.402       65.528    13509.990    31471.560     4293.960       20.597        2.464      597.380       75.099        0.016      328.882       -4.738      868.663
12/30/2014  18:50:00      -30.996      605.079      -74.199       94.425      177.257       82.728     8916.105    31419.950     6843.931       20.987        2.359      605.873       91.529        0.023      328.864       -4.768      868.664
12/30/2014  18:51:00      -49.368      426.183      -42.921      112.752      204.162       89.067    12712.989    41682.024     7932.850       12.411        3.116      429.033      108.507        0.064      328.883       -4.736      868.679
12/30/2014  18:52:00       84.280      445.172      -50.465      132.088      212.307      103.732    17447.160    45074.367    10760.381       14.054        3.664      453.080      114.104        0.063      328.904       -4.702      868.701
12/30/2014  18:53:00       17.320      313.475      -40.795      100.501      116.973       67.715    10100.401    13682.642     4585.367        6.429        1.418      313.953       64.865        0.043      328.892       -4.721      868.718
12/30/2014  18:54:00       34.193      474.896      -49.707      106.795      168.352       91.764    11405.268    28342.405     8420.593       13.866        2.408      476.126       98.205        0.043      328.863       -4.770      868.726
12/30/2014  18:55:00       -2.980      467.372      -53.712      110.877      167.557       78.284    12293.718    28075.320     6128.402       13.390        2.325      467.381       82.362        0.031      328.853       -4.785      868.757
12/30/2014  18:56:00       -3.604      399.776      -46.555      102.473      163.523       75.910    10500.729    26739.800     5762.259       10.249        2.150      399.793       81.287        0.041      328.871       -4.756      868.777
12/30/2014  18:57:00       15.008      511.340      -60.975      114.706      141.586       78.645    13157.466    20046.596     6185.076       15.239        1.969      511.560       72.797        0.020      328.853       -4.788      868.782
12/30/2014  18:58:00        8.272      455.136      -47.363      102.936      199.930       69.574    10595.724    39972.168     4840.565       13.242        2.770      455.211       89.322        0.039      328.847       -4.796      868.798
12/30/2014  18:59:00       54.985      473.444      -49.963      115.121      194.939      102.575    13252.946    38001.216    10521.681       14.571        3.089      476.627      108.827        0.052      328.841       -4.805      868.780
12/30/2014  19:00:00       27.370      327.729      -44.807       79.181      171.196       74.028     6269.633    29308.227     5480.154        7.560        2.053      328.870       88.606        0.073      328.821       -4.838      868.807
12/30/2014  19:01:00       11.818      317.123      -26.660       83.578      117.338       60.058     6985.233    13768.239     3606.908        6.288        1.218      317.343       62.011        0.038      328.797       -4.877      868.827
12/30/2014  19:02:00       22.072      473.455      -60.215       93.218      138.631       77.896     8689.508    19218.652     6067.799       13.112        1.699      473.970       75.351        0.025      328.799       -4.875      868.818
12/30/2014  19:03:00       18.710      382.022      -36.990       94.500      180.961       77.364     8930.178    32746.966     5985.167        9.765        2.383      382.480       90.514        0.056      328.800       -4.872      868.796
12/30/2014  19:04:00        8.388      358.707      -36.470       98.366      127.197       71.364     9675.891    16179.079     5092.761        8.050        1.547      358.805       74.711        0.043      328.787       -4.893      868.817
12/30/2014  19:05:00       18.812      347.859      -23.489       81.343      194.186       78.640     6616.647    37708.253     6184.231        8.620        2.525      348.367       99.150        0.081      328.767       -4.926      868.836
12/30/2014  19:06:00       27.444      385.321      -46.743       88.514      166.432       74.397     7834.659    27699.653     5534.914        9.623        2.053      386.297       81.538        0.045      328.745       -4.961      868.823
12/30/2014  19:07:00        1.957      303.526      -28.919       85.213      151.252       74.579     7261.333    22877.276     5562.004        6.433        1.785      303.533       87.994        0.084      328.745       -4.962      868.807
12/30/2014  19:08:00        6.762      373.199      -44.578      131.184      141.884       85.404    17209.139    20131.012     7293.808        9.296        2.232      373.260       89.414        0.057      328.770       -4.923      868.778
12/30/2014  19:09:00      -13.499      439.170      -52.194       77.603      143.507       53.505     6022.165    20594.214     2862.782       11.262        1.474      439.378       60.997        0.019      328.740       -4.970      868.762
12/30/2014  19:10:00       24.801      469.132      -49.722       85.700      170.242       68.610     7344.503    28982.478     4707.300       13.210        2.052      469.787       76.476        0.027      328.723       -4.999      868.759
12/30/2014  19:11:00       14.181      394.483      -47.486       98.181      106.704       75.312     9639.468    11385.824     5671.867        9.238        1.335      394.738       71.820        0.033      328.707       -5.024      868.756
12/30/2014  19:12:00      -26.780      459.438      -49.395       99.497      165.988       73.625     9899.703    27551.980     5420.659       12.855        2.144      460.218       79.167        0.030      328.711       -5.017      868.760
12/30/2014  19:13:00      -49.665      513.203      -51.876      113.555      165.150       82.995    12894.752    27274.436     6888.104       15.779        2.353      515.601       82.865        0.026      328.732       -4.983      868.748
12/30/2014  19:14:00        7.125      415.198      -50.458       93.704      202.989       71.253     8780.388    41204.598     5077.018       11.501        2.753      415.259       92.121        0.049      328.759       -4.939      868.730
12/30/2014  19:15:00        2.507      492.430      -49.335      131.507      150.665       75.029    17294.184    22700.058     5629.349       14.527        2.281      492.436       69.822        0.020      328.768       -4.925      868.754
12/30/2014  19:16:00       30.703      389.756      -19.888      108.299      252.251      107.512    11728.666    63630.801    11558.878       12.007        4.346      390.964      134.999        0.119      328.789       -4.889      868.750
12/30/2014  19:17:00      -24.469      265.222       -7.193      105.403      180.680       76.661    11109.783    32645.311     5876.851        6.030        2.482      266.348       84.904        0.102      328.760       -4.936      868.776
12/30/2014  19:18:00      -11.462      568.290      -69.776      110.313      120.424       69.387    12168.858    14501.943     4814.591       17.971        1.574      568.406       56.241        0.010      328.802       -4.869      868.772
12/30/2014  19:19:00      -22.877      507.060      -65.585      107.940      169.599       79.743    11650.993    28763.769     6359.023       15.434        2.339      507.576       78.134        0.024      328.808       -4.859      868.764
12/30/2014  19:20:00       -4.369      367.303      -32.119       99.636      143.233       78.767     9927.381    20515.635     6204.218        8.630        1.832      367.329       75.974        0.043      328.761       -4.936      868.761
12/30/2014  19:21:00       44.381      266.468        0.778      121.200      206.421      101.886    14689.393    42609.578    10380.738        7.031        3.384      270.139      113.369        0.176      328.731       -4.985      868.755
12/30/2014  19:22:00       79.130      202.114        4.562      127.758      110.802       89.983    16322.127    12277.150     8096.885        4.191        1.835      217.052       87.415        0.162      328.713       -5.012      868.761
12/30/2014  19:23:00      102.982      245.753       -5.008      131.447      190.234      111.762    17278.334    36189.031    12490.668        6.848        3.298      266.458      116.115        0.190      328.724       -4.995      868.742
12/30/2014  19:24:00       64.192      351.712      -38.856      100.020      218.175      102.760    10004.074    47600.228    10559.692        9.873        3.408      357.522      117.382        0.108      328.725       -4.994      868.729
12/30/2014  19:25:00       34.996      296.923      -20.004       89.243      163.862       77.581     7964.336    26850.732     6018.812        6.530        2.042      298.978       87.966        0.087      328.731       -4.983      868.728
12/30/2014  19:26:00        0.737      494.588      -55.944       97.598      191.441       72.201     9525.317    36649.803     5212.965       14.956        2.569      494.588       91.255        0.034      328.750       -4.954      868.722
12/30/2014  19:27:00        3.079      442.347      -60.828       81.836      152.500       63.352     6697.084    23256.340     4013.528       11.667        1.698      442.358       65.732        0.022      328.758       -4.940      868.723
12/30/2014  19:28:00       31.480      511.480      -59.265      101.190      189.660       98.895    10239.321    35971.033     9780.202       16.104        2.800      512.447      102.137        0.040      328.737       -4.974      868.708
12/30/2014  19:29:00        6.370      454.008      -42.895       95.402      233.906       86.555     9101.614    54712.001     7491.843       13.964        3.565      454.053      114.824        0.064      328.746       -4.961      868.715
12/30/2014  19:30:00       -0.321      342.994      -19.478       91.793      168.758       80.034     8426.017    28479.365     6405.478        8.066        2.166      342.994       87.977        0.066      328.719       -5.004      868.734
12/30/2014  19:31:00       13.821      430.136      -44.744      104.459      144.648       78.938    10911.670    20923.088     6231.211       11.263        1.903      430.358       82.526        0.037      328.706       -5.026      868.736
12/30/2014  19:32:00       32.298      392.066      -48.958      141.040      156.226       88.382    19892.318    24406.639     7811.352       10.462        2.606      393.394       85.539        0.047      328.709       -5.019      868.733
12/30/2014  19:33:00        4.701      346.356      -16.339      129.846      163.810       91.980    16860.107    26833.593     8460.324        8.619        2.608      346.388       90.079        0.068      328.698       -5.038      868.737
12/30/2014  19:34:00       29.714      377.945      -37.669      108.024      199.786      102.985    11669.114    39914.369    10605.986       10.365        3.109      379.112      112.741        0.088      328.695       -5.043      868.751
12/30/2014  19:35:00       44.987      281.532      -10.679      131.272      186.561       96.264    17232.368    34804.956     9266.707        7.134        3.065      285.104      111.222        0.152      328.685       -5.059      868.755
12/30/2014  19:36:00      -25.822      394.282      -43.524      104.917      224.450       82.794    11007.559    50377.889     6854.859       11.312        3.412      395.127      114.675        0.084      328.713       -5.014      868.770
12/30/2014  19:37:00       76.898      371.975      -15.158      130.796      215.467      125.448    17107.481    46426.100    15737.211       11.187        3.964      379.840      139.229        0.134      328.747       -4.960      868.745
12/30/2014  19:38:00       53.623      415.541      -45.305      104.053      231.865      100.436    10826.986    53761.339    10087.474       12.612        3.734      418.987      120.764        0.083      328.737       -4.976      868.752
12/30/2014  19:39:00       84.407      298.166        5.026      129.852      171.209      118.080    16861.655    29312.481    13942.805        7.807        3.006      309.883      109.935        0.126      328.713       -5.014      868.769
12/30/2014  19:40:00      111.529      311.549      -15.538      152.737      193.924      112.047    23328.459    37606.559    12554.633        9.160        3.674      330.910      109.621        0.110      328.716       -5.008      868.763
12/30/2014  19:41:00       69.517      360.481      -26.047      115.390      183.043      110.207    13314.888    33504.916    12145.482        9.720        2.948      367.123       99.548        0.074      328.730       -4.985      868.749
12/30/2014  19:42:00       84.014      399.963      -29.560      157.309      219.202      113.094    24746.250    48049.513    12790.207       12.673        4.279      408.691      126.174        0.095      328.775       -4.914      868.731
12/30/2014  19:43:00      -25.586      342.935      -34.714      102.320      147.889       66.869    10469.344    21871.011     4471.517        7.813        1.841      343.888       67.725        0.039      328.783       -4.901      868.705
12/30/2014  19:44:00      -16.928      405.516      -32.221      129.216      197.503       92.817    16696.825    39007.259     8615.009       11.503        3.216      405.869       95.703        0.056      328.794       -4.883      868.710
12/30/2014  19:45:00       35.136      455.179      -39.469      121.428      220.377       96.222    14744.652    48566.007     9258.668       14.126        3.628      456.533      110.007        0.058      328.857       -4.779      868.696
12/30/2014  19:46:00       99.940      230.350       -3.734      106.773      171.348       98.982    11400.537    29360.154     9797.447        5.680        2.528      251.096       90.311        0.129      328.808       -4.860      868.762
12/30/2014  19:47:00      123.358      258.293      -19.801      145.457      182.823      118.327    21157.818    33424.181    14001.270        7.544        3.429      286.238      103.202        0.130      328.817       -4.843      868.740
12/30/2014  19:48:00      164.044      343.108       -5.144      192.924      221.804      163.120    37219.834    49197.204    26608.270       12.882        5.651      380.307      145.503        0.146      328.850       -4.790      868.681
12/30/2014  19:49:00      102.320      243.393        1.200      136.446      199.453      119.418    18617.472    39781.623    14260.622        7.117        3.633      264.026      114.348        0.188      328.839       -4.808      868.658
12/30/2014  19:50:00      118.477      298.600       16.661      165.321      211.200      125.519    27330.939    44605.349    15755.089        9.557        4.385      321.246      123.790        0.148      328.839       -4.808      868.623
12/30/2014  19:51:00       92.928      334.921      -23.079      135.761      197.922      112.968    18431.015    39173.208    12761.867        9.584        3.518      347.574      122.259        0.124      328.839       -4.808      868.601
12/30/2014  19:52:00       59.313      246.301       -5.458       82.688      127.807       86.806     6837.377    16334.579     7535.252        4.745        1.535      253.343       78.291        0.096      328.800       -4.874      868.611
12/30/2014  19:53:00      104.117      256.345        8.650      141.933      215.978      114.666    20144.940    46646.339    13148.322        7.827        3.997      276.682      128.857        0.217      328.789       -4.890      868.593
12/30/2014  19:54:00      130.809      370.537        3.749      196.270      271.524      169.335    38521.914    73725.463    28674.433       14.764        7.046      392.948      167.424        0.182      328.833       -4.819      868.541
12/30/2014  19:55:00      108.867      331.847       -6.025      162.903      280.439      135.345    26537.390    78646.057    18318.163       12.273        6.175      349.248      155.204        0.197      328.877       -4.746      868.541
12/30/2014  19:56:00       44.256      399.556      -26.892      191.261      199.515      106.356    36580.900    39806.066    11311.581       12.500        4.385      402.000      107.168        0.071      328.870       -4.758      868.563
12/30/2014  19:57:00      -49.938      528.543      -57.907      134.793      213.615       91.787    18169.035    45631.460     8424.809       17.870        3.611      530.897      102.386        0.037      328.948       -4.630      868.608
12/30/2014  19:58:00       26.062      528.487      -58.707      196.842      270.576      131.608    38746.626    73211.124    17320.687       20.632        6.464      529.129      135.029        0.065      328.991       -4.560      868.570
12/30/2014  19:59:00       47.752      361.069       -0.186      156.063      255.217      135.338    24355.753    65135.621    18316.350       12.021        5.390      364.213      154.339        0.180      328.964       -4.603      868.563
12/30/2014  20:00:00       61.731      282.099      -12.745      153.726      185.200      100.035    23631.661    34299.221    10007.077        7.573        3.397      288.774      103.169        0.128      328.961       -4.608      868.517
12/30/2014  20:01:00       65.206      256.192        5.711      110.258      154.088       83.219    12156.918    23743.188     6925.435        5.636        2.141      264.360       91.197        0.119      328.944       -4.637      868.451
12/30/2014  20:02:00       92.313      170.741       -8.062       91.584      117.166       72.587     8387.578    13727.939     5268.945        3.256        1.369      194.098       67.717        0.122      328.942       -4.638      868.452
12/30/2014  20:03:00      101.373      202.700       26.219      197.469      197.954      137.009    38994.061    39185.898    18771.353        7.448        4.848      226.636      123.185        0.295      328.977       -4.583      868.444
12/30/2014  20:04:00      221.425      160.094       18.012      152.951      145.855       99.064    23394.144    21273.809     9813.774        6.472        2.724      273.238       62.668        0.053      328.920       -4.676      868.396
12/30/2014  20:05:00      305.545      215.997       44.495      149.476      112.182      106.974    22343.140    12584.846    11443.527        9.417        2.319      374.182       72.519        0.038      328.900       -4.708      868.416
12/30/2014  20:06:00      166.026      176.099        0.611      148.986      127.566       91.170    22196.683    16273.028     8311.944        5.267        2.339      242.023       64.816        0.072      328.938       -4.645      868.464
12/30/2014  20:07:00      265.868      321.079       -5.589      201.825      190.701      128.143    40733.334    36366.739    16420.522       13.365        4.676      416.867      122.152        0.086      328.925       -4.667      868.453
12/30/2014  20:08:00      214.784      173.949       22.871      151.627       95.106       93.949    22990.611     9045.116     8826.344        5.888        2.043      276.389       61.037        0.049      328.909       -4.693      868.436
12/30/2014  20:09:00      112.234      243.578       -1.413      206.442      210.757      123.945    42618.179    44418.479    15362.351        8.714        5.120      268.192      129.689        0.234      329.004       -4.538      868.428
12/30/2014  20:10:00       84.454      330.488      -25.984      165.350      187.024      103.776    27340.777    34977.913    10769.552        9.504        3.654      341.108       89.009        0.068      329.031       -4.495      868.495
12/30/2014  20:11:00       90.899      260.065      -15.473      151.667      184.140      102.394    23002.813    33907.711    10484.485        7.175        3.370      275.493      108.593        0.155      329.033       -4.491      868.503
12/30/2014  20:12:00       94.785      142.650       11.347      114.649      104.966       66.217    13144.282    11017.852     4384.658        2.900        1.427      171.270       54.194        0.100      328.935       -4.649      868.529
12/30/2014  20:13:00      168.109      157.183       19.810      113.446       91.331       71.121    12870.024     8341.279     5058.161        3.981        1.313      230.146       56.950        0.061      328.910       -4.692      868.581
12/30/2014  20:14:00      159.511      168.984       17.861      150.884      131.427       96.577    22765.938    17272.932     9327.046        5.183        2.468      232.377       64.096        0.076      328.958       -4.613      868.611
12/30/2014  20:15:00      189.194      204.858        5.750      161.487      136.723       88.184    26077.964    18693.123     7776.477        6.516        2.627      278.857       73.379        0.069      328.928       -4.663      868.624
12/30/2014  20:16:00      167.504      146.034       25.682      140.129       83.075       62.529    19636.249     6901.472     3909.891        4.024        1.522      222.224       41.545        0.035      328.864       -4.768      868.626
12/30/2014  20:17:00      187.222      138.667       31.467      157.889      109.384       77.495    24928.934    11964.847     6005.528        4.908        2.145      232.982       46.250        0.039      328.878       -4.743      868.654
12/30/2014  20:18:00      152.062      176.745       11.086      170.106      121.408      102.675    28936.024    14739.886    10542.136        5.434        2.711      233.155       82.601        0.126      328.862       -4.770      868.667
12/30/2014  20:19:00       79.630      225.094      -20.751      106.565      143.714       79.396    11356.119    20653.595     6303.729        4.787        1.916      238.764       83.580        0.123      328.880       -4.740      868.689
12/30/2014  20:20:00      -52.479      510.220      -57.340      261.398      283.047      116.238    68328.749    80115.360    13511.356       21.413        8.098      512.912      112.909        0.048      329.112       -4.361      868.646
12/30/2014  20:21:00      152.728      162.256        0.368      117.888      104.254       65.449    13897.686    10868.971     4283.518        3.935        1.453      222.830       60.740        0.074      328.988       -4.563      868.742
12/30/2014  20:22:00      217.540      191.232       35.557      193.670      113.421       91.989    37508.161    12864.405     8462.005        7.198        2.942      289.643       66.218        0.052      328.906       -4.697      868.801
12/30/2014  20:23:00       33.901      268.406      -27.456       81.247      146.367       73.215     6601.056    21423.325     5360.426        5.366        1.669      270.538       73.737        0.074      328.868       -4.760      868.810
12/30/2014  20:24:00      161.501      121.716       19.247      108.746       75.304       55.119    11825.620     5670.634     3038.080        3.090        1.027      202.231       34.342        0.029      328.808       -4.860      868.840
12/30/2014  20:25:00      106.298      181.217       -9.844      106.584       98.980       61.077    11360.096     9797.089     3730.366        3.456        1.244      210.093       57.452        0.075      328.817       -4.843      868.836
12/30/2014  20:26:00       86.686      221.605      -19.185       88.621      137.755       76.201     7853.717    18976.491     5806.561        4.481        1.632      237.956       75.443        0.101      328.822       -4.836      868.864
12/30/2014  20:27:00      113.809      125.318        2.940       70.127       85.205       55.591     4917.742     7259.872     3090.409        2.196        0.763      169.284       50.366        0.089      328.849       -4.790      868.894
12/30/2014  20:28:00      191.340      235.377       -4.450      195.262      134.633       93.224    38127.374    18126.161     8690.723        7.848        3.247      303.337       86.982        0.082      328.883       -4.736      868.908
12/30/2014  20:29:00       69.969      130.726       23.638       84.511      123.290       80.334     7142.062    15200.448     6453.476        2.566        1.440      148.273       72.919        0.242      328.914       -4.685      868.933
12/30/2014  20:30:00      118.636       72.382       17.258       81.264       73.125       53.011     6603.789     5347.234     2810.171        1.718        0.738      138.974       30.158        0.047      328.872       -4.752      868.954
12/30/2014  20:31:00      176.500      131.601       51.108       96.749       96.730       72.409     9360.462     9356.723     5243.009        3.752        1.198      220.161       34.531        0.025      328.874       -4.751      868.964
12/30/2014  20:32:00      144.067      119.561       17.362      154.511       82.488       72.589    23873.666     6804.278     5269.127        3.564        1.797      187.217       48.271        0.066      328.883       -4.736      868.973
12/30/2014  20:33:00       21.884      199.376      -14.973      134.633      122.171       65.347    18126.093    14925.646     4270.224        3.888        1.866      200.573       65.302        0.106      328.880       -4.741      868.967
12/30/2014  20:34:00      179.550      187.436       17.622      194.945      141.283       96.606    38003.472    19960.815     9332.730        6.748        3.365      259.558       70.884        0.075      328.877       -4.747      868.977
12/30/2014  20:35:00      134.002      114.376       16.291      146.688       89.108       68.535    21517.420     7940.207     4697.091        3.272        1.708      176.177       50.848        0.083      328.910       -4.690      868.971
12/30/2014  20:36:00      133.917      280.969      -33.602      138.266      160.046       95.139    19117.567    25614.751     9051.510        7.588        2.689      311.251       83.629        0.072      328.988       -4.563      868.954
12/30/2014  20:37:00      214.906      208.963       20.426      168.403      116.125      100.632    28359.551    13484.927    10126.896        7.111        2.599      299.750       68.927        0.053      329.088       -4.402      868.921
12/30/2014  20:38:00       77.603      239.914       -4.166      130.413      179.900       93.092    17007.602    32364.037     8666.192        6.081        2.902      252.153       94.826        0.141      329.006       -4.536      868.940
12/30/2014  20:39:00      199.923      156.178       10.109      177.777      103.454       70.035    31604.738    10702.687     4904.952        5.583        2.361      253.694       51.846        0.042      328.980       -4.575      868.948
12/30/2014  20:40:00      209.279      149.061       29.013      103.912       85.423       82.045    10797.778     7297.105     6731.454        4.584        1.241      256.937       39.535        0.024      328.975       -4.586      868.918
12/30/2014  20:41:00      221.004      178.128       23.866      109.456       71.665       69.718    11980.529     5135.827     4860.646        5.156        1.099      283.853       45.798        0.026      328.959       -4.610      868.924
12/30/2014  20:42:00      173.446      107.650       18.038       82.459       64.530       59.728     6799.477     4164.168     3567.407        2.826        0.727      204.138       30.033        0.022      328.957       -4.614      868.937
12/30/2014  20:43:00       41.626       89.207       74.919       67.428       57.587       37.565     4546.484     3316.230     1411.107        1.229        0.464       98.440       37.949        0.149      328.917       -4.677      868.960
12/30/2014  20:44:00      110.258       77.696       13.742       71.490      100.383       48.323     5110.834    10076.683     2335.157        1.795        0.876      134.883       32.799        0.059      328.896       -4.712      868.987
12/30/2014  20:45:00      138.281      189.303        3.029      118.043      128.209       94.141    13934.243    16437.531     8862.475        4.709        1.962      234.430       82.665        0.124      328.900       -4.708      869.015
12/30/2014  20:46:00      123.186      131.799        2.778      108.225      113.946       80.848    11712.642    12983.699     6536.423        3.189        1.562      180.405       72.870        0.163      328.903       -4.701      869.063
12/30/2014  20:47:00       82.680      106.427       16.048       97.656       70.804       59.296     9536.709     5013.142     3516.008        1.824        0.903      134.769       51.171        0.144      328.883       -4.735      869.086
12/30/2014  20:48:00       71.311      127.748       -3.720       73.112      106.943       48.676     5345.304    11436.736     2369.365        2.028        0.958      146.304       52.138        0.127      328.844       -4.800      869.103
12/30/2014  20:49:00       75.994       72.353       11.560       78.935       65.147       41.913     6230.759     4244.087     1756.699        1.169        0.612      104.929       34.352        0.107      328.835       -4.812      869.110
12/30/2014  20:50:00       39.512        9.498       36.088       33.709       31.049       32.174     1136.264      964.010     1035.180        0.304        0.157       40.638       24.427        0.361      328.814       -4.845      869.135
12/30/2014  20:51:00       32.607       48.574       50.909       71.343       54.749       59.530     5089.762     2997.405     3543.789        0.882        0.582       58.504       46.566        0.634      328.829       -4.822      869.131
12/30/2014  20:52:00       46.105      -18.258       30.432       92.571      101.268       43.085     8569.440    10255.255     1856.280        1.203        1.034       49.588       26.186        0.279      328.867       -4.758      869.111
12/30/2014  20:53:00       55.116       47.717       16.022       84.981       50.656       29.474     7221.705     2566.031      868.703        0.811        0.533       72.902       28.864        0.157      328.823       -4.830      869.150
12/30/2014  20:54:00      -67.856       67.585       -9.662       46.811       82.556       30.880     2191.290     6815.528      953.569        0.961        0.498       95.772       13.955        0.021      328.878       -4.743      869.175
12/30/2014  20:55:00      -48.322       52.561       -7.785       45.373       32.086       20.867     2058.711     1029.527      435.423        0.434        0.176       71.398       21.970        0.095      328.850       -4.787      869.212
12/30/2014  20:56:00      -44.391       65.591       -7.962       38.417       50.313       24.677     1475.874     2531.395      608.954        0.548        0.231       79.201       26.000        0.108      328.808       -4.855      869.256
12/30/2014  20:57:00       41.638     -101.018        4.430       73.836       93.685       33.934     5451.730     8776.924     1151.536        1.367        0.769      109.263       32.118        0.086      328.931       -4.655      869.283
12/30/2014  20:58:00      116.547      -97.848       20.456       37.303       47.404       29.495     1391.546     2247.122      869.984        1.404        0.225      152.176        9.279        0.004      328.940       -4.642      869.274
12/30/2014  20:59:00      -23.640       -5.665        2.985       54.602       55.517       30.002     2981.357     3082.138      900.137        0.378        0.348       24.309       35.521        2.135      329.072       -4.425      869.230
12/30/2014  21:00:00      -41.136      188.028      -24.471       86.332       96.473       38.299     7453.136     9307.123     1466.790        2.793        0.911      192.475       31.305        0.026      328.899       -4.710      869.228
12/30/2014  21:01:00      -65.303      242.492      -24.581       86.746      111.352       53.463     7524.877    12399.187     2858.334        4.322        1.139      251.131       55.482        0.049      328.851       -4.787      869.277
12/30/2014  21:02:00      -21.114      210.282      -39.318       73.955      134.332       46.404     5469.375    18045.068     2153.370        3.593        1.283      211.340       51.870        0.060      328.831       -4.821      869.301
12/30/2014  21:03:00      -33.235       43.624       -3.046       69.084       46.672       48.555     4772.575     2178.318     2357.636        0.616        0.465       54.842       41.855        0.582      328.914       -4.684      869.290
12/30/2014  21:04:00       84.300       50.040       14.308       65.356       38.693       32.555     4271.386     1497.131     1059.801        0.832        0.341       98.033       11.572        0.014      328.801       -4.866      869.335
12/30/2014  21:05:00       27.535       34.749       20.327       68.464       49.545       31.274     4687.333     2454.730      978.036        0.525        0.406       44.336       28.639        0.417      328.743       -4.962      869.325
12/30/2014  21:06:00       61.855       43.238        9.578       54.651       38.548       24.460     2986.682     1485.924      598.274        0.543        0.254       75.470       19.727        0.068      328.829       -4.823      869.326
12/30/2014  21:07:00      201.052      130.593       16.424      115.902       93.513       54.677    13433.262     8744.605     2989.577        4.145        1.258      239.742       24.896        0.011      328.799       -4.874      869.310
12/30/2014  21:08:00        2.713      152.122      -24.286      117.374       71.232       37.623    13776.666     5074.053     1415.475        2.200        1.013      152.147       22.331        0.022      328.808       -4.858      869.297
12/30/2014  21:09:00      119.748      190.351      -14.442      132.134       64.827       50.671    17459.286     4202.496     2567.579        3.750        1.211      224.884       49.001        0.047      328.775       -4.912      869.281
12/30/2014  21:10:00      183.733      124.757       16.194       60.075       52.735       41.128     3608.993     2781.027     1691.528        2.883        0.404      222.086       23.641        0.011      328.820       -4.841      869.298
12/30/2014  21:11:00       79.354        0.412       -2.308       35.018       55.525       29.639     1226.278     3082.997      878.499        0.574        0.259       79.355       25.689        0.105      328.826       -4.827      869.325
12/30/2014  21:12:00       28.967       35.444       78.480       47.468       85.046       64.006     2253.182     7232.881     4096.740        1.092        0.679       45.775       68.920        2.267      328.811       -4.852      869.316
12/30/2014  21:13:00       15.218       57.612       16.249       33.093       47.841       55.757     1095.166     2288.717     3108.788        0.515        0.325       59.588       20.825        0.122      328.777       -4.906      869.318
12/30/2014  21:14:00      150.098       91.390       21.590      110.755       95.188       62.715    12266.571     9060.668     3933.198        2.830        1.263      175.731       39.193        0.050      328.736       -4.975      869.351
12/30/2014  21:15:00      116.675      144.710       14.251       85.210       82.303       75.499     7260.750     6773.719     5700.064        2.724        0.987      185.888       40.305        0.047      328.657       -5.103      869.334
12/30/2014  21:16:00       16.038      141.171      -16.972       48.890       89.418       33.115     2390.212     7995.524     1096.617        1.598        0.574      142.079       22.762        0.026      328.652       -5.112      869.312
12/30/2014  21:17:00       84.612      -29.362      -26.045       82.013      117.545       42.591     6726.179    13816.871     1813.951        1.552        1.118       89.562       33.562        0.140      328.710       -5.016      869.299
12/30/2014  21:18:00       18.422      162.817      -17.196      126.241      154.178       79.542    15936.880    23770.838     6326.980        3.658        2.302      163.856       70.574        0.186      328.682       -5.063      869.242
12/30/2014  21:19:00      129.416       67.724       -1.450       74.995       92.252       54.364     5624.289     8510.431     2955.479        1.921        0.855      146.065       30.430        0.043      328.650       -5.116      869.211
12/30/2014  21:20:00       43.314       12.402       37.125       76.972       68.804       41.194     5924.712     4734.011     1696.926        0.788        0.618       45.054       34.838        0.598      328.608       -5.182      869.227
12/30/2014  21:21:00      125.304       91.844       28.064      112.344       74.461       69.066    12621.124     5544.374     4770.077        2.393        1.147      155.359       29.245        0.035      328.635       -5.141      869.228
12/30/2014  21:22:00      118.893       67.340       13.305       48.943       37.095       40.855     2395.403     1376.035     1669.098        1.214        0.272      136.639       23.202        0.029      328.611       -5.176      869.263
12/30/2014  21:23:00       26.348      113.973      -19.205       46.713       81.476       42.490     2182.075     6638.378     1805.387        1.234        0.531      116.979       35.717        0.093      328.582       -5.226      869.283
12/30/2014  21:24:00       69.047       22.556       12.327       55.913       71.150       29.945     3126.271     5062.378      896.724        0.725        0.454       72.637       29.275        0.162      328.552       -5.275      869.308
12/30/2014  21:25:00       12.697       58.354        2.044       30.587       50.667       25.008      935.573     2567.153      625.424        0.385        0.206       59.719       18.073        0.092      328.566       -5.249      869.309
12/30/2014  21:26:00       21.165       45.315        4.912       25.708       59.613       23.340      660.919     3553.750      544.741        0.364        0.238       50.014       28.242        0.319      328.535       -5.300      869.295
12/30/2014  21:27:00       65.123      192.825      -17.350       88.939       90.063       49.829     7910.116     8111.281     2482.972        3.011        0.925      203.525       34.188        0.028      328.553       -5.273      869.317
12/30/2014  21:28:00      -19.256      197.965      -24.002       63.276      105.018       37.512     4003.837    11028.830     1407.118        2.829        0.822      198.899       42.001        0.045      328.589       -5.215      869.288
12/30/2014  21:29:00     -115.454      -24.327        0.067       80.660      101.316       38.730     6506.016    10265.015     1500.007        1.609        0.914      117.989       26.144        0.049      328.609       -5.181      869.270
12/30/2014  21:30:00      -65.418       44.824      -22.301       32.687       69.617       27.190     1068.441     4846.494      739.286        0.672        0.333       79.302       34.672        0.191      328.581       -5.227      869.286
12/30/2014  21:31:00       50.812       71.713        0.495       45.551       70.232       34.588     2074.864     4932.518     1196.352        0.796        0.410       87.890       43.753        0.248      328.521       -5.325      869.316
12/30/2014  21:32:00      112.488       66.590        6.699      102.710       81.893       54.099    10549.405     6706.530     2926.719        1.865        1.009      130.720       27.652        0.045      328.561       -5.259      869.357
12/30/2014  21:33:00      120.525       88.025      -10.397       86.451       98.703       58.295     7473.801     9742.209     3398.289        2.149        1.031      149.246       40.010        0.072      328.555       -5.270      869.373
12/30/2014  21:34:00      179.400      146.997       10.491      111.865      109.158       72.442    12513.678    11915.390     5247.915        4.178        1.484      231.932       50.127        0.047      328.541       -5.293      869.345
12/30/2014  21:35:00       44.380      170.480       -9.266       89.250      132.108       55.829     7965.541    17452.405     3116.847        2.982        1.427      176.162       67.834        0.148      328.484       -5.386      869.343
12/30/2014  21:36:00      169.337       91.929       24.951       75.694       53.170       47.098     5729.513     2827.090     2218.258        2.426        0.539      192.680       30.447        0.025      328.512       -5.340      869.295
12/30/2014  21:37:00       91.910      125.790       74.344       91.312       65.493       65.588     8337.910     4289.306     4301.841        2.336        0.846      155.790       56.840        0.133      328.548       -5.283      869.249
12/30/2014  21:38:00       45.407       41.831        4.652       58.890       34.491       26.407     3468.081     1189.634      697.312        0.459        0.268       61.739       20.855        0.114      328.456       -5.428      869.287
12/30/2014  21:39:00       11.504       41.334       -8.354       25.954       26.026       12.035      673.603      677.359      144.852        0.170        0.075       42.905       10.127        0.056      328.384       -5.547      869.280
12/30/2014  21:40:00      -86.847      102.740      -21.305       43.963       53.534       26.917     1932.731     2865.929      724.550        1.204        0.276      134.528       33.724        0.063      328.517       -5.332      869.264
12/30/2014  21:41:00      -33.326       22.641       13.320       44.589       48.697       24.011     1988.169     2371.441      576.545        0.337        0.247       40.290       23.177        0.331      328.433       -5.468      869.239
12/30/2014  21:42:00       69.098       74.047       -1.798       52.615       56.361       31.781     2768.367     3176.534     1010.002        0.861        0.348      101.279       32.818        0.105      328.498       -5.362      869.251
12/30/2014  21:43:00      109.794       77.259        9.376       34.869       23.000       28.830     1215.824      528.990      831.176        1.034        0.129      134.252       14.508        0.012      328.496       -5.362      869.277
12/30/2014  21:44:00       53.556       26.524       18.005       38.757       27.593       24.427     1502.090      761.349      596.698        0.338        0.143       59.764       22.421        0.141      328.435       -5.463      869.290
12/30/2014  21:45:00       39.162       28.308       14.843       68.151       40.092       30.569     4644.574     1607.335      934.446        0.487        0.359       48.322       26.376        0.298      328.448       -5.443      869.295
12/30/2014  21:46:00      -72.261       12.249       10.438       39.687       45.292       25.641     1575.070     2051.355      657.448        0.488        0.214       73.292       16.298        0.049      328.519       -5.326      869.292
12/30/2014  21:47:00      -71.896      -44.563       -2.329       50.346       34.479       19.482     2534.749     1188.791      379.566        0.563        0.205       84.587       15.715        0.035      328.535       -5.301      869.295
12/30/2014  21:48:00       -4.890      -13.476       13.055       39.203       40.512       22.681     1536.899     1641.204      514.434        0.203        0.185       14.336       25.930        3.272      328.536       -5.299      869.309
12/30/2014  21:49:00      -10.612       34.008       -9.161       18.031       17.879       10.374      325.109      319.658      107.617        0.105        0.038       35.625       12.263        0.118      328.610       -5.178      869.309
12/30/2014  21:50:00      -16.045      -32.570        2.094       19.827       25.192       10.210      393.114      634.658      104.243        0.123        0.057       36.308        8.548        0.055      328.588       -5.215      869.310
12/30/2014  21:51:00      -69.749      -74.674       -6.336       27.490       25.523       18.624      755.719      651.432      346.849        0.612        0.088      102.182       15.771        0.024      328.607       -5.183      869.294
12/30/2014  21:52:00      -38.439      -34.141       10.450       46.256       31.978       23.561     2139.660     1022.575      555.140        0.323        0.186       51.412       21.860        0.181      328.476       -5.397      869.288
12/30/2014  21:53:00     -115.185      -74.607        1.377       50.807       36.922       27.004     2581.399     1363.206      729.216        1.175        0.234      137.236       26.055        0.036      328.503       -5.354      869.310
12/30/2014  21:54:00      -81.918      -36.675        8.612       47.465       42.419       25.815     2252.925     1799.393      666.433        0.642        0.236       89.753       22.687        0.064      328.548       -5.280      869.341
12/30/2014  21:55:00      -53.176      -26.043        3.787       40.802       26.742       16.353     1664.837      715.154      267.413        0.308        0.132       59.211       17.667        0.089      328.638       -5.133      869.365
12/30/2014  21:56:00      -31.537      -36.679        2.126       41.688       24.640       20.302     1737.900      607.130      412.166        0.255        0.138       48.372       17.636        0.133      328.609       -5.180      869.371
12/30/2014  21:57:00     -112.952      -80.892       -4.633       41.595       27.036       22.297     1730.122      730.922      497.166        1.114        0.148      138.930       15.857        0.013      328.597       -5.199      869.365
12/30/2014  21:58:00     -105.211      -81.973       -3.657       48.280       34.274       25.180     2330.973     1174.720      634.044        1.097        0.207      133.375       24.408        0.033      328.583       -5.223      869.378
12/30/2014  21:59:00      -78.141      -73.033       -2.558       28.750       25.820       17.859      826.582      666.651      318.939        0.663        0.091      106.957       10.827        0.010      328.606       -5.186      869.391
12/30/2014  22:00:00      -91.349      -63.936        1.887       51.165       34.721       23.558     2617.861     1205.575      554.988        0.841        0.219      111.501       22.403        0.040      328.604       -5.189      869.400
12/30/2014  22:01:00      -56.390      -48.001       -4.582       35.021       34.323       17.572     1226.458     1178.071      308.788        0.411        0.136       74.053        9.590        0.017      328.608       -5.182      869.423
12/30/2014  22:02:00      -71.985      -73.833       -2.614       40.207       27.601       19.557     1616.589      761.813      382.493        0.670        0.138      103.117        9.819        0.009      328.568       -5.247      869.443
12/30/2014  22:03:00     -105.988      -67.228       -0.989       43.819       26.760       20.270     1920.084      716.086      410.862        0.940        0.152      125.511       18.533        0.022      328.575       -5.235      869.442
12/30/2014  22:04:00     -137.502      -70.069       -3.612       44.466       29.355       18.573     1977.216      861.695      344.941        1.351        0.159      154.326       17.802        0.013      328.587       -5.216      869.440
12/30/2014  22:05:00      -79.316      -42.448       -5.407       27.705       31.831       20.587      767.572     1013.199      423.819        0.516        0.110       89.960       13.655        0.023      328.561       -5.258      869.436
12/30/2014  22:06:00      -84.922      -35.928       -7.907       31.843       29.346       16.312     1013.958      861.192      266.070        0.535        0.107       92.209       14.615        0.025      328.594       -5.203      869.427
12/30/2014  22:07:00     -125.756      -61.038      -15.256       33.310       22.590       16.620     1109.568      510.299      276.221        1.083        0.095      139.786       10.180        0.005      328.613       -5.172      869.420
12/30/2014  22:08:00     -148.725      -27.989      -12.254       46.660       36.621       22.870     2177.153     1341.067      523.052        1.355        0.202      151.336       22.766        0.023      328.335       -5.627      869.415
12/30/2014  22:09:00     -156.594      -29.067       -4.729       56.028       35.846       24.939     3139.130     1284.950      621.940        1.522        0.252      159.269       26.062        0.027      328.232       -5.796      869.418
12/30/2014  22:10:00     -176.008      -17.461      -18.759       36.122       23.333       21.629     1304.794      544.415      467.816        1.698        0.116      176.872       16.108        0.008      328.199       -5.850      869.417
12/30/2014  22:11:00     -135.186       -8.720       -4.235       50.586       45.048       29.707     2558.965     2029.292      882.503        1.192        0.274      135.467       30.602        0.051      328.173       -5.892      869.419
12/30/2014  22:12:00     -167.831       37.925      -13.608       45.827       36.350       24.667     2100.077     1321.290      608.478        1.691        0.201      172.063       22.992        0.018      328.148       -5.933      869.428
12/30/2014  22:13:00     -159.158      -23.606      -27.911       23.970       26.953       17.781      574.544      726.467      316.159        1.414        0.081      160.899       12.199        0.006      328.178       -5.883      869.434
12/30/2014  22:14:00     -112.700      -55.804       -7.700       22.262       25.727       20.817      495.597      661.854      433.328        0.873        0.080      125.759       14.470        0.013      328.223       -5.809      869.441
12/30/2014  22:15:00      -68.881      -61.867      -11.245       47.728       32.918       30.051     2277.928     1083.595      903.048        0.648        0.213       92.586       32.995        0.127      328.263       -5.744      869.428
12/30/2014  22:16:00      -33.531      -15.231        9.815       38.448       35.044       21.191     1478.248     1228.073      449.052        0.230        0.158       36.828       21.874        0.353      328.223       -5.809      869.406
12/30/2014  22:17:00      -63.573       22.337      -13.584       22.832       22.802       13.170      521.308      519.943      173.453        0.297        0.061       67.383        6.932        0.011      328.272       -5.729      869.399
12/30/2014  22:18:00     -102.947      -39.984        0.092       50.071       38.046       26.539     2507.089     1447.524      704.344        0.843        0.233      110.439       23.433        0.045      328.206       -5.838      869.391
12/30/2014  22:19:00     -174.752      -59.701       -6.569       40.761       47.022       20.633     1661.430     2211.097      425.738        1.922        0.215      184.668       21.347        0.013      328.172       -5.893      869.381
12/30/2014  22:20:00     -168.411      -56.545        1.621       48.238       36.121       24.830     2326.871     1304.724      616.534        1.790        0.212      177.650       26.520        0.022      328.148       -5.932      869.374
12/30/2014  22:21:00     -124.316      -48.850       -7.291       51.046       29.580       23.312     2605.735      874.986      543.459        1.096        0.201      133.570       20.495        0.024      328.305       -5.674      869.377
12/30/2014  22:22:00      -98.905     -106.144        2.664       40.598       41.343       33.588     1648.202     1709.208     1128.161        1.277        0.224      145.081       27.423        0.036      328.271       -5.731      869.395
12/30/2014  22:23:00     -133.196      -93.202       -7.263       48.992       33.979       29.028     2400.172     1154.548      842.619        1.544        0.220      162.566       25.082        0.024      328.293       -5.696      869.405
12/30/2014  22:24:00      -33.273      -63.368        7.769       66.388       42.624       31.809     4407.415     1816.841     1011.782        0.621        0.362       71.572       37.391        0.273      328.335       -5.627      869.404
12/30/2014  22:25:00      -41.436      -22.120        7.056       45.301       40.507       24.595     2052.212     1640.787      604.894        0.328        0.215       46.970       16.524        0.124      328.215       -5.822      869.394
12/30/2014  22:26:00      -40.805       30.824       -1.324       34.758       25.003       14.293     1208.091      625.138      204.303        0.233        0.102       51.139       11.443        0.050      328.317       -5.656      869.407
12/30/2014  22:27:00       28.862       50.271        0.211       13.016       32.669       19.361      169.410     1067.259      374.850        0.249        0.081       57.967       19.401        0.112      328.306       -5.675      869.401
12/30/2014  22:28:00       30.054       25.354       -4.770       16.151       14.689       16.755      260.851      215.760      280.725        0.116        0.038       39.321        8.225        0.044      328.375       -5.563      869.402
12/30/2014  22:29:00        5.083       50.053       -9.602        9.607       18.930        9.806       92.289      358.335       96.166        0.158        0.027       50.311        9.227        0.034      328.367       -5.576      869.382
12/30/2014  22:30:00      -60.816       21.973       -9.240       38.569       17.068       13.396     1487.547      291.334      179.454        0.311        0.098       64.664       10.599        0.027      328.285       -5.707      869.378
12/30/2014  22:31:00     -126.551        3.270      -14.040       27.985       38.206       15.663      783.175     1459.706      245.335        0.936        0.124      126.593       12.372        0.010      328.260       -5.749      869.368
12/30/2014  22:32:00     -148.363      -66.453      -20.370       23.535       21.454       12.244      553.904      460.285      149.916        1.400        0.058      162.565        7.713        0.002      328.262       -5.745      869.346
12/30/2014  22:33:00     -143.376      -28.592      -17.927       28.147       28.102       16.468      792.240      789.712      271.208        1.177        0.093      146.199        9.921        0.005      328.306       -5.673      869.354
12/30/2014  22:34:00     -130.942      -29.047       -7.190       35.444       32.228       19.185     1256.261     1038.657      368.083        1.035        0.133      134.125       13.698        0.010      328.241       -5.780      869.337
12/30/2014  22:35:00     -167.893     -100.810       -7.840       66.748       54.199       35.042     4455.337     2937.554     1227.970        2.351        0.431      195.834       18.919        0.009      328.274       -5.729      869.320
12/30/2014  22:36:00     -197.694      -68.734       -8.060       67.891       58.155       33.357     4609.188     3382.053     1112.658        2.649        0.455      209.302       30.067        0.021      328.376       -5.564      869.315
12/30/2014  22:37:00     -161.775      -54.428        0.230       71.702       72.208       38.368     5141.160     5213.935     1472.070        2.048        0.591      170.686       35.469        0.043      328.393       -5.534      869.330
12/30/2014  22:38:00        3.341       73.192      -16.916       83.029       42.991       23.141     6893.815     1848.251      535.505        0.746        0.464       73.268       26.844        0.134      328.294       -5.695      869.374
12/30/2014  22:39:00       35.443      139.939      -14.466       42.161       72.633       33.526     1777.527     5275.482     1123.963        1.461        0.409      144.358       35.727        0.061      328.126       -5.968      869.410
12/30/2014  22:40:00       53.046       95.810       -7.177       54.929       66.070       47.332     3017.230     4365.220     2240.346        1.083        0.481      109.515       39.025        0.127      328.027       -6.129      869.418
12/30/2014  22:41:00      -28.955       79.447      -13.042       45.272       45.625       27.585     2049.560     2081.630      760.914        0.611        0.245       84.559       20.390        0.058      328.101       -6.008      869.407
12/30/2014  22:42:00      -10.235      -24.552      -13.159       25.084       45.670       23.972      629.204     2085.707      574.644        0.208        0.164       26.600       26.965        1.028      328.262       -5.746      869.384
12/30/2014  22:43:00      -21.562      -23.539        4.385       31.199       39.957       25.695      973.379     1596.568      660.216        0.213        0.162       31.922       20.720        0.421      328.315       -5.659      869.364
12/30/2014  22:44:00        2.973       74.576       -7.189       24.682       53.353       25.580      609.226     2846.571      654.347        0.487        0.206       74.635       18.257        0.060      328.321       -5.648      869.349
12/30/2014  22:45:00      -18.333       82.415       -3.897       30.919       27.214       25.128      955.978      740.602      631.396        0.474        0.116       84.430       12.462        0.022      328.359       -5.588      869.369
12/30/2014  22:46:00      -51.442       70.840      -18.938       42.985       29.701       14.776     1847.693      882.147      218.332        0.549        0.147       87.547       20.859        0.057      328.613       -5.175      869.373
12/30/2014  22:47:00     -143.221      -28.398      -24.531       44.957       42.224       19.089     2021.157     1782.889      364.405        1.304        0.208      146.010       14.188        0.009      328.442       -5.455      869.408
12/30/2014  22:48:00      -85.524      -44.050       -0.461       39.884       58.315       29.097     1590.771     3400.594      846.650        0.755        0.292       96.202       22.518        0.055      328.378       -5.554      869.429
12/30/2014  22:49:00      -91.380      -31.812      -15.945       30.647       30.064       19.513      939.211      903.823      380.738        0.592        0.111       96.759       12.795        0.017      328.369       -5.571      869.462
12/30/2014  22:50:00     -170.462      -73.547      -13.371       57.383       46.655       30.489     3292.851     2176.717      929.583        2.052        0.320      185.651       22.394        0.015      328.303       -5.681      869.445
12/30/2014  22:51:00      -75.855      -22.887        4.458       55.996       33.381       25.722     3135.607     1114.324      661.618        0.560        0.246       79.232       24.135        0.093      328.223       -5.808      869.457
12/30/2014  22:52:00      -57.563        1.120        5.394       45.848       39.680       27.445     2102.045     1574.531      753.208        0.389        0.221       57.574       24.592        0.182      328.202       -5.843      869.487
12/30/2014  22:53:00     -128.580       54.376      -23.660       52.456       53.829       25.990     2751.594     2897.523      675.470        1.319        0.316      139.605       20.520        0.022      328.208       -5.835      869.503
12/30/2014  22:54:00      -99.624       42.390      -12.424       42.821       71.777       33.305     1833.612     5151.960     1109.220        0.998        0.405      108.268       33.387        0.095      328.129       -5.963      869.494
12/30/2014  22:55:00      -86.942       14.822      -18.161       50.652       60.398       21.104     2565.650     3647.916      445.397        0.738        0.333       88.196       11.540        0.017      328.169       -5.897      869.473
12/30/2014  22:56:00     -146.943      -20.646      -16.797       25.029       30.903       19.600      626.451      955.020      384.149        1.213        0.098      148.386       16.139        0.012      328.012       -6.153      869.454
12/30/2014  22:57:00     -165.778        4.743      -15.472       22.108       19.824       15.469      488.778      392.983      239.304        1.443        0.056      165.845       10.398        0.004      328.017       -6.145      869.441
12/30/2014  22:58:00     -158.657      -33.007      -13.222       20.863       23.062       16.083      435.253      531.849      258.671        1.383        0.061      162.054       10.385        0.004      328.012       -6.154      869.450
12/30/2014  22:59:00      -95.019      -28.483       -5.863       50.371       32.143       25.249     2537.202     1033.184      637.501        0.704        0.210       99.196       14.448        0.021      328.081       -6.041      869.459
12/30/2014  23:00:00      -89.590      -24.168        6.570       32.185       40.739       22.998     1035.858     1659.646      528.897        0.594        0.161       92.793       18.208        0.039      328.051       -6.089      869.437
12/30/2014  23:01:00      -75.958        0.498       -8.806       24.540       40.370       17.324      602.230     1629.703      300.125        0.419        0.127       75.960       15.444        0.041      328.040       -6.107      869.432
12/30/2014  23:02:00      -83.268      -34.697      -12.324       23.924       21.140       10.072      572.380      446.879      101.446        0.470        0.056       90.207        5.199        0.003      328.034       -6.117      869.434
12/30/2014  23:03:00      -81.855       64.380      -27.425       37.677       51.756       25.122     1419.530     2678.680      631.118        0.816        0.236      104.139       18.648        0.032      328.167       -5.900      869.431
12/30/2014  23:04:00      -97.414       14.882      -12.329       26.111       29.277       19.710      681.793      857.147      388.499        0.589        0.096       98.545       13.363        0.018      328.149       -5.929      869.417
12/30/2014  23:05:00      -57.395       17.821       -1.918       32.856       35.538       23.074     1079.500     1262.975      532.399        0.324        0.144       60.098       12.335        0.042      328.096       -6.016      869.430
12/30/2014  23:06:00      -45.262       27.367        1.783       30.763       28.456       22.742      946.391      809.735      517.203        0.254        0.114       52.892       12.402        0.055      328.064       -6.069      869.421
12/30/2014  23:07:00      -70.412       39.237      -11.593       20.157       23.497       20.086      406.319      552.116      403.450        0.400        0.068       80.607        9.307        0.013      328.181       -5.878      869.404
12/30/2014  23:08:00      -47.980       24.087      -14.920       16.073       25.072       20.151      258.356      628.606      406.064        0.220        0.065       53.687       14.827        0.076      328.194       -5.857      869.378
12/30/2014  23:09:00      -67.153       67.220      -24.387       22.580       25.983       17.892      509.875      675.119      320.139        0.556        0.075       95.016       12.874        0.018      328.281       -5.715      869.387
12/30/2014  23:10:00      -89.569       52.155      -28.343       19.744       30.249       15.017      389.836      915.029      225.497        0.654        0.077      103.647        7.544        0.005      328.237       -5.787      869.383
12/30/2014  23:11:00     -124.215      177.126      -37.040       54.676       81.715       32.224     2989.497     6677.318     1038.415        2.944        0.535      216.340       27.933        0.017      328.351       -5.603      869.377
12/30/2014  23:12:00       -3.543      160.741      -13.762       54.125       76.315       42.384     2929.546     5823.957     1796.419        1.829        0.527      160.780       41.835        0.068      328.321       -5.652      869.359
12/30/2014  23:13:00       -6.552      114.092      -10.763       36.156       49.548       32.754     1307.286     2455.036     1072.795        0.900        0.242      114.280       32.100        0.079      328.302       -5.681      869.331
12/30/2014  23:14:00      -72.282       73.315      -24.339       25.810       40.043       15.706      666.167     1603.477      246.688        0.685        0.126      102.955        9.860        0.009      328.355       -5.594      869.308
12/30/2014  23:15:00     -108.440       66.263      -29.883       27.042       48.545       16.502      731.246     2356.587      272.318        1.020        0.168      127.083       16.460        0.017      328.269       -5.733      869.291
12/30/2014  23:16:00      -98.142      -49.721      -11.349       36.676       26.329       22.945     1345.124      693.220      526.478        0.740        0.128      110.018       16.498        0.022      328.121       -5.977      869.255
12/30/2014  23:17:00      -89.811       97.605      -26.006       53.646       90.857       37.222     2877.840     8255.073     1385.444        1.539        0.626      132.638       38.539        0.084      328.277       -5.722      869.276
12/30/2014  23:18:00      -68.369      232.407      -30.619       42.066       50.076       25.074     1769.588     2507.603      628.722        3.226        0.245      242.255       16.573        0.005      328.422       -5.490      869.289
12/30/2014  23:19:00      -51.621      181.604      -28.311       42.744       35.424       20.490     1827.057     1254.861      419.855        1.997        0.175      188.798       15.461        0.007      328.441       -5.456      869.278
12/30/2014  23:20:00       -5.548      104.950       -8.617       49.302       54.971       29.519     2430.649     3021.764      871.346        0.872        0.316      105.097       30.847        0.086      328.359       -5.589      869.276
12/30/2014  23:21:00       13.591       89.014       -9.465       36.661       37.971       28.673     1344.063     1441.777      822.138        0.590        0.180       90.046       27.319        0.092      328.302       -5.680      869.265
12/30/2014  23:22:00       19.272       51.664       -4.310       28.624       33.311       14.135      819.318     1109.612      199.806        0.259        0.106       55.142       10.066        0.033      328.247       -5.770      869.269
12/30/2014  23:23:00       20.477       19.947        2.572       20.782       20.037       16.424      431.875      401.501      269.751        0.096        0.055       28.587       13.278        0.216      328.223       -5.809      869.285
12/30/2014  23:24:00        5.220       48.955      -11.014       29.864       27.731       12.585      891.829      768.987      158.375        0.218        0.091       49.232       17.194        0.122      328.214       -5.823      869.289
12/30/2014  23:25:00      -19.211       58.129       -6.734       25.042       36.261       15.626      627.086     1314.875      244.186        0.299        0.109       61.221       16.095        0.069      328.308       -5.671      869.279
12/30/2014  23:26:00     -100.979        3.961      -12.266       31.968       39.224       14.707     1021.949     1538.507      216.288        0.657        0.139      101.056       11.337        0.013      328.280       -5.717      869.255
12/30/2014  23:27:00     -135.970      -42.878      -21.523       41.544       32.307       20.563     1725.936     1043.770      422.824        1.199        0.160      142.571       17.856        0.016      328.278       -5.721      869.216
12/30/2014  23:28:00     -116.400      -55.238       -0.824       43.675       41.313       31.190     1907.516     1706.725      972.839        1.059        0.229      128.842       21.005        0.027      328.139       -5.946      869.208
12/30/2014  23:29:00      -64.130      -34.290       12.737       51.658       49.444       24.374     2668.506     2444.756      594.085        0.558        0.285       72.721       25.108        0.119      328.033       -6.117      869.233
12/30/2014  23:30:00      -99.791      -23.369      -10.144       47.040       45.748       24.521     2212.755     2092.876      601.303        0.776        0.245      102.491       14.260        0.019      328.016       -6.145      869.256
12/30/2014  23:31:00      -55.884       51.090      -13.756       28.827       61.885       23.570      831.023     3829.724      555.547        0.557        0.261       75.718       25.079        0.110      328.100       -6.010      869.265
12/30/2014  23:32:00     -101.630      -33.453       -5.082       28.691       27.562       18.310      823.180      759.665      335.270        0.670        0.096      106.994       12.603        0.014      328.040       -6.107      869.246
12/30/2014  23:33:00      -75.137       12.992       -4.204       69.054       35.781       28.722     4768.460     1280.311      824.952        0.635        0.344       76.252       40.260        0.279      328.068       -6.064      869.219
12/30/2014  23:34:00      -70.058      -18.246        1.162       45.343       35.215       22.759     2055.998     1240.065      517.961        0.453        0.191       72.395       21.273        0.086      328.037       -6.111      869.201
12/30/2014  23:35:00     -138.256       56.670      -22.890       76.020       67.451       35.366     5779.014     4549.615     1250.741        1.721        0.579      149.419       29.223        0.038      328.088       -6.030      869.177
12/30/2014  23:36:00      -91.823       66.126       -3.889       39.329       52.200       36.726     1546.788     2724.790     1348.832        0.922        0.281      113.156       31.991        0.080      328.117       -5.983      869.179
12/30/2014  23:37:00      -54.476      120.899      -13.040       67.794       43.293       34.967     4596.078     1874.322     1222.700        1.272        0.385      132.606       34.640        0.068      328.114       -5.988      869.184
12/30/2014  23:38:00       -4.284      157.141      -21.074       39.958       94.306       33.746     1596.620     8893.648     1138.786        1.839        0.581      157.200       44.754        0.081      328.142       -5.944      869.199
12/30/2014  23:39:00      -46.782      235.088      -36.733       52.373       67.239       24.619     2742.892     4521.067      606.071        3.334        0.394      239.698       24.873        0.011      328.127       -5.968      869.209
12/30/2014  23:40:00      -77.187      111.296      -11.193       57.925       77.910       35.878     3355.323     6069.955     1287.244        1.459        0.536      135.442       31.873        0.055      328.167       -5.903      869.222
12/30/2014  23:41:00      -91.240       93.588      -26.764       42.083       72.721       24.610     1770.985     5288.334      605.632        1.273        0.383      130.704       28.103        0.046      328.165       -5.904      869.189
12/30/2014  23:42:00     -106.099      152.130      -35.203       45.808       51.910       27.864     2098.415     2694.665      776.384        2.060        0.278      185.474       20.301        0.012      328.244       -5.776      869.165
12/30/2014  23:43:00      -43.005      181.699      -18.411       36.839       58.777       26.867     1357.078     3454.714      721.854        2.037        0.277      186.719       30.614        0.027      328.213       -5.827      869.155
12/30/2014  23:44:00      -49.815      207.121      -26.227       30.104       43.689       16.065      906.233     1908.699      258.073        2.457        0.154      213.027       16.132        0.006      328.144       -5.941      869.140
12/30/2014  23:45:00      -67.710       97.727      -20.929       41.170       48.426       24.758     1694.933     2345.060      612.948        0.961        0.233      118.891       21.295        0.032      328.218       -5.817      869.127
12/30/2014  23:46:00      -23.211       47.648        3.946       54.049       75.481       31.279     2921.336     5697.452      978.366        0.621        0.480       53.000       32.207        0.369      328.163       -5.908      869.106
12/30/2014  23:47:00      -38.856      131.346      -15.043       33.680       51.502       25.057     1134.353     2652.440      627.878        1.170        0.221      136.973       27.512        0.040      328.171       -5.896      869.095
12/30/2014  23:48:00      -43.634      128.090      -21.294       38.521       45.442       21.911     1483.898     2064.971      480.093        1.140        0.201      135.319       17.280        0.016      328.184       -5.874      869.085
12/30/2014  23:49:00      -94.803       64.266      -23.385       32.736       46.572       26.726     1071.675     2168.969      714.266        0.881        0.198      114.533       20.570        0.032      328.242       -5.780      869.082
12/30/2014  23:50:00     -114.607       76.732      -20.920       40.393       49.930       25.181     1631.589     2492.990      634.089        1.211        0.238      137.922       10.898        0.006      328.143       -5.940      869.066
12/30/2014  23:51:00     -116.830       68.945      -18.510       53.293       40.092       32.606     2840.161     1607.358     1063.139        1.213        0.276      135.657       29.529        0.047      328.161       -5.912      869.051
12/30/2014  23:52:00     -124.145      108.870      -33.432       51.182       43.453       29.156     2619.622     1888.126      850.097        1.687        0.268      165.120       32.311        0.038      328.188       -5.867      869.042
12/30/2014  23:53:00     -101.651       47.803      -26.261       29.485       47.335       23.760      869.365     2240.601      564.515        0.849        0.184      112.330       11.520        0.011      328.151       -5.926      869.046
12/30/2014  23:54:00      -16.323        5.710       -9.174       33.581       25.984       29.839     1127.690      675.145      890.385        0.154        0.135       17.293       21.279        1.514      328.127       -5.966      869.060
12/30/2014  23:55:00      -94.812       22.806      -17.381       59.029       28.195       20.971     3484.388      794.952      439.795        0.726        0.236       97.516       24.685        0.064      328.201       -5.847      869.070
12/30/2014  23:56:00      -50.399       81.721      -13.119       36.168       49.618       23.964     1308.150     2461.958      574.291        0.687        0.217       96.012       22.163        0.053      328.142       -5.943      869.085
12/30/2014  23:57:00      -62.137       46.981      -11.882       30.630       40.617       22.852      938.189     1649.753      522.214        0.466        0.156       77.899       21.841        0.079      328.181       -5.879      869.094
12/30/2014  23:58:00      -87.630       71.938      -22.537       54.046       50.141       35.767     2920.962     2514.090     1279.283        1.004        0.336      113.376       35.394        0.097      328.120       -5.979      869.098
12/30/2014  23:59:00     -158.108       32.359      -19.429       62.626       45.189       36.247     3922.005     2042.077     1313.878        1.685        0.364      161.386       28.447        0.031      328.165       -5.906      869.100
